[[{"header":{"parameterUnit":"m.s-1","parameterCategory":1,"la1":30.6,"la2":28.766,"lo1":-90.7593,"lo2":-88.6598,"dx":0.0162,"dy":0.0183,"nx":116,"ny":114,"refTime":"2022-12-17T18:00:00:Z","depth":0,"parameterNumber":2,"parameterNumberName":"U-component_of_WINDS"},"data":[0.0,0.0,0.0,0.0,0.0,0.0,0.0,0.0,0.0,0.0,0.0,0.0,0.0,0.0,0.0,0.0,0.0,0.0,0.0,0.0,0.0,0.0,0.0,0.0,0.0,0.0,0.0,0.0,0.0,0.0,0.0,0.0,0.0,0.0,0.0,0.0,0.0,0.0,0.0,0.0,0.0,0.0,0.0,0.0,0.0,0.0,0.0,0.0,0.0,0.0,0.0,0.0,0.0,0.0,0.0,0.0,0.0,0.0,0.0,0.0,0.0,0.0,0.0,0.0,0.0,0.0,0.0,0.0,0.0,0.0,0.0,0.0,0.0,0.0,0.0,0.0,0.0,0.0,0.0,0.0,0.0,0.0,0.0,0.0,0.0,0.0,0.0,0.0,0.0,0.0,0.0,0.0,0.0,0.0,0.0,0.0,0.0,0.0,0.0,0.0,0.0,0.0,0.0,0.0,0.0,0.0,0.0,0.0,0.0,0.0,0.0,0.0,0.0,0.0,0.0,0.0,0.0,0.0,0.0,0.0,0.0,0.0,0.0,0.0,0.0,0.0,0.0,0.0,0.0,0.0,0.0,0.0,0.0,0.0,0.0,0.0,0.0,0.0,0.0,0.0,0.0,0.0,0.0,0.0,0.0,0.0,0.0,0.0,0.0,0.0,0.0,0.0,0.0,0.0,0.0,0.0,0.0,0.0,0.0,0.0,0.0,0.0,0.0,0.0,0.0,0.0,0.0,0.0,0.0,0.0,0.0,0.0,0.0,0.0,0.0,0.0,0.0,0.0,0.0,0.0,0.0,0.0,0.0,0.0,0.0,0.0,0.0,0.0,0.0,0.0,0.0,0.0,0.0,0.0,0.0,0.0,0.0,0.0,0.0,0.0,0.0,0.0,0.0,0.0,0.0,0.0,0.0,0.0,0.0,0.0,0.0,0.0,0.0,0.0,0.0,0.0,0.0,0.0,0.0,0.0,0.0,0.0,0.0,0.0,0.0,0.0,0.0,0.0,0.0,0.0,0.0,0.0,0.0,0.0,0.0,0.0,0.0,0.0,0.0,0.0,0.0,0.0,0.0,0.0,0.0,0.0,0.0,0.0,0.0,0.0,0.0,0.0,0.0,0.0,0.0,0.0,0.0,0.0,0.0,0.0,0.0,0.0,0.0,0.0,0.0,0.0,0.0,0.0,0.0,0.0,0.0,0.0,0.0,0.0,0.0,0.0,0.0,0.0,0.0,0.0,0.0,0.0,0.0,0.0,0.0,0.0,0.0,0.0,0.0,0.0,0.0,0.0,0.0,0.0,0.0,0.0,0.0,0.0,0.0,0.0,0.0,0.0,0.0,0.0,0.0,0.0,0.0,0.0,0.0,0.0,0.0,0.0,0.0,0.0,0.0,0.0,0.0,0.0,0.0,0.0,0.0,0.0,0.0,0.0,0.0,0.0,0.0,0.0,0.0,0.0,0.0,0.0,0.0,0.0,0.0,0.0,0.0,0.0,0.0,0.0,0.0,0.0,0.0,0.0,0.0,0.0,0.0,0.0,0.0,0.0,0.0,0.0,0.0,0.0,0.0,0.0,0.0,0.0,0.0,0.0,0.0,0.0,0.0,0.0,0.0,0.0,0.0,0.0,0.0,0.0,0.0,0.0,0.0,0.0,0.0,0.0,0.0,0.0,0.0,0.0,0.0,0.0,0.0,0.0,0.0,0.0,0.0,0.0,0.0,0.0,0.0,0.0,0.0,0.0,0.0,0.0,0.0,0.0,0.0,0.0,0.0,0.0,0.0,0.0,0.0,0.0,0.0,0.0,0.0,0.0,0.0,0.0,0.0,0.0,0.0,0.0,0.0,0.0,0.0,0.0,0.0,0.0,0.0,0.0,0.0,0.0,0.0,0.0,0.0,0.0,0.0,0.0,0.0,0.0,0.0,0.0,0.0,0.0,0.0,0.0,0.0,0.0,0.0,0.0,0.0,0.0,0.0,0.0,0.0,0.0,0.0,0.0,0.0,0.0,0.0,0.0,0.0,0.0,0.0,0.0,0.0,0.0,0.0,0.0,0.0,0.0,0.0,0.0,0.0,0.0,0.0,0.0,0.0,0.0,0.0,0.0,0.0,0.0,0.0,0.0,0.0,0.0,0.0,0.0,0.0,0.0,0.0,0.0,0.0,0.0,0.0,0.0,0.0,0.0,0.0,0.0,0.0,0.0,0.0,0.0,0.0,0.0,0.0,0.0,0.0,0.0,0.0,0.0,0.0,0.0,0.0,0.0,0.0,0.0,0.0,0.0,0.0,0.0,0.0,0.0,0.0,0.0,0.0,0.0,0.0,0.0,0.0,0.0,0.0,0.0,0.0,0.0,0.0,0.0,0.0,0.0,0.0,0.0,0.0,0.0,0.0,0.0,0.0,0.0,0.0,0.0,0.0,0.0,0.0,0.0,0.0,0.0,0.0,0.0,0.0,0.0,0.0,0.0,0.0,0.0,0.0,0.0,0.0,0.0,0.0,0.0,0.0,0.0,0.0,0.0,0.0,0.0,0.0,0.0,0.0,0.0,0.0,0.0,0.0,0.0,0.0,0.0,0.0,0.0,0.0,0.0,0.0,0.0,0.0,0.0,0.0,0.0,0.0,0.0,0.0,0.0,0.0,0.0,0.0,0.0,0.0,0.0,0.0,0.0,0.0,0.0,0.0,0.0,0.0,0.0,0.0,0.0,0.0,0.0,0.0,0.0,0.0,0.0,0.0,0.0,0.0,0.0,0.0,0.0,0.0,0.0,0.0,0.0,0.0,0.0,0.0,0.0,0.0,0.0,0.0,0.0,0.0,0.0,0.0,0.0,0.0,0.0,0.0,0.0,0.0,0.0,0.0,0.0,0.0,0.0,0.0,0.0,0.0,0.0,0.0,0.0,0.0,0.0,0.0,0.0,0.0,0.0,0.0,0.0,0.0,0.0,0.0,0.0,0.0,0.0,0.0,0.0,0.0,0.0,0.0,0.0,0.0,0.0,0.0,0.0,0.0,0.0,0.0,0.0,0.0,0.0,0.0,0.0,0.0,0.0,0.0,0.0,0.0,0.0,0.0,0.0,0.0,0.0,0.0,0.0,0.0,0.0,0.0,0.0,0.0,0.0,0.0,0.0,0.0,0.0,0.0,0.0,0.0,0.0,0.0,0.0,0.0,0.0,0.0,0.0,0.0,0.0,0.0,0.0,0.0,0.0,0.0,0.0,0.0,0.0,0.0,0.0,0.0,0.0,0.0,0.0,0.0,0.0,0.0,0.0,0.0,0.0,0.0,0.0,0.0,0.0,0.0,0.0,0.0,0.0,0.0,0.0,0.0,0.0,0.0,0.0,0.0,0.0,0.0,0.0,0.0,0.0,0.0,0.0,0.0,0.0,0.0,0.0,0.0,0.0,0.0,0.0,0.0,0.0,0.0,0.0,0.0,0.0,0.0,0.0,0.0,0.0,0.0,0.0,0.0,0.0,0.0,0.0,0.0,0.0,0.0,0.0,0.0,0.0,0.0,0.0,0.0,0.0,0.0,0.0,0.0,0.0,0.0,0.0,0.0,0.0,0.0,0.0,0.0,0.0,0.0,0.0,0.0,0.0,0.0,0.0,0.0,0.0,0.0,0.0,0.0,0.0,0.0,0.0,0.0,0.0,0.0,0.0,0.0,0.0,0.0,0.0,0.0,0.0,0.0,0.0,0.0,0.0,0.0,0.0,0.0,0.0,0.0,0.0,0.0,0.0,0.0,0.0,0.0,0.0,0.0,0.0,0.0,0.0,0.0,0.0,0.0,0.0,0.0,0.0,0.0,0.0,0.0,0.0,0.0,0.0,0.0,0.0,0.0,0.0,0.0,0.0,0.0,0.0,0.0,0.0,0.0,0.0,0.0,0.0,0.0,0.0,0.0,0.0,0.0,0.0,0.0,0.0,0.0,0.0,0.0,0.0,0.0,0.0,0.0,0.0,0.0,0.0,0.0,0.0,0.0,0.0,0.0,0.0,0.0,0.0,0.0,0.0,0.0,0.0,0.0,0.0,0.0,0.0,0.0,0.0,0.0,0.0,0.0,0.0,0.0,0.0,0.0,0.0,0.0,0.0,0.0,0.0,0.0,0.0,0.0,0.0,0.0,0.0,0.0,0.0,0.0,0.0,0.0,0.0,0.0,0.0,0.0,0.0,0.0,0.0,0.0,0.0,0.0,0.0,0.0,0.0,0.0,0.0,0.0,0.0,0.0,0.0,0.0,0.0,0.0,0.0,0.0,0.0,0.0,0.0,0.0,0.0,0.0,0.0,0.0,0.0,0.0,0.0,0.0,0.0,0.0,0.0,0.0,0.0,0.0,0.0,0.0,0.0,0.0,0.0,0.0,0.0,0.0,0.0,0.0,0.0,0.0,0.0,0.0,0.0,0.0,0.0,0.0,0.0,0.0,0.0,0.0,0.0,0.0,0.0,0.0,0.0,0.0,0.0,0.0,0.0,0.0,0.0,0.0,0.0,0.0,0.0,0.0,0.0,0.0,0.0,0.0,0.0,0.0,0.0,0.0,0.0,0.0,0.0,0.0,0.0,0.0,0.0,0.0,0.0,0.0,0.0,0.0,0.0,0.0,0.0,0.0,0.0,0.0,0.0,0.0,0.0,0.0,0.0,0.0,0.0,0.0,0.0,0.0,0.0,0.0,0.0,0.0,0.0,0.0,0.0,0.0,0.0,0.0,0.0,0.0,0.0,0.0,0.0,0.0,0.0,0.0,0.0,0.0,0.0,0.0,0.0,0.0,0.0,0.0,0.0,0.0,0.0,0.0,0.0,0.0,0.0,0.0,0.0,0.0,0.0,0.0,0.0,0.0,0.0,0.0,0.0,0.0,0.0,0.0,0.0,0.0,0.0,0.0,0.0,0.0,0.0,0.0,0.0,0.0,0.0,0.0,0.0,0.0,0.0,0.0,0.0,0.0,0.0,0.0,0.0,0.0,0.0,0.0,0.0,0.0,0.0,0.0,0.0,0.0,0.0,0.0,0.0,0.0,0.0,0.0,0.0,0.0,0.0,0.0,0.0,0.0,0.0,0.0,0.0,0.0,0.0,0.0,0.0,0.0,0.0,0.0,0.0,0.0,0.0,0.0,0.0,0.0,0.0,0.0,0.0,0.0,0.0,0.0,0.0,0.0,0.0,0.0,0.0,0.0,0.0,0.0,0.0,0.0,0.0,0.0,0.0,0.0,0.0,0.0,0.0,0.0,0.0,0.0,0.0,0.0,0.0,0.0,0.0,0.0,0.0,0.0,0.0,0.0,0.0,0.0,0.0,0.0,0.0,0.0,0.0,0.0,0.0,0.0,0.0,0.0,0.0,0.0,0.0,0.0,0.0,0.0,0.0,0.0,0.0,0.0,0.0,0.0,0.0,0.0,0.0,0.0,0.0,0.0,0.0,0.0,0.0,0.0,0.0,0.0,0.0,0.0,0.0,0.0,0.0,0.0,0.0,0.0,0.0,0.0,0.0,0.0,0.0,0.0,0.0,0.0,0.0,0.0,0.0,0.0,0.0,0.0,0.0,0.0,0.0,0.0,0.0,0.0,0.0,0.0,0.0,0.0,0.0,0.0,0.0,0.0,0.0,0.0,0.0,0.0,0.0,0.0,0.0,0.0,0.0,0.0,0.0,0.0,0.0,0.0,0.0,0.0,0.0,0.0,0.0,0.0,0.0,0.0,0.0,0.0,0.0,0.0,0.0,0.0,0.0,0.0,0.0,0.0,0.0,0.0,0.0,0.0,0.0,0.0,0.0,0.0,0.0,0.0,0.0,0.0,0.0,0.0,0.0,0.0,0.0,0.0,0.0,0.0,0.0,0.0,0.0,0.0,0.0,0.0,0.0,0.0,0.0,0.0,0.0,0.0,0.0,0.0,0.0,0.0,0.0,0.0,0.0,0.0,0.0,0.0,0.0,0.0,0.0,0.0,0.0,0.0,0.0,0.0,0.0,0.0,0.0,0.0,0.0,0.0,0.0,0.0,0.0,0.0,0.0,0.0,0.0,0.0,0.0,0.0,0.0,0.0,0.0,0.0,0.0,0.0,0.0,0.0,0.0,0.0,0.0,0.0,0.0,0.0,0.0,4.3191,4.1695,0.0,0.0,0.0,0.0,0.0,0.0,0.0,0.0,0.0,0.0,0.0,0.0,0.0,0.0,0.0,0.0,0.0,0.0,0.0,0.0,0.0,0.0,0.0,1.9993,2.026,2.0471,2.0676,0.0,0.0,0.0,0.0,0.0,0.0,0.0,0.0,0.0,2.2658,2.3346,2.4099,2.5788,2.8249,2.6726,2.5614,2.4882,0.0,0.0,0.0,0.0,0.0,0.0,0.0,0.0,0.0,0.0,0.0,0.0,0.0,0.0,0.0,0.0,0.0,0.0,0.0,0.0,0.0,0.0,0.0,0.0,0.0,0.0,0.0,0.0,0.0,0.0,0.0,0.0,0.0,0.0,0.0,0.0,0.0,0.0,0.0,0.0,0.0,0.0,0.0,0.0,0.0,0.0,0.0,0.0,0.0,0.0,0.0,0.0,0.0,0.0,0.0,0.0,0.0,0.0,0.0,0.0,0.0,0.0,0.0,0.0,0.0,0.0,0.0,0.0,0.0,0.0,4.4227,4.3608,0.0,0.0,0.0,0.0,0.0,0.0,0.0,0.0,0.0,0.0,0.0,0.0,0.0,0.0,0.0,0.0,0.0,0.0,0.0,0.0,0.0,1.9733,1.9848,2.0373,2.0753,2.0872,2.1237,2.1463,2.1441,2.1585,0.0,0.0,0.0,0.0,2.2486,2.2489,2.3287,2.4874,2.6279,2.8239,3.0769,3.0769,3.018,2.9071,2.6712,0.0,0.0,0.0,0.0,0.0,0.0,0.0,0.0,0.0,0.0,0.0,0.0,0.0,0.0,0.0,0.0,0.0,0.0,0.0,0.0,0.0,0.0,0.0,0.0,0.0,0.0,0.0,0.0,0.0,0.0,0.0,0.0,0.0,0.0,0.0,0.0,0.0,0.0,0.0,0.0,0.0,0.0,0.0,0.0,0.0,0.0,0.0,0.0,0.0,0.0,0.0,0.0,0.0,0.0,0.0,0.0,0.0,0.0,0.0,0.0,0.0,0.0,0.0,4.4424,4.4497,4.435,4.435,4.5402,4.7191,4.5186,4.5847,4.8081,4.5264,0.0,0.0,0.0,0.0,0.0,0.0,0.0,0.0,0.0,0.0,0.0,0.0,0.0,0.0,0.0,0.0,0.0,0.0,0.0,1.9908,2.0488,2.0638,2.0932,2.152,2.1978,2.2159,2.1922,2.2001,0.0,0.0,0.0,2.2178,2.3237,2.3241,2.4277,2.64,3.0371,3.2806,3.3827,3.3827,3.4103,3.4463,3.1603,3.0316,3.018,0.0,0.0,0.0,0.0,0.0,0.0,0.0,0.0,0.0,0.0,0.0,0.0,0.0,0.0,0.0,0.0,0.0,0.0,0.0,0.0,0.0,0.0,0.0,0.0,0.0,0.0,0.0,0.0,0.0,0.0,0.0,0.0,0.0,0.0,0.0,0.0,0.0,0.0,0.0,0.0,0.0,3.9432,3.9016,0.0,0.0,0.0,0.0,0.0,0.0,0.0,0.0,0.0,0.0,0.0,0.0,0.0,4.2383,4.4047,4.5183,4.6046,4.664,4.809,4.8389,4.7677,4.7677,4.7824,4.8113,4.7824,0.0,4.8223,4.7081,0.0,0.0,0.0,0.0,0.0,0.0,0.0,0.0,0.0,0.0,0.0,0.0,0.0,0.0,0.0,0.0,0.0,0.0,0.0,0.0,0.0,2.2004,2.302,2.3294,2.4222,2.4402,2.3523,2.3376,0.0,0.0,2.2767,2.3181,2.3989,2.4834,2.7103,3.0861,3.3675,3.6008,3.7888,3.7888,3.7897,3.7896,3.6606,3.4463,3.1737,3.0763,0.0,0.0,0.0,0.0,0.0,0.0,0.0,0.0,0.0,0.0,0.0,0.0,0.0,0.0,0.0,0.0,0.0,0.0,0.0,0.0,0.0,0.0,0.0,0.0,0.0,0.0,0.0,0.0,0.0,0.0,0.0,0.0,0.0,0.0,0.0,0.0,0.0,0.0,0.0,3.9917,4.0694,4.0838,4.1102,4.1222,0.0,0.0,0.0,0.0,0.0,0.0,0.0,0.0,0.0,4.4706,4.3663,4.4223,4.6492,4.6878,4.7544,4.8531,4.9706,5.0068,4.9696,4.9696,4.9696,4.9696,4.9696,4.9696,4.9586,4.7815,4.6677,4.6016,0.0,0.0,0.0,0.0,4.4342,4.3823,0.0,0.0,0.0,0.0,0.0,0.0,0.0,0.0,0.0,0.0,0.0,0.0,2.165,2.3892,2.5447,2.5627,2.679,2.6838,2.5157,2.492,2.4368,2.3294,2.331,2.3864,2.5037,2.7238,3.0425,3.4652,3.6164,3.8069,4.0274,4.0274,4.0087,3.9755,3.9755,3.7491,3.3667,3.3093,3.1554,2.9372,0.0,0.0,0.0,0.0,0.0,0.0,0.0,0.0,0.0,0.0,0.0,0.0,0.0,0.0,0.0,0.0,0.0,0.0,0.0,0.0,0.0,0.0,0.0,0.0,0.0,0.0,0.0,0.0,0.0,0.0,0.0,0.0,0.0,0.0,0.0,0.0,0.0,4.1213,4.2158,4.2395,4.2573,4.2455,0.0,0.0,0.0,0.0,0.0,0.0,4.4291,4.4143,4.4712,4.6144,4.5205,4.5752,4.8078,4.7835,4.8265,4.9388,5.0149,5.0509,5.0514,5.0694,5.0797,5.0797,5.0797,5.0797,5.065,4.881,4.7929,4.7672,4.7058,4.6319,4.5727,4.6549,4.6471,4.6136,0.0,0.0,0.0,0.0,0.0,0.0,0.0,0.0,0.0,0.0,0.0,2.3052,2.427,2.6219,2.7698,2.8338,2.9451,2.9002,2.6385,2.6271,2.5497,2.3764,2.283,2.3701,2.6539,3.0724,3.3945,3.6082,3.7599,3.8684,3.9463,3.9463,3.9503,3.9603,3.9603,3.8827,3.7395,3.5201,3.4239,3.3782,2.9465,0.0,0.0,0.0,0.0,0.0,0.0,0.0,0.0,0.0,0.0,0.0,0.0,0.0,0.0,0.0,0.0,0.0,0.0,0.0,0.0,0.0,0.0,0.0,0.0,0.0,0.0,0.0,0.0,0.0,0.0,0.0,0.0,0.0,0.0,0.0,0.0,0.0,0.0,4.2835,4.3312,0.0,0.0,0.0,0.0,4.3873,4.3979,4.4338,4.5086,4.4591,4.4678,4.5504,4.5589,4.5958,4.6688,4.7357,4.8044,4.8751,4.9415,4.9772,4.9795,5.0477,5.0797,5.0797,5.0797,5.0797,5.0797,5.0655,5.0141,4.9459,4.9344,4.882,4.8228,4.9087,4.9385,4.9459,0.0,0.0,0.0,1.8342,1.9099,1.9703,1.9703,1.9703,1.9793,2.0028,2.1944,2.361,2.4509,2.7899,3.0216,3.0441,3.2027,3.2045,2.98,2.85,2.7494,2.6755,2.516,2.6381,3.0835,3.3703,3.6581,3.9533,4.0057,4.0876,4.1894,4.1504,4.0902,4.0108,3.9645,3.853,3.6975,3.7176,3.614,3.4317,3.2733,3.0684,0.0,0.0,0.0,0.0,0.0,0.0,0.0,0.0,0.0,0.0,0.0,0.0,0.0,0.0,0.0,0.0,0.0,0.0,0.0,0.0,0.0,0.0,0.0,0.0,0.0,0.0,0.0,0.0,0.0,0.0,0.0,0.0,0.0,0.0,0.0,0.0,0.0,4.3739,4.4218,0.0,4.3978,4.4186,4.429,4.4201,4.4671,4.4927,4.4821,4.5043,4.5315,4.5616,4.6152,4.6699,4.7311,4.8065,4.8813,4.9478,5.0665,5.1229,5.1282,5.2001,5.2096,5.1632,5.1632,5.1375,5.1,5.1,5.0747,5.0367,5.0362,5.0178,4.9953,5.0251,5.0697,5.1106,0.0,0.0,0.0,1.8092,1.8987,1.9703,1.9703,1.9878,2.0175,2.0573,2.302,2.5204,2.6402,3.0174,3.2684,3.2833,3.4262,3.4031,3.1338,2.9977,2.8783,2.7774,2.7716,2.9787,3.4273,3.6249,3.8709,4.1742,4.1742,4.2252,4.33,4.269,4.1802,4.0705,4.0029,3.8781,3.7198,3.8214,3.729,3.5093,3.4372,3.2789,3.0698,0.0,0.0,0.0,0.0,0.0,0.0,0.0,0.0,0.0,0.0,0.0,0.0,0.0,0.0,0.0,0.0,0.0,0.0,0.0,0.0,0.0,0.0,0.0,0.0,0.0,0.0,0.0,0.0,0.0,0.0,0.0,0.0,0.0,0.0,4.4742,4.5511,4.4146,4.4777,4.4975,4.419,4.4624,4.4931,4.4777,4.5285,4.5508,4.534,4.5812,4.6075,4.6075,4.6786,4.7495,4.8136,4.8908,4.9641,5.0363,5.1577,5.217,5.219,5.2913,5.2972,5.2499,5.2499,5.2254,5.1838,5.1838,5.1747,5.1589,5.1115,5.119,5.1621,5.1652,5.1961,5.238,0.0,0.0,1.8102,1.8112,1.8996,1.9694,1.9685,2.023,2.1079,2.2209,2.5055,2.7819,3.0014,3.302,3.5024,3.544,3.6106,3.4807,3.0844,3.0515,2.93,2.6646,3.0295,3.3688,3.6518,3.8439,4.0377,4.244,4.244,4.2741,4.33,4.2651,4.2012,4.1373,4.0675,3.9658,3.8401,3.8401,3.7706,3.6445,3.4291,3.3807,3.41,0.0,0.0,0.0,0.0,0.0,0.0,0.0,0.0,0.0,0.0,0.0,0.0,0.0,0.0,0.0,0.0,0.0,0.0,0.0,0.0,0.0,0.0,0.0,0.0,0.0,0.0,0.0,0.0,0.0,0.0,0.0,0.0,0.0,4.4074,4.4694,4.4911,4.4124,4.4893,4.5152,4.4438,4.4531,4.4939,4.5669,4.573,4.6041,4.6759,4.6827,4.6827,4.6861,4.759,4.8326,4.9044,4.977,5.0473,5.1209,5.194,5.229,5.2312,5.2973,5.3278,5.3257,5.3257,5.3244,5.3223,5.3223,5.3244,5.313,5.1759,5.2054,5.3233,5.3347,5.3326,5.3398,1.6985,1.7644,1.821,1.8621,1.9263,1.9556,1.9169,1.9609,2.039,2.1535,2.4363,2.7146,2.9481,3.2557,3.4635,3.5027,3.5662,3.5108,3.2811,3.13,3.0172,2.9408,0.0,0.0,3.8571,4.053,4.2024,4.305,4.305,4.313,4.327,4.2172,4.1592,4.1343,4.0187,3.92,3.8401,3.8401,3.7931,3.7138,3.6636,3.5599,3.4315,0.0,0.0,0.0,0.0,0.0,0.0,0.0,0.0,0.0,0.0,0.0,0.0,0.0,0.0,0.0,0.0,0.0,0.0,0.0,0.0,0.0,0.0,0.0,0.0,0.0,0.0,0.0,0.0,0.0,0.0,0.0,4.5059,4.5278,4.5006,4.5322,4.5281,4.4534,4.4667,4.496,4.5293,4.537,4.5703,4.6455,4.6481,4.659,4.6793,4.7327,4.7827,4.8376,4.912,4.9856,5.0592,5.0803,5.1006,5.1209,5.194,5.229,5.2312,5.2973,5.3015,5.2557,5.2557,5.2268,5.1771,5.1771,5.208,5.2638,5.3301,5.3801,5.4217,5.4755,5.497,5.4955,1.6906,1.7593,1.82,1.8546,1.9219,1.9594,1.9314,1.9783,2.0701,2.2235,2.4862,2.7632,3.0348,3.2927,3.4696,3.5277,3.543,3.4686,3.2781,3.1585,3.1764,3.3724,0.0,3.9011,4.0606,4.2052,4.293,4.33,4.33,4.33,4.326,4.1992,4.1403,4.1343,3.9999,3.9182,3.8811,3.8811,3.8422,3.7837,3.7894,3.6882,3.5218,3.461,3.3593,3.2444,3.2126,3.2007,3.2082,3.2546,0.0,0.0,0.0,0.0,0.0,0.0,0.0,0.0,0.0,0.0,0.0,0.0,0.0,0.0,0.0,0.0,0.0,0.0,0.0,0.0,0.0,0.0,0.0,0.0,4.609,4.6336,4.6035,4.581,4.5534,4.5101,4.5345,4.5684,4.6109,4.6143,4.6481,4.7225,4.7259,4.753,4.8146,4.8578,4.9146,4.989,5.0338,5.0905,5.1641,5.1649,5.1818,5.2156,5.2616,5.2803,5.2827,5.3199,5.3161,5.2803,5.2803,5.2568,5.2156,5.2156,5.2407,5.2837,0.0,0.0,0.0,0.0,5.5281,5.6101,1.6762,1.7538,1.823,1.835,1.9131,1.9719,1.9702,2.032,2.1552,2.3715,2.5983,2.8586,3.1749,3.3501,3.4733,3.5554,3.5003,3.3847,3.1953,3.2108,3.4149,3.8341,3.9311,4.0606,4.2461,4.302,4.33,4.33,4.33,4.33,4.326,4.1992,4.1403,4.1343,3.9999,3.9391,3.9391,3.9391,3.9071,3.852,3.8431,3.7691,3.647,3.5225,3.4702,3.456,3.3973,3.3714,3.3702,3.3846,0.0,0.0,0.0,0.0,0.0,0.0,0.0,0.0,0.0,0.0,0.0,0.0,0.0,0.0,0.0,0.0,0.0,0.0,0.0,0.0,0.0,0.0,0.0,0.0,4.7419,4.7752,4.703,4.6346,4.5933,4.5831,4.6387,4.6827,4.6928,4.6996,4.7361,4.809,4.8225,4.8834,5.0143,5.021,0.0,0.0,0.0,5.1708,5.2536,5.257,5.2976,5.3746,5.3746,5.3712,5.3611,5.3611,5.3611,5.3611,5.3611,5.3678,5.3746,5.3746,5.3746,5.3585,5.2161,5.2451,5.3687,5.3581,5.5024,5.6914,1.8417,1.8681,1.8964,1.9402,1.9658,1.9636,1.9218,1.9987,2.159,2.428,2.6198,2.8393,3.1229,3.2219,3.3008,3.3808,3.3308,3.3243,3.387,3.5878,3.7704,3.9122,4.0894,4.2232,4.31,4.324,4.33,4.33,4.33,4.33,4.326,4.1992,4.1403,4.1343,3.9999,3.9391,3.9391,3.9391,3.9331,3.9161,3.8631,3.7913,3.7203,3.691,3.6526,3.6129,3.6485,3.6291,3.604,3.7187,3.6534,3.5329,3.5946,3.589,0.0,0.0,0.0,0.0,0.0,0.0,0.0,0.0,0.0,0.0,0.0,0.0,0.0,0.0,0.0,0.0,0.0,0.0,0.0,4.7258,4.8155,4.8537,4.7785,4.7549,4.7244,4.6658,4.6725,4.7022,4.7616,4.8233,4.8883,4.9627,5.0228,5.0694,5.0964,5.1006,5.1344,5.2055,5.2097,5.2739,5.4135,5.4169,5.4532,5.5259,5.5259,0.0,5.4406,5.4406,5.4406,5.4406,5.4406,5.4735,5.5259,5.5259,5.5259,5.5202,5.43,5.4862,5.6148,5.5483,5.6333,5.7667,1.9356,1.9178,1.9094,1.9339,1.9618,1.9825,1.9837,2.0316,2.1669,2.4569,2.5905,2.7567,3.017,3.0645,3.1007,3.1592,3.2166,3.3358,3.5359,3.7614,3.964,4.1266,4.2302,4.299,4.33,4.33,4.33,4.33,4.33,4.316,4.2851,4.2211,4.1703,4.1373,4.0705,4.0397,4.0397,4.0397,4.0397,4.0337,3.9679,3.92,3.8772,3.7785,3.7225,3.6985,3.7276,3.7225,3.7113,3.8139,3.8057,3.7715,3.8891,3.9303,3.9243,0.0,0.0,0.0,0.0,0.0,0.0,0.0,0.0,0.0,0.0,0.0,0.0,0.0,0.0,4.4119,4.5505,0.0,4.7566,4.8197,4.8995,4.9154,4.8056,4.8537,4.8578,4.7488,4.8003,4.8586,4.8984,4.9653,5.0262,5.0634,5.0998,5.137,5.1716,5.2122,5.2706,5.3416,5.3814,5.4355,5.5133,5.5141,5.5336,5.5699,5.5699,5.5496,5.5141,5.5141,5.5141,5.5141,5.5141,5.5369,5.5699,5.5699,5.5699,5.5641,5.528,5.5624,5.6264,5.5849,5.6414,5.7343,2.0112,1.9785,1.9442,1.9352,1.9676,2.016,2.0765,2.0943,2.2021,2.4876,2.5714,2.6934,2.9255,2.9412,2.9456,2.9725,3.18,3.4093,3.6349,3.8585,4.0879,4.32,4.33,4.33,4.33,4.33,4.33,4.33,4.33,4.305,4.258,4.2311,4.1922,4.1403,4.1254,4.1224,4.1224,4.1334,4.1403,4.1343,4.0825,4.0576,4.0427,3.8772,3.8033,3.7815,3.7934,3.7994,3.8093,3.876,3.9338,3.9975,4.1294,4.211,4.2407,4.1418,4.1996,0.0,0.0,0.0,0.0,0.0,0.0,0.0,0.0,4.1714,4.1738,4.2587,4.354,4.4793,4.6766,4.8028,4.8901,4.9349,5.0033,5.0067,4.8732,4.9552,4.9864,4.8691,4.9586,5.0304,5.0304,5.0972,5.1404,5.1404,5.1683,5.2122,5.2706,5.3509,5.4194,5.4803,5.5403,5.5767,5.5902,5.5902,5.6003,5.6147,5.6147,5.6046,5.5902,5.5902,5.5902,5.5902,5.608,5.6147,5.6147,5.6147,5.6147,5.6147,5.6147,5.6147,5.608,5.58,5.6261,5.7005,2.1231,2.1254,2.108,2.0598,2.0569,2.0784,2.1345,2.182,2.301,2.5498,2.6288,2.7354,2.9301,2.9503,2.9404,2.9216,3.2958,3.568,3.6457,3.9544,4.1932,4.323,4.33,4.33,4.33,4.33,4.33,4.33,4.33,4.327,4.318,4.2052,4.1463,4.1373,4.0765,4.0516,4.0546,4.1164,4.1403,4.1403,4.1313,4.1283,4.1254,4.1044,4.0217,3.9242,3.9849,4.0068,4.0157,4.0834,4.074,4.0352,4.0531,4.0712,4.0897,4.0927,4.1059,4.1137,4.0894,4.1015,4.1474,4.2711,4.2291,4.2308,0.0,4.4594,4.4198,4.619,4.7387,4.8313,4.9201,5.0702,5.1615,5.1066,5.1581,5.175,5.0964,5.0964,5.1032,5.0863,5.0964,5.1066,5.1066,5.175,5.2198,5.2198,5.345,5.427,5.4338,5.5065,5.5496,5.5564,5.5665,5.6003,5.6655,5.6697,5.7002,5.7654,5.7654,5.7306,5.6697,5.6697,5.6697,5.6697,5.7383,5.7654,5.7654,5.7654,5.7654,5.7654,5.7654,5.7654,5.7485,5.6181,5.6591,5.7672,2.1382,2.1507,2.1532,2.1633,2.1382,2.1356,2.187,2.2525,2.3579,2.5375,2.6178,2.7057,2.8254,2.8045,2.7904,2.8205,3.1724,3.4683,3.6388,3.9692,4.2111,4.325,4.33,4.33,4.33,4.33,4.33,4.33,4.293,4.2581,4.2192,4.1633,4.1194,4.0825,4.0945,4.0975,4.1035,4.1712,4.1772,4.1433,4.1832,4.1742,4.1403,4.1403,4.1274,4.1035,4.0157,3.9819,0.0,4.0576,4.0636,4.0688,4.243,4.2776,4.2532,4.2241,4.259,4.3127,4.3531,4.2531,4.172,4.325,4.289,4.2488,4.376,4.3868,4.4063,4.5262,4.6608,4.7852,4.8955,5.0761,5.1949,5.1597,5.2353,5.2562,5.137,5.1581,5.2021,5.2494,5.2909,5.301,5.2596,5.3213,5.3822,5.4253,5.4862,5.5234,5.5234,5.5944,5.635,5.635,5.6765,5.7137,5.7451,5.7451,5.7586,5.7891,5.7891,5.7721,5.7451,5.7451,5.7451,5.7451,5.7755,5.7891,5.7891,5.7891,5.7891,5.7891,5.7891,5.7891,5.7823,5.7205,5.7383,5.7857,2.1852,2.1945,2.2063,2.2458,2.2189,2.2063,2.2458,2.3156,2.4066,2.5239,2.6041,2.6766,2.7509,2.7165,2.7159,2.7818,3.0696,3.3474,3.5849,3.889,4.133,4.3037,4.3117,4.3248,4.3569,4.3569,4.3479,4.33,4.2851,4.2381,4.1932,4.1543,4.1134,4.0705,4.0975,4.1224,4.1433,4.1922,4.1952,4.1712,4.2012,4.1832,4.1433,4.1622,4.1742,4.1643,4.0217,3.967,3.9727,4.0034,4.0163,4.0594,4.2913,4.3513,4.3286,4.2917,4.3064,4.3477,4.4014,4.2791,4.1783,4.3439,4.3438,4.3025,4.3239,4.3636,4.4226,4.4978,4.6265,4.7696,4.912,5.0804,5.2095,5.2359,5.3103,5.3447,5.2825,5.3205,5.3822,5.4634,5.5184,5.5387,5.5065,5.4938,5.5209,5.5944,5.6003,5.6003,5.6003,5.6689,5.7103,5.7103,5.762,5.7891,5.7891,5.7891,5.7891,5.7891,5.7891,5.7891,5.7891,5.7891,5.7891,5.7891,5.7891,5.7891,5.7891,5.7891,5.7891,5.7891,5.7891,5.7891,5.7891,5.7891,5.7891,5.7891,2.2945,2.3037,2.307,2.3063,2.307,2.307,2.3063,2.3769,2.4533,2.5287,2.6041,2.6766,2.7509,2.7585,2.7848,2.8517,3.058,3.2673,3.4638,3.681,3.9397,4.2486,4.2625,4.3138,4.4256,4.4267,4.3938,4.33,4.327,4.327,4.321,4.1983,4.1403,4.1343,4.0705,4.0795,4.1403,4.1433,4.1792,4.2321,4.1673,4.1403,4.1463,4.2131,4.1592,4.0457,4.0397,4.0367,4.0267,3.972,3.9574,3.9744,4.0505,4.1214,4.1789,4.1983,4.1178,4.0348,4.0873,4.084,4.1113,4.3019,4.3874,4.4407,4.5076,4.5226,4.5605,4.695,4.8013,4.9151,5.0492,5.1579,5.2659,5.3747,5.3945,5.4616,5.6394,5.6664,5.6934,5.7688,5.7798,5.8051,5.8786,5.6916,5.5969,5.6697,5.6765,5.6765,5.6765,5.7485,5.7857,5.7857,5.79,5.7891,5.7891,5.7891,5.7891,5.7891,5.7891,5.7891,5.7891,5.7891,5.7891,5.7891,5.7891,5.7891,5.7891,5.7891,5.7891,5.7891,5.7891,5.7891,5.7891,5.7891,5.7891,5.7891,2.3519,2.3695,2.3813,2.4156,2.4231,2.4231,2.4231,2.4684,2.5133,2.5384,2.6857,0.0,0.0,0.0,0.0,0.0,3.1052,3.277,3.5083,3.6484,3.8431,4.1089,4.1283,4.1676,4.2428,4.2086,4.1795,4.1575,4.153,4.1276,4.0829,4.0042,3.981,4.0003,3.8341,3.8141,3.903,3.9487,3.9546,3.9477,4.084,4.1124,4.0765,4.0975,4.0526,3.958,0.0,3.8098,3.8388,3.773,3.8161,3.9133,4.0262,4.0859,4.1019,4.0188,4.0273,4.0754,4.1222,4.1942,4.2876,4.4323,4.483,4.5035,4.5244,4.5992,4.677,4.7219,4.8439,4.9729,5.0647,5.1704,5.2665,5.3417,5.4626,5.5665,5.6236,5.7036,5.7789,5.8549,5.8626,5.9124,6.0409,5.8921,5.7999,5.8244,5.8244,5.8041,5.7552,5.7755,5.7891,5.7891,5.7891,5.7891,5.7891,5.7891,5.7891,5.7891,5.7891,5.7891,5.7891,5.7891,5.8161,5.8583,5.8118,5.8186,5.8583,5.8094,5.7891,5.7891,5.7891,5.7891,5.7891,5.7891,5.822,5.8626,2.4147,2.4297,2.4398,2.4741,2.4808,0.0,0.0,0.0,0.0,0.0,0.0,0.0,0.0,0.0,0.0,0.0,0.0,3.2592,3.4713,3.5652,3.7241,3.9738,3.9941,4.035,4.1096,4.0763,4.0489,4.0252,4.006,3.9921,3.9877,3.9141,3.8956,3.9112,3.75,3.7279,3.8179,3.8361,3.8427,3.8502,3.9789,3.9927,3.934,3.9589,3.914,0.0,3.6964,3.6617,3.6724,3.6345,3.6828,3.7871,3.9519,4.0305,4.054,4.0099,4.0377,4.1093,4.2318,4.303,4.3793,4.5289,4.5843,4.6082,4.6332,4.723,4.8098,4.8286,4.9323,5.0368,5.1028,5.1957,5.2813,5.3441,5.469,5.5776,5.6399,5.7171,5.8122,5.9438,5.9572,6.013,6.1574,6.0791,6.0105,5.9834,5.9317,5.8786,5.8321,5.8026,5.7891,5.7891,5.7891,5.7891,5.7891,5.7891,5.7891,5.7891,5.7891,5.7891,5.7924,5.8161,5.8693,5.9361,5.8896,5.8964,5.9327,5.8592,5.8287,5.8287,5.8287,5.8457,5.8736,5.9007,5.9404,5.9733,2.4867,2.4892,2.4892,0.0,0.0,0.0,0.0,0.0,0.0,0.0,0.0,0.0,0.0,0.0,0.0,0.0,0.0,0.0,3.3556,3.428,0.0,3.8409,3.8571,3.9112,4.0232,4.023,3.9893,3.9249,3.8916,3.9245,4.0176,3.9177,3.8698,3.8688,3.7939,3.8007,3.8611,3.7968,3.8281,3.9179,3.8584,3.7982,3.7456,3.8071,3.7533,3.6425,3.6404,3.5986,3.5447,3.5636,3.5849,3.636,3.8463,3.9636,4.0439,4.1552,4.1397,4.1432,4.383,4.3998,4.3957,4.5912,4.6909,4.7578,4.8218,4.8858,4.9498,5.0108,5.0567,5.1073,5.1746,5.2405,5.3108,5.3891,5.4297,5.513,5.6925,5.7258,5.8074,6.0261,6.0501,6.0974,6.2179,6.2312,6.2027,6.1356,5.9902,5.9047,5.9013,5.8287,5.7891,5.7891,5.7891,5.7891,5.7891,5.7934,5.7992,5.8026,5.806,5.806,5.8094,5.8829,5.9564,6.0283,6.0216,6.0216,6.0148,5.9428,5.9081,5.9056,5.9056,5.9496,6.025,6.1028,6.1366,6.1187,0.0,0.0,0.0,0.0,0.0,0.0,0.0,0.0,0.0,0.0,0.0,0.0,0.0,0.0,0.0,0.0,0.0,0.0,3.2787,3.3541,0.0,0.0,0.0,0.0,0.0,0.0,3.7552,3.7402,3.7785,3.7871,3.7633,3.7419,3.7463,3.7683,3.5946,3.5723,3.6626,3.6453,3.6532,3.6839,3.7409,3.7545,3.7366,3.7084,3.6485,3.5699,3.5176,3.4576,3.4167,3.5324,3.7067,3.903,4.054,4.1475,4.198,4.1758,4.257,4.3657,4.4213,4.5309,4.652,4.7549,4.8278,4.8828,4.9018,4.9523,5.011,5.0544,5.1329,5.2067,5.253,5.2906,5.3407,5.4116,5.4999,5.592,5.6907,5.7814,5.8613,5.9194,5.9258,5.9729,6.0943,6.1047,6.1119,6.1308,6.0385,5.9564,5.9013,5.8287,5.7891,5.7891,5.7891,5.7891,5.7891,5.8457,5.8998,5.9548,6.0148,6.0419,6.0452,6.1206,6.1941,6.2608,6.2042,6.1815,6.1748,6.1028,6.0341,5.98,5.98,6.0317,6.1028,6.1221,6.1999,6.2868,0.0,0.0,0.0,0.0,0.0,0.0,0.0,0.0,0.0,0.0,0.0,0.0,0.0,0.0,0.0,0.0,0.0,0.0,0.0,3.3796,3.4476,3.5461,0.0,0.0,0.0,0.0,3.5737,3.5737,3.5652,3.5783,3.6161,3.5732,3.5644,3.58,3.4646,3.4449,3.5028,3.5344,3.5563,0.0,0.0,3.6836,3.6537,3.6178,3.5818,3.5451,3.507,3.5288,3.5869,3.6653,3.8576,4.0807,4.1829,4.2397,4.2768,4.3184,4.428,4.5464,4.5922,4.71,4.8278,4.8637,4.9235,4.9749,4.9913,5.0446,5.102,5.1392,5.2039,5.261,5.2847,5.3358,5.3834,5.4079,5.4846,5.5546,5.5948,5.6585,5.7253,5.7941,5.8016,5.8612,6.0119,6.0748,6.1311,6.1858,6.0781,5.9776,5.9047,5.8616,5.8389,5.8389,5.8693,5.8872,5.8872,5.9268,5.9699,6.0114,6.0926,6.1298,6.1332,6.2415,6.3115,6.3477,6.3047,6.2685,6.2357,6.1941,6.1501,6.1129,6.1467,6.2067,6.2787,6.3091,6.3768,6.4478,0.0,0.0,0.0,0.0,0.0,0.0,0.0,0.0,0.0,3.175,3.2206,3.2579,0.0,0.0,0.0,0.0,0.0,0.0,0.0,0.0,3.4757,3.534,0.0,0.0,0.0,0.0,0.0,0.0,3.3425,3.3734,3.5196,3.428,3.385,3.385,3.385,3.385,3.3887,3.4464,3.4957,3.5429,3.6006,3.5946,3.5511,0.0,0.0,3.5511,3.5511,3.6766,3.8449,3.849,4.0027,4.2039,4.2619,4.2965,4.3517,4.5224,4.6209,4.6997,4.8126,4.8917,4.9426,4.9426,4.9871,5.0426,5.0831,5.1259,5.1713,5.2103,5.2346,5.2553,5.2748,5.3455,5.4021,5.3945,5.4379,5.4723,5.4745,5.4764,5.5272,5.6616,5.6844,5.7583,5.939,6.0644,6.1666,6.2508,6.1046,5.9953,5.9487,5.9361,5.9259,5.9158,5.9766,6.0148,6.025,6.025,6.0317,6.0419,6.1231,6.1603,6.1627,6.3115,6.3758,6.3646,6.3849,6.3419,6.256,6.2763,6.2729,6.2627,6.3352,6.4096,6.485,6.5571,6.5909,6.5977,0.0,0.0,0.0,0.0,0.0,0.0,0.0,0.0,0.0,0.0,3.2759,3.2908,0.0,0.0,0.0,0.0,0.0,0.0,0.0,0.0,0.0,3.4675,0.0,0.0,0.0,0.0,0.0,0.0,0.0,3.3539,3.3844,3.3651,3.3573,3.3573,3.3573,3.3573,3.3573,3.3684,3.4083,3.4667,3.4795,3.5108,3.5511,0.0,0.0,0.0,3.5511,3.6418,3.7691,3.8312,4.0584,4.3199,4.3265,4.4377,4.5847,4.6736,4.7445,4.8145,4.8932,4.9595,5.0039,5.0039,5.0548,5.1118,5.1537,5.1042,5.0678,5.1421,5.091,5.0675,5.1847,5.2401,5.3005,5.4055,5.4488,5.4812,5.5076,5.509,5.5192,5.5471,5.5995,5.6856,5.8176,5.8965,6.0066,6.1655,6.089,6.0789,6.1757,6.1231,6.0612,5.9945,6.0047,6.0419,6.1095,6.1095,6.14,6.2018,6.2743,6.3115,6.3183,6.4647,6.4996,6.4468,6.5686,6.5111,6.3386,6.4613,6.441,6.3386,6.414,6.485,6.5605,6.6339,6.7015,6.7533,0.0,0.0,0.0,0.0,0.0,0.0,0.0,3.2237,3.3275,3.3941,3.3732,3.3791,3.4436,3.4817,3.5019,0.0,0.0,0.0,0.0,0.0,0.0,0.0,0.0,0.0,0.0,0.0,0.0,0.0,0.0,0.0,3.2968,0.0,3.2452,3.2452,3.2452,3.2452,3.2482,3.2819,3.3372,3.4009,3.4376,3.4907,0.0,0.0,0.0,0.0,3.5511,3.6528,3.7918,3.7976,4.0626,4.3936,4.3931,4.5247,4.6939,4.7608,4.8536,4.9363,4.9662,5.0499,5.1247,5.1247,5.1726,5.2153,5.1865,5.1403,5.101,5.0886,5.0478,5.0478,5.1672,5.2129,5.2699,5.3897,5.4436,5.4768,5.4927,5.5388,5.573,5.573,5.6269,5.7037,5.7968,5.9557,6.0852,6.1692,6.2626,6.2786,6.1888,6.1501,6.1298,6.1308,6.1308,6.1477,6.1873,6.2245,6.2608,6.299,6.4106,6.4444,6.413,6.5595,6.5449,6.4096,6.5595,6.5425,6.4197,6.5662,6.6068,6.5865,6.6643,6.7151,6.7523,6.7861,6.8222,6.847,0.0,0.0,0.0,0.0,0.0,0.0,0.0,3.2875,3.3961,3.5003,3.4997,3.4915,3.4915,3.5258,3.5511,0.0,0.0,0.0,0.0,0.0,0.0,0.0,0.0,0.0,0.0,0.0,0.0,0.0,0.0,0.0,0.0,0.0,0.0,0.0,3.1503,3.1503,3.1533,3.2213,3.2878,0.0,0.0,3.4907,0.0,0.0,0.0,0.0,0.0,3.6896,3.8135,3.7822,4.0373,4.3716,4.3896,4.5306,4.707,4.8008,4.9015,4.992,5.0488,5.1487,5.2396,5.2396,5.2797,5.2947,5.2018,5.1634,5.1169,5.0256,4.9882,5.0107,5.134,5.1736,5.2321,5.3675,5.4377,5.4812,5.4889,5.5743,5.6336,5.6398,5.6958,5.75,5.8068,6.0095,6.1413,6.1507,6.3592,6.3975,6.1878,6.1637,6.1806,6.2391,6.2695,6.2864,6.2864,6.3758,6.4221,6.4231,6.5392,6.5628,6.5121,6.643,6.599,6.4299,6.5764,6.5909,6.5178,6.6667,6.7512,6.7996,6.8808,6.9113,6.9113,6.9282,6.935,6.9248,0.0,0.0,0.0,0.0,0.0,0.0,0.0,3.4045,3.4718,3.6845,3.6665,3.6314,3.6314,3.5818,3.5511,0.0,0.0,0.0,0.0,0.0,0.0,0.0,0.0,0.0,0.0,0.0,0.0,0.0,0.0,0.0,0.0,0.0,0.0,0.0,0.0,3.1503,3.1533,3.2213,0.0,0.0,0.0,0.0,0.0,0.0,0.0,0.0,0.0,3.7336,3.7581,3.8187,3.9857,4.176,4.2386,4.3908,4.5853,4.7739,4.8368,4.8996,5.1379,5.2558,5.3097,5.3097,5.3169,5.2947,5.2018,5.1055,5.0095,4.913,4.821,4.8188,5.0165,5.0541,5.1305,5.3521,5.4517,5.5121,5.555,5.626,5.6819,5.6998,5.759,5.8025,5.8085,5.8878,5.9609,6.0228,6.1519,6.2579,6.3275,6.2651,6.2323,6.2391,6.37,6.441,6.441,6.5787,6.6497,6.6497,6.6633,6.6667,6.6633,6.7421,6.7309,6.6599,6.8132,6.7952,6.6734,6.8267,6.8504,6.7996,6.8808,6.9113,6.918,6.9868,7.0105,7.0105,0.0,0.0,0.0,0.0,0.0,0.0,3.2523,3.3458,3.4478,3.5783,3.6276,3.6493,3.6493,3.6246,3.5938,3.5541,0.0,0.0,0.0,0.0,0.0,0.0,0.0,0.0,0.0,0.0,3.457,3.3492,3.3889,0.0,0.0,0.0,0.0,0.0,0.0,3.1877,3.1533,0.0,0.0,0.0,0.0,0.0,0.0,0.0,0.0,0.0,0.0,0.0,3.8112,3.8804,4.0351,4.2054,4.2326,4.3168,4.4666,4.747,4.8835,4.9841,5.1708,5.2995,5.3803,5.3803,5.3516,5.2888,5.1708,5.0502,4.9329,4.815,4.7591,4.7732,4.9155,4.996,5.1044,5.3035,5.4278,5.5231,5.5856,5.7134,5.7894,5.7575,5.8574,5.9308,5.9308,6.0226,6.1249,6.226,6.2377,6.2945,6.4197,6.3995,6.4203,6.5022,6.5618,6.5922,6.5922,6.6937,6.7455,6.7489,6.7952,6.7929,6.7478,6.776,6.7489,6.6869,6.7929,6.8301,6.8256,6.9316,6.9823,6.9981,7.0286,7.0421,7.0455,7.077,7.0567,7.0274,0.0,0.0,0.0,0.0,0.0,3.1144,3.2163,3.3201,3.4303,3.556,3.6158,3.6493,3.6493,3.6306,3.5998,3.5541,3.5511,0.0,0.0,0.0,0.0,0.0,0.0,0.0,0.0,0.0,3.504,3.4083,3.457,3.4458,0.0,0.0,0.0,0.0,0.0,0.0,0.0,0.0,0.0,0.0,0.0,0.0,0.0,0.0,0.0,0.0,0.0,0.0,0.0,0.0,0.0,4.241,4.241,4.28,4.3868,4.683,4.8615,5.0009,5.1726,5.3324,5.4551,5.473,5.3994,5.2887,5.1756,5.0373,4.8917,4.7578,4.7309,4.7624,4.8615,4.9684,5.0902,5.2433,5.4084,5.5393,5.5998,5.7726,5.8801,5.8374,5.9483,6.031,6.0335,6.1012,6.1879,6.2929,6.2517,6.3106,6.5117,6.5395,6.5905,6.6783,6.7242,6.7478,6.7478,6.8436,6.891,6.8899,6.9474,6.944,6.891,6.891,6.8628,6.8155,6.8662,6.9248,6.9778,7.0297,7.0838,7.13,7.13,7.13,7.13,7.13,7.1097,7.0917,0.0,0.0,0.0,0.0,0.0,0.0,3.3559,3.3771,3.4525,3.7036,3.6857,3.6493,3.6493,3.5908,3.5511,3.5511,3.5511,0.0,0.0,0.0,0.0,0.0,0.0,0.0,0.0,0.0,3.5481,3.5481,3.5481,3.5138,3.4496,3.4496,3.4128,3.3492,0.0,0.0,0.0,0.0,0.0,0.0,0.0,0.0,3.6635,0.0,0.0,0.0,0.0,0.0,0.0,0.0,0.0,0.0,0.0,4.28,4.3688,4.5732,4.7268,4.8876,5.1498,5.3653,5.5341,5.6013,5.4665,5.3007,5.2336,5.0672,4.8917,4.7578,4.7309,4.7624,4.8615,4.9684,5.0722,5.1749,5.4046,5.577,5.5961,5.7912,5.937,5.9553,6.0247,6.076,6.087,6.0405,6.0397,6.1072,6.1132,6.2605,6.5993,6.6812,6.7069,6.6819,6.829,6.9079,6.9079,7.0522,7.1267,7.1267,7.1267,7.1267,7.1267,7.1267,7.1267,7.1267,7.1267,7.1267,7.13,7.13,7.1289,7.13,7.13,7.13,7.13,7.13,7.174,7.2394,0.0,0.0,0.0,0.0,0.0,0.0,0.0,3.3097,3.4323,3.5586,3.6204,3.6493,3.6493,3.6306,3.5998,3.5541,3.5511,0.0,0.0,0.0,0.0,0.0,0.0,0.0,0.0,0.0,3.5511,3.5511,3.5511,3.54,3.519,3.519,3.4847,3.4188,3.4188,0.0,0.0,0.0,0.0,0.0,0.0,3.7375,3.7892,0.0,0.0,0.0,0.0,0.0,0.0,0.0,0.0,0.0,0.0,0.0,0.0,4.5144,4.6561,4.8087,5.0249,5.1624,5.2504,5.2713,5.166,5.0474,5.0265,4.9026,4.7818,4.7399,4.7309,4.7417,4.7711,4.9216,5.1013,5.2818,5.4314,5.606,5.8471,5.9295,5.9787,6.0227,6.1092,6.1676,6.1723,6.197,6.2225,6.2465,6.2465,6.3327,6.5348,6.5661,6.7034,6.978,7.0353,7.059,7.059,7.1064,7.13,7.13,7.13,7.13,7.13,7.077,7.0838,7.1267,7.077,7.0838,7.13,7.13,7.13,7.13,7.13,7.1605,7.2056,7.2056,7.2191,7.2462,0.0,0.0,0.0,0.0,0.0,0.0,0.0,3.3008,3.4296,3.5069,3.5717,3.6118,3.6118,3.6118,3.5938,3.5541,3.5511,0.0,0.0,0.0,0.0,0.0,0.0,0.0,3.5511,3.5511,3.5511,3.5511,3.5511,3.5511,3.5511,3.5511,3.528,3.4877,3.4877,3.4667,0.0,0.0,0.0,0.0,3.7434,3.8042,3.8461,0.0,0.0,0.0,0.0,0.0,0.0,0.0,0.0,0.0,0.0,0.0,0.0,0.0,4.5873,4.704,4.9243,5.0529,5.1265,5.1517,5.0433,4.9378,4.9595,4.8416,4.7309,4.7309,4.7309,4.7309,4.7309,4.8677,5.0329,5.1971,5.3258,5.5139,5.826,5.9083,5.9874,6.1229,6.1992,6.2397,6.2397,6.2824,6.3108,6.3108,6.3108,6.3706,6.5046,6.5331,6.6902,7.0015,6.9903,6.9749,6.9749,6.9749,6.9749,6.976,7.0263,7.0516,7.0528,7.0873,7.1278,7.1672,7.1244,7.1447,0.0,7.1842,7.1875,7.2124,7.2124,7.2428,7.28,7.28,7.3003,7.3308,0.0,0.0,0.0,0.0,0.0,0.0,0.0,3.3463,3.4451,3.5375,3.5511,3.5511,3.5511,3.5511,3.5511,3.5511,0.0,0.0,0.0,0.0,0.0,0.0,0.0,0.0,3.5511,3.5511,3.5511,3.5511,3.5511,3.5511,3.5511,3.5511,3.5511,3.5511,3.5511,3.5511,0.0,0.0,0.0,0.0,3.7892,3.8431,0.0,0.0,0.0,0.0,0.0,0.0,0.0,0.0,0.0,0.0,0.0,0.0,0.0,0.0,0.0,0.0,0.0,5.0014,5.1068,5.1708,5.0493,4.9307,4.986,4.8603,0.0,4.7309,4.7309,4.7298,4.7369,4.8197,4.912,4.9894,5.1483,5.3549,5.6259,5.7936,5.9876,6.2477,6.2869,6.2932,6.3039,6.3136,6.3197,6.3213,6.3257,6.377,6.505,6.5692,6.6622,6.7941,6.7364,6.7131,6.7337,6.7375,6.7426,6.7503,6.8875,6.9514,6.9562,7.1574,7.2462,7.2462,7.2462,7.2879,7.3454,7.2766,7.2879,7.3488,7.3488,7.3522,7.359,7.359,7.4052,7.4683,0.0,0.0,0.0,0.0,0.0,0.0,0.0,0.0,0.0,0.0,3.5511,3.5511,3.5511,3.5511,3.5511,0.0,0.0,0.0,0.0,0.0,0.0,0.0,0.0,0.0,3.5511,3.5511,3.5511,3.5511,3.5511,3.5511,3.5511,3.5511,3.5511,3.5511,3.5511,3.5511,0.0,0.0,0.0,0.0,3.8071,3.8721,0.0,0.0,0.0,0.0,4.0148,4.0825,0.0,0.0,0.0,0.0,0.0,0.0,0.0,0.0,4.5315,4.5674,4.7309,0.0,4.8256,4.8416,4.8117,4.7818,0.0,4.7627,4.7309,4.7309,4.7309,4.7459,4.7978,4.8898,5.0163,5.1954,5.2944,5.4768,5.848,6.0682,6.2345,6.3549,6.3298,6.3447,6.4405,6.409,6.4006,6.45,6.456,6.4678,6.5014,6.518,6.5401,6.5734,6.5596,6.6537,6.8632,6.9246,6.9829,7.0335,7.1792,7.2485,7.2497,7.3023,7.3251,7.3251,7.3251,7.3353,7.3488,7.3319,7.3353,7.3488,7.3488,7.3849,7.4345,7.4345,7.483,7.5439,0.0,0.0,0.0,0.0,0.0,0.0,0.0,0.0,0.0,0.0,0.0,3.5511,3.5511,3.5511,0.0,0.0,0.0,0.0,0.0,0.0,0.0,0.0,0.0,3.5511,3.5511,3.5511,3.5511,3.5511,3.5511,3.5511,3.5511,3.5511,3.5511,3.5511,3.5511,3.5511,0.0,0.0,0.0,3.7486,3.8473,0.0,0.0,0.0,0.0,0.0,4.0516,4.1094,0.0,4.284,4.3479,4.3748,0.0,0.0,0.0,0.0,4.5315,4.5574,4.695,4.7309,4.7309,4.7309,4.7309,4.7309,4.7309,4.7309,4.7309,4.7309,4.7309,4.7489,4.8188,4.9455,5.0817,5.1975,5.3725,5.6179,5.9835,6.2362,6.3847,6.3982,6.3989,6.4136,6.4509,6.4474,6.462,6.4964,6.4994,6.4994,6.4994,6.5308,6.5458,6.5458,6.5458,6.6033,6.7226,6.7646,6.8053,6.8432,6.9879,7.056,7.0611,7.2261,7.3007,7.3031,7.3693,7.4187,7.4469,7.4153,7.4187,7.4503,7.4503,7.4762,7.5089,7.5089,7.5371,7.5709,0.0,0.0,0.0,0.0,0.0,0.0,0.0,0.0,0.0,0.0,0.0,0.0,0.0,0.0,0.0,0.0,0.0,0.0,0.0,0.0,0.0,0.0,3.5511,3.5511,3.5511,3.5511,3.5511,3.5511,3.5609,3.5639,3.5639,3.575,3.575,3.5639,3.5639,3.5639,0.0,0.0,0.0,3.7665,3.8883,0.0,0.0,0.0,0.0,0.0,0.0,0.0,0.0,4.3559,4.4147,4.4147,4.4147,0.0,0.0,0.0,0.0,0.0,4.682,4.7448,4.7657,4.7358,4.7309,4.7309,4.7309,4.7309,4.7309,4.7309,4.7309,4.7668,4.8816,5.014,5.1265,5.1995,5.4653,5.7656,6.0606,6.3174,6.4627,6.4194,6.4659,6.4868,6.4489,6.4873,6.5203,6.5293,6.5308,6.5308,6.5308,6.5847,6.6161,6.6161,6.6161,6.5877,6.5293,6.5427,6.5545,6.5665,6.7296,6.7967,6.7873,7.1324,7.2787,7.2661,7.4124,7.5122,7.5642,7.5033,7.5134,7.5709,7.5709,7.5709,7.5709,7.5709,7.5709,7.5709,0.0,0.0,0.0,0.0,0.0,0.0,0.0,0.0,0.0,0.0,0.0,0.0,0.0,0.0,0.0,0.0,0.0,0.0,0.0,0.0,0.0,3.5511,3.5511,3.5511,3.5511,3.5511,3.5511,3.5511,3.6066,3.6335,3.6365,3.6866,3.6836,3.6335,3.6335,3.6335,3.6395,3.7097,0.0,3.8302,3.9101,0.0,0.0,0.0,0.0,0.0,0.0,0.0,0.0,4.317,4.3449,4.3449,4.3449,0.0,0.0,0.0,0.0,0.0,4.6241,4.8065,4.937,4.7717,4.7309,4.7309,4.7309,4.7309,4.7309,4.7309,4.7309,4.8356,5.181,5.1307,5.1654,5.5568,5.7573,5.924,6.0855,6.2855,6.4305,6.4789,6.4927,6.54,6.6438,6.6126,6.6086,6.664,6.67,6.67,6.67,6.6789,6.6849,6.6849,6.6849,6.6789,6.67,6.7351,6.7989,6.8573,7.1325,7.1939,7.0823,7.3816,7.4557,7.3503,7.492,7.5608,7.5676,7.5574,7.5608,7.5709,7.5709,7.5709,7.5709,7.5709,7.5709,7.5709,0.0,0.0,0.0,0.0,0.0,0.0,0.0,0.0,0.0,0.0,0.0,0.0,0.0,0.0,0.0,0.0,0.0,0.0,0.0,0.0,3.5511,3.5511,3.5511,3.5511,3.5511,3.5848,3.6036,3.6036,3.6686,3.6985,3.6985,3.6926,3.6784,3.6493,3.6493,3.6493,3.6553,3.7533,3.8131,3.8461,0.0,0.0,0.0,0.0,0.0,0.0,0.0,0.0,0.0,0.0,4.3848,4.3848,4.3848,0.0,0.0,0.0,0.0,0.0,4.6031,4.7198,4.8293,4.9183,5.023,5.105,5.105,5.1319,5.1259,5.0182,4.9942,5.072,5.3264,5.3593,5.497,5.9591,6.0832,6.1683,6.3014,6.4566,6.5565,6.5548,6.5869,6.6187,6.6435,6.6523,6.667,6.6984,6.7014,6.7014,6.7014,6.7014,6.7014,6.7014,6.7014,6.7014,6.7014,6.8151,6.8891,6.9216,7.0574,7.1278,7.1456,7.3604,7.4219,7.3681,7.51,7.5709,7.5709,7.5709,7.5709,7.5709,7.5709,7.598,7.6386,7.6804,7.6939,7.6939,0.0,0.0,0.0,0.0,0.0,0.0,0.0,0.0,0.0,0.0,0.0,0.0,0.0,0.0,0.0,0.0,0.0,0.0,0.0,3.5511,3.5511,3.5511,3.5511,3.5571,3.5729,3.6246,3.6643,3.6943,3.7584,3.7934,3.8093,3.7323,3.6943,3.6943,3.6784,3.6784,3.6994,3.799,3.858,3.891,0.0,0.0,0.0,0.0,0.0,0.0,0.0,0.0,0.0,0.0,0.0,0.0,0.0,0.0,0.0,4.4057,4.4307,4.4755,4.5802,4.6629,4.7826,5.0338,5.1786,5.2893,5.4149,5.4341,5.4042,5.3306,5.3156,5.3593,5.5077,5.6568,5.8647,6.188,6.2867,6.3647,6.4833,6.5991,6.6531,6.6051,6.6598,6.6807,6.6297,6.67,6.7014,6.7014,6.7014,6.7014,6.7014,6.7014,6.7014,6.7014,6.7014,6.7014,6.7014,6.8117,6.8678,6.8693,6.9404,7.0129,7.0921,7.2395,7.3264,7.3643,7.4369,7.4884,7.5194,7.5011,7.4921,7.4979,7.55,7.631,7.7232,7.7785,7.7988,7.7988,0.0,0.0,0.0,0.0,0.0,0.0,0.0,0.0,0.0,0.0,0.0,0.0,0.0,0.0,0.0,0.0,0.0,0.0,0.0,3.5511,3.5511,3.5511,3.5511,3.5789,3.6395,3.6493,3.7084,3.8251,3.8922,3.958,4.0157,3.888,3.8251,3.823,3.7614,3.7674,3.8281,3.8371,3.9119,4.0247,4.0307,0.0,0.0,0.0,0.0,0.0,0.0,0.0,0.0,0.0,0.0,0.0,0.0,0.0,4.3359,4.3359,4.4247,4.5244,4.5345,4.7597,4.9968,5.0207,4.9022,4.9075,5.4012,5.3234,5.2324,5.5294,5.5923,5.6492,5.8411,6.0356,6.1373,6.0459,6.2341,6.4183,6.4888,6.5607,6.6057,6.6027,6.6582,6.6971,6.6924,6.6969,6.7014,6.7014,6.7014,6.7014,6.7014,6.7014,6.7014,6.7014,6.7014,6.7014,6.7014,6.7091,6.7152,6.7183,6.993,7.0592,6.9418,7.088,7.2321,7.354,7.2249,7.2494,7.3703,7.2954,7.2641,7.2856,7.4884,7.6606,7.7921,7.7988,7.7988,7.7988,0.0,0.0,0.0,0.0,0.0,0.0,0.0,0.0,0.0,0.0,0.0,0.0,0.0,0.0,0.0,0.0,0.0,0.0,0.0,3.5511,3.5511,3.5511,3.5511,3.5818,3.6493,3.7272,3.8123,3.9011,3.9699,4.0148,4.0367,3.9029,3.8401,3.8401,3.8123,3.8161,3.8431,3.8832,3.9559,4.0397,4.0397,4.0636,0.0,0.0,0.0,0.0,0.0,0.0,0.0,0.0,4.2601,4.244,4.2661,4.299,4.33,4.33,4.3938,4.4755,4.5185,4.7706,5.0297,5.0727,5.0278,5.1008,5.5884,5.6855,5.6855,5.7304,5.8381,0.0,5.8577,6.1449,6.3334,6.1613,6.3528,6.5338,6.5577,6.6191,6.661,6.661,6.6849,6.7014,6.7014,6.7014,6.7014,6.7014,6.7014,6.7194,6.7583,6.7613,6.7822,6.8226,6.8226,6.8226,6.8226,6.9154,6.9154,6.8257,6.9862,7.0842,7.121,7.2156,7.2903,7.3395,7.2834,7.2903,7.3468,7.4153,7.4444,7.4689,7.6947,7.8169,7.8754,7.9194,7.9363,7.9363,0.0,0.0,0.0,0.0,0.0,0.0,0.0,0.0,0.0,0.0,0.0,0.0,0.0,0.0,0.0,0.0,0.0,0.0,3.5511,3.5511,3.5511,3.5511,3.5511,3.5908,3.6784,3.7862,3.8841,3.9729,4.0397,4.0487,4.0058,3.8939,3.8401,3.8401,3.8401,3.852,3.8751,3.9221,3.9909,4.0705,4.0705,4.1134,0.0,0.0,0.0,0.0,0.0,0.0,0.0,0.0,4.2421,4.2161,4.2571,4.296,4.33,4.33,4.4645,4.6211,4.6482,4.8656,5.1146,5.2444,5.2145,5.2833,5.7919,5.8949,5.9202,6.0342,6.1359,6.1539,5.9953,6.2436,6.4261,6.2929,6.4725,6.6311,6.6311,6.67,6.7014,6.7014,6.7014,6.7074,6.7313,6.7313,6.7403,6.7613,6.7627,6.7852,6.8271,6.8301,6.8541,6.9004,6.9004,6.9004,6.9004,7.0006,6.999,6.9019,6.9778,7.0795,7.2023,7.198,7.2443,7.3253,7.2342,7.2487,7.3439,7.4282,7.5324,7.6545,7.8111,7.9019,7.952,8.0006,8.0209,8.0209,0.0,0.0,0.0,0.0,0.0,0.0,0.0,0.0,0.0,0.0,0.0,0.0,0.0,0.0,0.0,0.0,0.0,0.0,3.5511,3.5511,3.5511,3.5511,3.5519,3.6109,3.7366,3.8063,3.9059,4.0397,4.1074,4.0705,3.9391,3.873,3.8401,3.8401,3.8401,3.8781,3.9391,3.9391,4.0178,4.1403,4.1403,4.1802,4.241,0.0,0.0,0.0,0.0,0.0,0.0,0.0,4.2452,4.1643,4.2881,4.33,4.33,4.33,4.6559,5.0028,4.9426,5.0714,5.2887,5.5504,5.4204,5.3832,5.9774,5.859,5.8108,6.4635,6.4934,6.3797,6.3213,6.3602,6.4006,6.4006,6.5682,6.7014,6.7014,6.7014,6.7014,6.7014,6.7014,6.7284,6.7958,6.8017,6.8271,6.8944,6.9004,6.9004,6.9004,6.9004,6.9004,6.9034,6.9034,6.9034,6.9034,6.9034,6.9034,6.9034,6.9678,7.041,7.1142,6.9695,7.0586,7.3129,7.0266,7.0723,7.3405,7.2646,7.4554,7.7909,7.7909,7.8842,8.0209,8.0209,8.0209,8.0209,0.0,0.0,0.0,0.0,0.0,0.0,0.0,0.0,0.0,0.0,0.0,0.0,0.0,0.0,0.0,0.0,0.0,0.0,3.5511,3.5511,3.5511,3.5511,3.5938,3.6365,3.6755,3.8293,3.9768,4.1094,4.0825,4.0487,4.0098,3.8931,3.8661,3.9101,3.9101,3.9212,3.9391,3.9391,4.0178,4.1403,4.1403,4.2052,4.299,0.0,0.0,0.0,0.0,0.0,0.0,0.0,0.0,0.0,4.2541,4.3269,4.3908,4.3449,4.5273,4.7317,4.6661,5.0654,5.4743,5.3665,5.5927,5.9069,6.1283,6.0685,6.0715,6.453,6.3872,6.275,6.3048,6.4366,6.5114,6.4156,6.5682,6.7164,6.7643,6.7703,6.7882,6.8345,6.8405,6.8465,6.8675,6.872,6.8794,6.9004,6.9004,6.9213,6.9678,6.9708,6.9901,7.032,7.035,7.035,7.035,7.035,7.035,7.035,7.053,7.0533,7.036,7.0335,7.0818,7.1563,7.0707,7.085,7.1827,7.3806,7.6567,7.9508,7.9508,7.9785,8.0209,8.0209,8.0209,8.0209,0.0,0.0,0.0,0.0,0.0,0.0,0.0,0.0,3.2885,3.2885,3.2397,3.2397,0.0,0.0,0.0,3.5408,3.5511,3.5511,3.5511,3.5511,3.5631,3.5878,3.6276,3.6733,3.7233,3.8922,3.9918,4.0206,4.0068,3.9858,3.9598,3.905,3.9011,3.9421,3.9969,4.0058,3.9789,3.9789,4.0427,4.1403,4.1403,4.2162,4.327,0.0,0.0,0.0,0.0,0.0,0.0,0.0,0.0,0.0,4.269,4.3289,4.4147,4.5324,4.6909,4.8615,5.0331,5.3803,5.7004,5.7231,5.9415,6.1882,6.3318,6.3558,6.3827,6.5129,6.4695,6.4081,6.4231,6.5413,6.6221,6.5697,6.6595,6.7613,6.8301,6.8391,6.8541,6.8944,6.9004,6.9093,6.9363,6.9393,6.9482,6.9752,6.9752,6.9931,7.0336,7.0366,7.053,7.0889,7.0889,7.0889,7.0889,7.0889,7.0889,7.0889,7.0889,7.0709,7.0366,7.0739,7.0889,7.097,7.2205,7.2752,7.2984,7.5834,7.8093,7.9769,7.9769,7.9769,7.9803,8.0073,8.0209,8.0209,0.0,0.0,0.0,0.0,0.0,0.0,0.0,3.181,3.1222,3.1315,3.1324,3.1692,0.0,0.0,0.0,3.5416,3.5511,3.5511,3.5511,3.5511,3.5789,3.6455,3.6613,3.7233,3.8461,3.9679,3.9679,3.8401,3.9011,3.9011,3.8401,3.9011,3.9361,3.9541,4.0765,4.0975,4.0397,4.0337,4.0705,4.1313,4.1313,4.2043,4.312,4.312,0.0,0.0,0.0,0.0,0.0,0.0,0.0,0.0,4.313,4.3329,4.4117,4.778,4.9942,5.2252,5.7081,5.8427,5.9461,6.3678,6.3633,6.3169,6.5622,6.661,6.6819,6.6131,6.649,6.6759,6.6281,6.667,6.7313,6.7987,6.8107,6.8331,6.9004,6.9093,6.9123,6.9183,6.9183,6.9423,7.0037,7.0067,7.0306,7.0859,7.0889,7.0889,7.0889,7.0889,7.0889,7.0889,7.0889,7.0889,7.0889,7.0889,7.0889,7.0889,7.0889,7.0889,7.0889,7.0889,7.0889,7.1067,7.3944,7.5229,7.548,7.7821,7.8825,7.8917,7.9098,7.9181,7.9283,7.9938,8.0209,8.0209,0.0,0.0,0.0,0.0,0.0,0.0,3.2593,3.181,3.1462,3.2191,3.229,3.2655,3.3602,3.4576,0.0,3.5465,3.5511,3.5511,3.5511,3.5511,3.5789,3.6455,3.7443,3.8362,3.9161,3.9481,3.9221,3.8401,3.8542,3.8542,3.8401,3.855,3.917,4.0217,4.0487,4.0516,4.0367,3.9849,3.9999,4.0616,4.0616,4.1085,4.1813,4.1813,4.2152,0.0,0.0,0.0,0.0,0.0,0.0,0.0,4.327,4.3658,4.4237,4.5125,4.8136,5.1445,5.2594,5.6961,6.1493,6.248,6.4336,6.6236,6.7313,6.7284,6.6819,6.6131,6.6116,6.649,6.7403,6.7688,6.8002,6.869,6.8764,6.9004,6.9678,6.9798,6.9977,7.044,7.05,7.056,7.0679,7.0709,7.0769,7.0889,7.0889,7.0889,7.0889,7.0889,7.0889,7.0889,7.0889,7.0889,7.0889,7.0889,7.0889,7.0889,7.0889,7.0889,7.0889,7.0889,7.0889,7.0921,7.1617,7.232,7.3193,7.5424,7.6747,7.7561,7.9276,7.9972,7.9972,8.0141,8.0209,8.0209,0.0,0.0,0.0,0.0,0.0,0.0,0.0,0.0,3.1455,3.1864,3.2316,3.2947,3.3893,3.4897,0.0,0.0,3.5511,3.5511,3.5511,3.5511,3.5938,3.6896,3.7862,3.8571,3.8892,3.8922,3.8452,3.7481,3.7481,3.7802,3.8401,3.8721,3.9589,4.0885,4.1224,4.1194,4.0825,4.0148,4.0098,4.0397,4.0397,4.0795,4.1403,4.1403,4.1622,4.1952,4.2281,0.0,0.0,0.0,0.0,0.0,0.0,0.0,4.4655,4.657,4.8155,5.029,5.4748,5.8008,6.0864,6.3737,6.5967,6.7493,6.7493,6.7493,6.7373,6.7044,6.6954,6.7164,6.7868,6.8271,6.869,6.9379,6.9498,6.9692,7.032,7.0426,7.056,7.0859,7.0889,7.0889,7.0889,7.0889,7.0889,7.0889,7.0889,7.0889,7.0889,7.0889,7.0889,7.0889,7.0889,7.0889,7.0889,7.0889,7.0889,7.0889,7.0889,7.0889,7.0889,7.0889,7.0889,7.0938,7.1697,7.2319,7.2947,7.5225,7.6447,7.7034,7.8934,7.9667,7.9735,8.0073,8.0209,8.0086,0.0,0.0,0.0,0.0,0.0,0.0,0.0,0.0,0.0,3.1642,3.2209,3.3008,3.4143,3.5009,3.5511,0.0,0.0,0.0,3.5511,3.5601,3.6148,3.7195,3.7982,3.8341,3.8221,3.8341,3.7781,3.6493,3.6493,3.7144,0.0,0.0,4.0127,4.1433,4.1982,4.1922,4.1343,4.0546,4.0217,4.0217,4.0217,4.0546,4.1035,4.1035,4.1134,4.1313,4.1982,4.2291,4.2491,4.31,0.0,0.0,0.0,0.0,4.4965,4.8364,4.8693,4.9662,5.744,5.9265,6.0282,6.5817,6.7583,6.7868,6.7313,6.7583,6.7987,6.7987,6.7987,6.8077,6.8271,6.878,6.9393,7.0037,7.0157,7.0336,7.0829,7.0889,7.0889,7.0889,7.0889,7.0889,7.0889,7.0889,7.0889,7.0889,7.0889,7.0889,7.0889,7.0889,7.0889,7.0889,7.0889,7.0889,7.0889,7.0889,7.0889,7.0889,7.0889,7.0889,7.0889,7.0889,7.0889,7.097,7.2314,7.283,7.2907,7.5253,7.6123,7.6202,7.8137,7.8897,7.8977,7.9583,7.9798,7.9593,0.0,0.0,0.0,0.0,0.0,0.0,0.0,0.0,0.0,0.0,3.3017,3.329,3.51,3.5408,3.5511,3.5511,3.5511,3.5511,3.5511,0.0,0.0,3.6605,3.7772,3.8131,3.7545,3.8101,3.7781,3.6493,3.6493,3.7144,0.0,0.0,0.0,4.1403,4.1493,4.1493,4.1313,4.0058,3.9541,3.9541,3.9541,3.9601,3.967,3.967,4.0029,4.0606,4.1283,4.1922,4.2491,4.31,4.33,0.0,0.0,0.0,4.4516,4.5633,4.8196,5.1068,5.2905,5.7812,6.3303,6.697,6.7928,6.7987,6.7898,6.7928,6.7987,6.7987,6.7987,6.8331,6.9437,6.9782,7.0067,7.0679,7.0769,7.0799,7.0889,7.0889,7.0889,7.0889,7.0889,7.0889,7.0889,7.0889,7.0889,7.0889,7.0889,7.0889,7.0889,7.0889,7.0889,7.0889,7.0889,7.0889,7.0889,7.0889,7.0889,7.0889,7.0889,7.0889,7.0889,7.0889,7.0889,7.0905,7.1132,7.0914,7.0622,7.2859,7.343,7.3226,7.6705,7.8079,7.8079,7.8178,7.8211,7.7976,0.0,0.0,0.0,0.0,0.0,0.0,0.0,0.0,0.0,0.0,0.0,3.3333,3.5294,3.5511,3.5511,3.5511,3.5511,3.5511,3.5511,3.5789,3.6126,3.6485,3.7353,3.7554,3.6904,3.7524,3.7225,3.5938,3.5938,0.0,0.0,3.9101,4.0307,0.0,0.0,0.0,4.1313,3.9969,3.9391,3.9391,3.9391,4.0937,4.298,4.0378,4.1186,4.3459,4.1534,4.1283,4.1952,4.2561,4.302,4.33,4.33,0.0,0.0,0.0,4.7059,4.9961,5.4329,5.9219,6.3886,6.7179,6.7987,6.7898,6.7523,6.7748,6.8107,6.8481,6.887,6.9289,6.9842,7.026,7.059,7.0859,7.0889,7.0889,7.0889,7.0889,7.0889,7.0889,7.0889,7.0889,7.0889,7.0889,7.0889,7.0889,7.0889,7.0889,7.0889,7.0889,7.0889,7.0889,7.0889,7.0889,7.0889,7.0889,7.0889,7.0889,7.0889,7.0889,7.0889,7.0889,7.0889,7.0889,7.0889,7.0739,7.0645,7.2535,7.3137,7.3117,7.5624,7.659,7.659,7.659,7.659,7.6379,0.0,0.0,0.0,0.0,0.0,0.0,0.0,0.0,0.0,0.0,0.0,3.3602,3.5318,0.0,0.0,0.0,3.5511,3.5511,3.5511,3.5511,3.5729,3.6216,3.6836,3.6896,3.6246,3.6836,3.6618,3.5511,0.0,0.0,3.8661,3.934,4.0726,0.0,4.1952,0.0,0.0,0.0,0.0,3.975,4.0737,4.322,4.6031,4.3579,4.4905,4.7538,4.3559,4.2581,4.311,4.275,4.294,4.33,4.33,4.4207,0.0,0.0,0.0,4.8645,5.4897,5.868,6.1746,6.5548,6.6745,6.7014,6.7224,6.7762,6.8451,6.9139,6.9752,7.0217,7.0217,7.059,7.0889,7.0889,7.0889,7.0889,7.0889,7.0889,7.0889,7.0889,7.0889,7.0889,7.0889,7.0889,7.0889,7.0889,7.0889,7.0889,7.0889,7.0889,7.0889,7.0889,7.0889,7.0889,7.0889,7.0889,7.0889,7.0889,7.0889,7.0889,7.0889,7.0889,7.0889,7.0889,7.0889,7.0889,7.0986,7.2189,7.2674,7.2845,7.4377,7.4998,7.5012,7.5012,7.5012,7.4777,0.0,0.0,0.0,0.0,0.0,0.0,0.0,0.0,0.0,0.0,0.0,3.4321,3.5375,3.5511,3.5511,3.5511,3.5511,3.5511,3.5511,3.5511,3.5519,3.5541,3.6178,0.0,3.5579,3.6216,3.6207,3.5511,0.0,0.0,3.9361,4.0029,4.1405,4.324,4.2631,4.2351,4.2261,0.0,0.0,4.0696,4.4416,4.6091,4.6689,5.0212,5.2079,5.2318,4.8356,4.7369,4.747,4.4296,4.327,4.33,4.33,4.4207,4.5315,0.0,0.0,0.0,5.1558,5.3563,5.5914,6.1104,6.3318,6.4844,6.7389,6.8481,6.9123,6.9798,7.044,7.0859,7.0859,7.0889,7.0889,7.0889,7.0889,7.0889,7.0889,7.0889,7.0889,7.0889,7.0889,7.0889,7.0889,7.0889,7.0889,7.0889,7.0889,7.0889,7.0889,7.0889,7.0889,7.0889,7.0889,7.0889,7.0889,7.0889,7.0889,7.0889,7.0889,7.0889,7.0889,7.0889,7.0889,7.0889,7.0889,7.0889,7.0919,7.0986,7.1018,7.1196,7.2737,7.3352,7.3414,7.3414,7.3414,7.3169,0.0,0.0,0.0,0.0,0.0,0.0,0.0,0.0,0.0,0.0,0.0,0.0,0.0,3.4914,3.4806,3.5432,3.5511,3.5511,3.5511,3.5511,3.5511,3.5511,3.6507,3.6776,3.6156,3.6746,3.6776,0.0,0.0,3.7263,3.8781,3.9888,4.1235,4.2681,4.2062,4.2012,4.2281,4.0516,0.0,0.0,4.4407,4.7698,5.0631,4.9942,5.2737,5.6256,0.0,0.0,0.0,4.692,4.5074,4.33,4.33,4.4207,4.5464,4.6322,4.692,4.8117,5.1839,5.3186,5.461,5.9069,6.1806,6.3782,6.5129,6.7268,6.9183,6.9858,7.047,7.0889,7.0889,7.0889,7.0889,7.0889,7.0889,7.0889,7.0889,7.0889,7.0889,7.0889,7.0889,7.0889,7.0889,7.0889,7.0889,7.0889,7.0889,7.0889,7.0889,7.0889,7.0889,7.0889,7.0889,7.0889,7.0889,7.0889,7.0889,7.0889,7.0889,7.0889,7.0889,7.0889,7.0889,7.0889,7.0889,7.0889,7.0889,7.0889,7.0889,7.0938,7.1505,7.1744,7.176,7.176,7.176,7.1665,0.0,0.0,0.0,3.0492,0.0,3.2162,3.2771,3.3254,3.3914,3.4864,0.0,0.0,0.0,0.0,3.4388,3.5408,3.5511,3.5511,3.5511,3.5511,3.5511,3.5511,3.6537,3.6904,3.6523,3.7105,3.7097,0.0,0.0,0.0,0.0,3.9768,4.1134,4.2351,4.1463,4.1663,0.0,0.0,0.0,4.2074,0.0,0.0,5.1571,5.1673,5.437,0.0,0.0,0.0,0.0,0.0,4.9134,4.7108,4.5961,4.5642,4.5862,4.698,4.7309,4.7867,5.0522,5.139,5.2498,5.6466,5.88,6.0908,6.3977,6.6221,6.815,6.9947,7.062,7.0889,7.0889,7.0889,7.0889,7.0889,7.0889,7.0889,7.0889,7.0889,7.0889,7.0889,7.0889,7.0889,7.0889,7.0889,7.0889,7.0889,7.0889,7.0889,7.0889,7.0889,7.0889,7.0889,7.0889,7.0889,7.0889,7.0889,7.0889,7.0889,7.0889,7.0889,7.0889,7.0889,7.0889,7.0889,7.0889,7.0889,7.0889,7.0889,7.0889,7.0889,7.0889,7.0889,7.0889,7.0889,7.0889,7.0889,0.0,3.1838,3.2039,3.1538,3.2549,3.345,3.3477,3.4631,3.5167,3.4193,0.0,0.0,0.0,0.0,0.0,3.5438,3.5519,3.5511,3.5511,3.5511,3.5511,3.5519,3.6186,3.6553,3.6553,3.7135,3.7135,3.6553,3.7802,3.8401,0.0,0.0,4.1094,4.2291,4.1005,4.1494,4.321,0.0,4.2381,4.2981,0.0,5.0216,4.9136,0.0,0.0,0.0,5.5688,5.579,0.0,5.5611,0.0,5.4401,5.1116,4.8353,4.642,4.7089,4.7309,4.7309,0.0,0.0,0.0,5.3042,5.4089,5.6154,6.3917,6.5278,6.6026,6.9961,7.0799,7.0859,7.0889,7.0889,7.0889,7.0889,7.0889,7.0889,7.0889,7.0889,7.0889,7.0889,7.0889,7.0889,7.0889,7.0889,7.0889,7.0889,7.0889,7.0889,7.0889,7.0889,7.0889,7.0889,7.0889,7.0889,7.0889,7.0889,7.0889,7.0889,7.0889,7.0889,7.0889,7.0889,7.0889,7.0889,7.0889,7.0889,7.0889,7.0889,7.0889,7.0889,7.0889,7.0889,7.0889,7.0889,7.0889,7.0889,3.1989,3.2104,3.2288,3.2532,3.3417,3.4372,3.5159,3.5583,3.57,0.0,0.0,0.0,0.0,0.0,0.0,3.6199,3.6216,3.6006,3.5541,3.5511,3.5729,3.6186,3.6806,3.7375,3.7862,3.8042,3.8042,3.7862,3.823,3.8401,3.8431,3.9768,4.0606,0.0,4.1064,4.1424,4.1873,4.1244,0.0,0.0,4.8027,5.0302,0.0,0.0,0.0,0.0,0.0,5.9847,5.7932,0.0,5.582,4.9243,0.0,4.6899,4.642,4.7089,4.7309,4.7309,4.7309,0.0,0.0,0.0,0.0,0.0,5.7363,6.0625,6.3767,6.6744,6.8525,6.9812,7.0739,7.0889,7.0889,7.0889,7.0889,7.0889,7.0889,7.0889,7.0889,7.0889,7.0889,7.0889,7.0889,7.0889,7.0889,7.0889,7.0889,7.0889,7.0889,7.0889,7.0889,7.0889,7.0889,7.0889,7.0889,7.0889,7.0889,7.0889,7.0889,7.0889,7.0889,7.0889,7.0889,7.0889,7.0889,7.0889,7.0889,7.0889,7.0889,7.0889,7.0889,7.0889,7.0889,7.0889,7.0889,7.0889,3.2566,3.2767,3.324,3.429,3.4846,3.5608,3.6944,3.6662,3.6289,0.0,0.0,0.0,0.0,0.0,0.0,3.7323,3.7024,3.6716,3.6319,3.6289,3.6477,3.6874,3.7494,3.8003,3.8401,3.8661,3.8691,3.8401,3.8691,3.8661,3.8431,3.9499,4.0118,4.0427,4.0825,4.1283,4.1802,0.0,0.0,0.0,4.7815,0.0,0.0,5.6221,5.9146,0.0,0.0,0.0,5.9873,6.3223,5.8223,0.0,0.0,0.0,0.0,0.0,0.0,4.7309,4.7309,4.7309,4.7519,4.8468,0.0,0.0,5.6585,5.9518,6.254,6.7119,6.8974,7.0021,7.0769,7.0889,7.0889,7.0889,7.0889,7.0889,7.0889,7.0889,7.0889,7.0889,7.0889,7.0889,7.0889,7.0889,7.0889,7.0889,7.0889,7.0889,7.0889,7.0889,7.0889,7.0889,7.0889,7.0889,7.0889,7.0889,7.0889,7.0889,7.0889,7.0889,7.0889,7.0889,7.0889,7.0889,7.0889,7.0889,7.0889,7.0889,7.0889,7.0889,7.0889,7.0889,7.0889,7.0889,7.0889,7.0889,0.0,3.3657,3.4564,3.6351,3.6592,3.7127,3.8909,3.7958,3.7109,0.0,3.6426,0.0,0.0,0.0,0.0,0.0,3.8063,3.7575,3.7524,3.7426,3.7426,3.7516,3.8093,3.8431,3.852,3.9161,3.9221,3.861,3.9221,3.9251,3.873,3.9191,0.0,4.0397,4.0397,4.1064,4.2201,4.2401,0.0,4.4408,4.8084,5.0418,0.0,0.0,5.8432,5.9526,6.3305,6.3378,6.2058,6.4647,6.1324,0.0,0.0,0.0,0.0,0.0,4.7608,4.7848,4.7429,4.7309,4.7578,0.0,0.0,0.0,5.8038,5.9548,6.1238,6.7897,6.9453,6.9662,6.9871,6.9931,6.9961,7.0021,7.029,7.056,7.0859,7.0889,7.0889,7.0889,7.0889,7.0889,7.0889,7.0889,7.0889,7.0889,7.0889,7.0889,7.0889,7.0889,7.0889,7.0889,7.0889,7.0889,7.0889,7.0889,7.0889,7.0889,7.0889,7.0889,7.0889,7.0889,7.0889,7.0889,7.0889,7.0889,7.0889,7.0889,7.0889,7.0889,7.0889,7.0889,7.0889,7.0889,7.0889,7.0889,3.4388,3.4477,3.523,3.7407,3.8161,3.9176,4.1361,3.992,3.8745,3.9274,0.0,0.0,0.0,0.0,0.0,0.0,3.9699,3.8772,3.8242,3.7704,3.7644,3.8182,3.8341,3.8661,3.9191,3.9849,4.0157,4.0008,4.0157,4.0397,4.0795,3.9849,0.0,0.0,4.0397,4.0546,4.0885,4.2452,0.0,4.8824,4.8418,0.0,5.4976,5.8701,6.2033,6.5068,6.786,6.7208,6.4755,6.2762,6.1539,6.0063,0.0,0.0,0.0,0.0,0.0,0.0,0.0,0.0,0.0,0.0,0.0,0.0,0.0,5.3139,5.5414,5.8424,6.031,6.1912,6.3528,6.3827,6.3977,6.453,6.6386,6.8495,7.059,7.0889,7.0889,7.0889,7.0889,7.0889,7.0889,7.0889,7.0889,7.0889,7.0889,7.0889,7.0889,7.0889,7.0889,7.0889,7.0889,7.0889,7.0889,7.0889,7.0889,7.0889,7.0889,7.0889,7.0889,7.0889,7.0889,7.0889,7.0889,7.0889,7.0889,7.0889,7.0889,7.0889,7.0889,7.0889,7.0889,7.0889,7.0889,7.0889,3.5093,3.5093,3.6015,3.895,3.8962,3.9544,4.2459,4.0658,3.9486,4.0936,0.0,0.0,0.0,0.0,0.0,0.0,0.0,0.0,3.9927,3.9269,3.905,3.9379,3.908,3.9221,3.9879,4.0217,4.0546,4.0885,4.0885,4.0885,4.0885,4.0556,4.0985,0.0,4.1576,4.1991,4.3023,4.3198,4.5004,4.7933,5.0246,0.0,6.0472,6.3014,6.6116,6.9198,7.0119,6.8982,6.6776,6.5128,6.2394,0.0,0.0,5.8471,5.6316,0.0,5.2157,5.2755,0.0,0.0,0.0,4.7739,0.0,0.0,0.0,5.3258,5.5042,5.8022,5.9428,6.0416,6.1433,6.1613,6.1822,6.2495,6.4784,6.6729,6.7358,6.9453,7.0889,7.0889,7.0889,7.0889,7.0889,7.0889,7.0889,7.0889,7.0889,7.0889,7.0889,7.0889,7.0889,7.0889,7.0889,7.0889,7.0889,7.0889,7.0889,7.0889,7.0889,7.0889,7.0889,7.0889,7.0889,7.0889,7.0889,7.0889,7.0889,7.0889,7.0889,7.0889,7.0889,7.0889,7.0889,7.0889,7.0889,7.0889,3.567,3.567,3.6675,3.9895,3.9335,3.9522,4.2746,4.0978,4.0037,4.2191,0.0,0.0,0.0,0.0,0.0,0.0,0.0,0.0,4.207,4.1429,4.1064,4.1064,4.023,4.0189,4.1034,4.0875,4.1035,4.1583,4.1583,4.1373,4.0956,4.1244,4.2097,4.3369,4.3215,0.0,0.0,0.0,0.0,4.8365,0.0,5.8156,6.2979,6.5241,6.7731,7.0073,7.0265,6.9386,6.8065,6.772,6.3482,5.9024,6.2735,6.0954,0.0,0.0,0.0,0.0,0.0,0.0,0.0,0.0,0.0,4.9643,0.0,0.0,0.0,5.8547,5.9205,5.9235,5.9355,5.9385,5.9564,6.0116,6.26,6.4052,6.2839,6.643,6.9333,6.9706,7.056,7.0889,7.038,7.0231,7.035,7.0859,7.044,7.038,7.0889,7.0889,7.0889,7.0889,7.0889,7.0889,7.0889,7.0889,7.0889,7.0889,7.0889,7.0889,7.0889,7.0889,7.0889,7.0889,7.0889,7.0889,7.0889,7.0889,7.0889,7.0889,7.0889,7.0889,7.0889,7.0889,7.0889,7.0889,3.6318,3.6318,3.6893,3.8803,3.9453,4.0356,4.2318,4.1459,4.1084,0.0,0.0,0.0,0.0,0.0,0.0,0.0,0.0,0.0,4.451,4.3784,4.3419,4.3419,4.1969,4.1892,4.3395,4.2589,4.2191,4.2291,4.2291,4.2501,4.2941,4.1903,4.1816,4.2634,4.4933,0.0,0.0,0.0,5.1574,0.0,5.7646,5.6417,0.0,5.9939,6.2424,6.3749,6.7198,6.8282,6.7921,0.0,6.4555,6.181,0.0,6.0699,6.3572,5.2959,0.0,0.0,0.0,0.0,0.0,0.0,4.9583,0.0,0.0,0.0,5.1786,5.2235,0.0,5.2504,5.3114,0.0,0.0,5.3294,5.6513,5.8756,5.7992,6.0894,6.3737,6.5488,6.9303,7.0875,6.8556,6.7792,6.8405,7.0739,6.8734,6.8435,7.0769,7.0889,7.0889,7.0889,7.0889,7.0889,7.0889,7.0889,7.0889,7.0889,7.0889,7.0889,7.0889,7.0889,7.0889,7.0889,7.0889,7.0889,7.0889,7.0889,7.0889,7.0889,7.0889,7.0889,7.0889,7.0889,7.0889,7.0889,3.6393,3.6644,3.7416,3.9163,3.9382,3.9919,4.1726,4.2205,4.281,4.411,0.0,0.0,0.0,0.0,0.0,0.0,0.0,4.7126,0.0,0.0,4.5035,4.4126,4.2733,4.2476,4.3485,4.2773,4.258,4.291,4.291,4.288,4.2771,4.2601,4.3332,4.49,4.6329,0.0,4.9751,0.0,5.2007,0.0,0.0,0.0,0.0,6.3318,6.6998,6.7519,6.9555,7.0055,6.9624,0.0,6.5793,0.0,0.0,0.0,0.0,0.0,0.0,0.0,0.0,0.0,0.0,0.0,0.0,0.0,5.1146,0.0,5.1206,0.0,0.0,0.0,0.0,0.0,0.0,0.0,5.491,5.6615,5.5568,5.9279,6.254,6.3737,6.5278,6.6535,6.7343,6.7882,6.8914,7.0769,6.9183,6.8944,7.0799,7.0889,7.0889,7.0889,7.0889,7.0889,7.0889,7.0889,7.0889,7.0889,7.0889,7.0889,7.0889,7.0889,7.0889,7.0889,7.0889,7.0889,7.0889,7.0889,7.0889,7.0889,7.0889,7.0889,7.0889,7.0889,7.0889,7.0889,3.6393,3.6708,3.7498,3.9113,3.8984,3.9321,4.1287,4.2677,4.3964,4.5229,0.0,0.0,4.7735,4.7602,0.0,0.0,4.9183,4.8938,0.0,0.0,4.7047,4.6496,4.4366,0.0,4.4847,4.3581,4.304,4.33,4.33,4.317,4.293,4.3379,4.4537,4.6299,4.745,5.0233,5.3995,0.0,5.3888,5.6359,5.7257,5.7796,5.8819,6.5851,6.9513,7.0884,7.0872,7.0885,7.0769,6.9871,6.64,0.0,6.7567,0.0,5.9967,0.0,0.0,0.0,5.2839,0.0,0.0,0.0,0.0,0.0,0.0,0.0,0.0,0.0,0.0,0.0,0.0,0.0,0.0,0.0,0.0,5.4892,5.3581,5.6855,5.9831,6.1072,6.1553,6.3049,0.0,6.6849,6.7926,6.9961,6.8734,6.8778,7.0799,7.0889,7.0889,7.0889,7.0889,7.0889,7.0889,7.0889,7.0889,7.0889,7.0889,7.0889,7.0889,7.0889,7.0889,7.0889,7.0889,7.0889,7.0889,7.0889,7.0889,7.0889,7.0889,7.0889,7.0889,7.0889,7.0889,7.0889,3.6393,3.6418,3.677,3.7863,3.8039,3.8851,4.1235,4.2677,4.3964,0.0,0.0,0.0,0.0,0.0,0.0,0.0,0.0,5.2292,5.1257,0.0,4.9895,5.1852,0.0,4.6325,0.0,4.5818,4.3938,4.33,4.33,4.3628,4.4247,4.4267,4.4635,4.5457,4.8153,5.0804,5.3331,5.4633,5.9568,6.634,6.45,6.637,6.9739,0.0,6.5975,7.0661,6.8868,0.0,0.0,6.7223,6.6011,0.0,0.0,0.0,0.0,0.0,0.0,0.0,0.0,0.0,0.0,5.2965,0.0,0.0,0.0,0.0,5.2157,0.0,0.0,0.0,0.0,0.0,0.0,0.0,0.0,0.0,0.0,0.0,0.0,0.0,0.0,0.0,0.0,6.3393,6.3931,0.0,6.6236,6.6834,7.0709,7.0889,7.0889,7.0889,7.0889,7.0889,7.0889,7.0889,7.0889,7.0889,7.0889,7.0889,7.0889,7.0889,7.0889,7.0889,7.0889,7.0889,7.0889,7.0889,7.0889,7.0889,7.0889,7.0889,7.0889,7.0889,7.0889,7.0889,3.6934,3.7235,3.7563,3.7939,3.8617,3.9966,4.2478,4.394,4.5433,0.0,4.806,0.0,0.0,5.0584,5.15,0.0,0.0,5.3454,5.3117,5.1713,0.0,0.0,0.0,4.6996,0.0,4.6427,4.4855,4.4606,4.4606,4.4736,4.4975,4.4975,4.5324,4.6058,4.8379,5.2272,5.7139,0.0,0.0,0.0,0.0,6.6116,6.8283,0.0,6.9179,7.0808,7.019,7.0354,0.0,6.9632,6.7807,6.6176,6.7253,6.5533,6.3244,6.4111,6.3752,6.263,6.0356,0.0,6.1792,5.6705,0.0,0.0,0.0,0.0,0.0,0.0,0.0,0.0,0.0,0.0,0.0,0.0,0.0,0.0,0.0,0.0,0.0,0.0,0.0,0.0,0.0,0.0,0.0,0.0,6.8166,0.0,7.1427,7.1128,7.0889,7.0889,7.0889,7.0889,7.0889,7.0889,7.0889,7.0889,7.0889,7.0889,7.0889,7.0889,7.0889,7.0889,7.0889,7.0889,7.0889,7.0889,7.0889,7.0889,7.0889,7.1158,7.1547,7.1547,7.1547,7.1637,3.7487,3.7952,3.8453,3.8909,4.0149,4.1752,4.3858,4.528,0.0,0.0,4.9405,0.0,5.1399,0.0,5.2341,0.0,5.4132,5.4074,5.3756,5.2839,0.0,5.3342,5.0277,0.0,0.0,0.0,4.6651,4.6399,4.5667,4.5424,4.5663,4.5663,4.6012,4.6706,4.8062,5.2683,5.945,5.924,6.2381,0.0,0.0,6.7612,0.0,0.0,7.032,6.9632,0.0,7.0889,7.0889,7.0889,6.9482,6.809,7.0231,6.7971,6.5009,6.7103,6.6236,6.4381,6.3453,6.474,6.5144,6.0116,6.0176,0.0,5.5089,0.0,5.4371,0.0,0.0,0.0,0.0,0.0,0.0,0.0,0.0,0.0,0.0,5.2187,0.0,0.0,0.0,0.0,0.0,0.0,0.0,0.0,0.0,0.0,0.0,7.1504,7.1158,7.0919,7.0889,7.0889,7.0889,7.0889,7.0889,7.0889,7.0889,7.0889,7.0889,7.0889,7.0889,7.0889,7.0889,7.0889,7.0919,7.1158,7.1248,7.1278,7.1517,7.1876,7.2252,7.1983,7.2072,7.2355,3.8028,3.8605,3.946,4.0667,4.2325,4.3945,4.5201,4.661,4.8016,0.0,5.0781,5.1901,5.2748,5.3123,5.3593,5.418,5.4549,5.4383,5.3478,5.3355,0.0,0.0,5.3468,5.3324,5.476,0.0,0.0,0.0,4.6436,4.5723,4.636,4.636,4.67,4.7309,4.7328,5.2019,5.9887,5.9357,6.4066,7.1803,7.1158,7.0829,7.0709,7.0859,6.9273,6.7328,6.9961,7.0889,7.0889,7.0889,7.0824,7.0775,7.0856,7.0824,7.0775,7.0856,7.0889,7.035,6.7882,6.7194,6.64,6.3139,6.2301,6.1403,0.0,0.0,5.8487,0.0,0.0,0.0,0.0,0.0,0.0,0.0,0.0,0.0,0.0,0.0,0.0,0.0,0.0,0.0,0.0,0.0,0.0,0.0,0.0,0.0,0.0,7.1773,7.1414,7.0919,7.0889,7.0889,7.0889,7.0889,7.0889,7.0889,7.0889,7.0889,7.0889,7.0949,7.0949,7.0949,7.0979,7.1009,7.1038,7.1683,7.1953,7.2013,7.2638,7.2907,7.2877,7.2235,7.2415,7.3086,3.8668,4.0196,4.16,4.1926,4.2818,4.3915,4.5128,4.7399,0.0,0.0,5.2154,5.3261,5.4569,5.5142,5.5632,5.6207,5.674,0.0,0.0,0.0,0.0,5.7627,5.4821,5.4096,5.6,5.2128,0.0,4.9802,4.7788,4.6879,4.7029,4.7029,4.7149,4.7328,4.7818,5.1475,5.7408,5.9118,6.4216,7.1128,7.0979,6.9722,6.8196,0.0,6.9273,6.7328,6.9961,7.0889,7.0889,7.0889,6.9963,6.9069,7.0452,6.993,6.9103,7.0485,7.0889,7.0769,7.0081,6.9901,6.9243,6.6445,6.5383,6.4276,6.1463,6.0954,0.0,0.0,0.0,0.0,0.0,0.0,0.0,0.0,0.0,0.0,0.0,0.0,0.0,0.0,0.0,0.0,0.0,0.0,0.0,0.0,0.0,0.0,7.2505,6.9842,6.9079,7.0829,7.0889,7.0889,7.0889,7.0889,7.0889,7.0889,7.0889,7.0889,7.0919,7.1414,7.1653,7.1683,7.2176,7.2368,7.2398,7.2565,7.2638,7.2654,7.2817,7.3206,7.3612,7.3432,7.3808,7.4407,3.9609,4.1052,4.2502,4.3085,4.4313,4.5537,4.6511,4.8701,5.0723,5.2078,5.3401,0.0,5.5457,5.6399,5.7054,5.7355,5.77,0.0,5.6945,0.0,0.0,5.7696,5.6435,5.6383,5.7782,5.4677,0.0,5.1669,0.0,4.8167,4.7309,4.7309,4.7309,4.7339,4.8008,5.0935,5.5701,6.0593,6.5203,6.9303,7.044,7.0021,0.0,7.035,6.9991,6.8884,7.038,7.037,6.9798,7.0629,6.9665,6.8434,7.0305,7.0173,6.9549,7.0596,7.0889,7.0889,7.0889,7.0889,7.056,6.9064,6.8435,6.7448,6.4844,6.4246,6.432,0.0,6.4111,6.4021,0.0,0.0,0.0,0.0,0.0,0.0,0.0,0.0,0.0,0.0,0.0,0.0,0.0,0.0,0.0,0.0,0.0,0.0,0.0,6.8615,6.8555,7.0021,7.062,7.0889,7.0889,7.0889,7.0889,7.0889,7.0889,7.1038,7.1338,7.1743,7.2072,7.2355,7.2744,7.2907,7.2907,7.3223,7.3343,7.3373,7.3672,7.4001,7.4347,7.4347,7.4587,7.4886,4.0713,4.1619,4.2733,4.3858,4.6091,4.7967,4.8672,5.0418,5.2047,5.307,5.4715,5.5884,5.6052,5.7237,5.8001,5.8001,0.0,5.7521,5.6193,5.7356,5.7735,5.6927,5.8107,5.9012,5.9483,5.7526,5.539,0.0,0.0,4.903,4.7051,4.7051,4.7127,4.7339,4.8008,5.078,5.5423,6.2594,6.6381,6.7717,6.9991,7.0743,7.0547,7.0547,7.037,7.0144,7.0144,6.942,6.8704,7.0337,6.9665,6.8434,7.0305,7.0786,7.0715,7.0973,7.1098,7.1158,7.1158,7.1158,7.1158,7.1158,7.1158,7.053,6.8181,6.7643,6.7792,6.8271,6.6191,6.6056,7.2042,0.0,0.0,0.0,0.0,0.0,0.0,0.0,0.0,0.0,0.0,0.0,0.0,0.0,0.0,0.0,0.0,0.0,0.0,0.0,6.8585,6.9363,7.038,7.0889,7.0889,7.0889,7.0889,7.0889,7.0889,7.1248,7.1893,7.1983,7.2385,7.3027,7.3116,7.3146,7.3206,7.3791,7.4048,7.4108,7.4676,7.4886,7.4886,7.4886,7.4886,7.4886,4.1884,4.2788,4.3447,4.3247,4.6717,4.9839,5.0659,5.2716,5.4602,5.5771,5.6828,5.7495,5.7548,5.8152,5.856,5.856,5.8956,0.0,0.0,0.0,0.0,5.899,5.9215,5.9408,5.9483,5.7526,5.4968,0.0,0.0,4.7689,4.5734,4.5734,4.6288,4.7339,4.8008,5.2318,5.9257,6.2356,6.6238,7.026,7.0709,6.9963,6.8586,6.8586,6.7593,6.6202,6.6202,6.802,7.0452,7.0791,6.9665,6.8434,7.0305,7.0231,6.9739,7.1255,7.2116,7.2548,7.2548,7.2548,7.2548,7.2548,7.2548,7.2279,7.1264,7.1055,7.0935,7.047,7.0366,7.0097,6.9199,0.0,0.0,0.0,0.0,0.0,0.0,0.0,0.0,0.0,0.0,0.0,0.0,0.0,0.0,0.0,0.0,0.0,0.0,0.0,6.6356,0.0,7.1068,7.0889,0.0,7.0889,7.0889,7.0889,7.0889,7.1248,7.1923,7.2475,7.3103,7.3762,7.4317,7.4557,7.4557,7.4676,7.4706,7.4736,7.4856,7.4886,7.4886,7.4886,7.4886,7.4886,4.4206,0.0,0.0,0.0,0.0,5.1851,5.4124,5.5805,5.6768,5.6625,5.7216,5.7643,5.7643,5.8528,5.9112,5.9112,5.9357,5.9483,5.9483,5.9483,5.9483,5.9483,5.9483,5.9483,5.9483,5.8557,5.6052,5.1904,0.0,4.8558,4.5809,4.5539,4.6088,4.7385,4.9081,5.235,5.6812,6.0233,6.3328,6.6074,6.7728,6.7872,6.7098,6.7355,6.7538,6.7503,6.6459,6.7925,7.0325,7.0053,6.8692,6.7668,7.0912,7.1535,7.1268,7.2136,7.2654,7.2907,7.2907,7.2907,7.2907,7.2907,7.2907,7.2834,7.2505,7.2162,7.1803,7.1504,7.1398,7.0696,6.8437,6.5817,0.0,0.0,0.0,0.0,0.0,0.0,0.0,0.0,0.0,0.0,0.0,0.0,0.0,0.0,0.0,0.0,0.0,6.5158,6.5802,0.0,0.0,0.0,7.0889,0.0,7.1068,7.1414,7.1414,7.1936,7.297,7.3283,7.3791,7.4437,7.4766,7.4886,7.4886,7.4886,7.4886,7.4886,7.4886,7.4886,7.4886,7.4886,7.4886,7.4886,0.0,4.7089,0.0,0.0,5.2137,5.3914,5.6726,5.8142,5.8472,5.7353,5.7591,5.785,5.785,5.8823,5.9483,5.9483,5.9483,5.9483,5.9483,5.9483,5.9483,5.9483,5.9483,5.9483,5.9483,5.9483,5.7304,0.0,0.0,4.9706,4.6646,4.5776,4.6373,4.8245,5.0522,5.2729,5.5008,5.8838,6.1252,6.2718,6.5255,6.602,6.571,6.6119,6.7,6.7846,6.6273,6.6964,6.8634,6.833,6.7678,6.7596,7.1158,7.2665,7.3116,7.3116,7.3206,7.3343,7.3343,7.3343,7.3343,7.3343,7.3343,7.3283,7.3146,7.2595,7.2072,7.1923,7.1474,7.047,6.8361,6.6954,0.0,0.0,0.0,0.0,0.0,0.0,0.0,0.0,0.0,0.0,0.0,0.0,0.0,0.0,0.0,0.0,6.637,6.5351,0.0,0.0,7.0648,7.0845,7.1132,0.0,7.1457,7.2132,7.2132,7.2744,7.3881,7.3881,7.4257,7.4886,7.4886,7.4886,7.4886,7.4886,7.4886,7.4886,7.4886,7.4886,7.4886,7.4886,7.4886,7.4886,4.8962,0.0,5.0426,5.1741,5.4122,5.5929,5.6275,5.8077,5.939,5.9248,5.9267,5.9292,5.9292,5.9409,5.9483,5.9483,5.9483,5.9483,5.9483,5.9483,5.9483,5.9483,5.9483,5.9483,5.9483,5.9483,5.7825,0.0,0.0,4.9721,4.8142,4.6208,4.7316,5.0953,5.1818,5.4903,5.9545,6.0575,6.3109,6.6404,6.6698,6.5784,6.4201,6.4254,6.3329,6.1984,6.1793,6.3026,6.4809,6.525,6.7239,6.9635,7.0042,7.1836,7.3821,7.3821,7.4257,7.4706,7.4706,7.4706,7.4706,7.4706,7.4706,7.4557,7.3941,7.3283,7.2624,7.2042,7.1863,7.1025,6.8466,7.0726,7.1607,0.0,0.0,0.0,0.0,0.0,0.0,0.0,0.0,0.0,0.0,0.0,0.0,0.0,6.1822,0.0,0.0,0.0,0.0,7.2583,7.0952,7.0614,7.189,7.1853,7.2146,7.2817,7.2817,7.3193,7.3881,7.3881,7.4257,7.4886,7.4886,7.4886,7.4886,7.4886,7.4886,7.4886,7.4886,7.4886,7.4886,7.4886,7.4886,7.4886,5.2394,5.2477,5.2937,5.4745,5.5673,5.6671,5.7976,5.893,5.9483,5.9483,5.9483,5.9483,5.9483,5.9483,5.9483,5.9483,5.9483,5.9483,5.9483,5.9483,5.9483,5.9483,5.9483,5.9483,5.9483,5.9483,5.807,0.0,0.0,5.0044,4.826,4.7438,4.9193,5.3098,5.4619,5.6469,5.8545,6.0389,6.1662,6.2536,6.3542,6.3298,6.2389,6.3041,6.3549,6.3806,6.2588,6.345,6.5184,6.5402,6.7733,7.0635,7.0992,7.2671,7.4497,7.4497,7.4676,7.4886,7.4886,7.4886,7.4886,7.4886,7.4886,7.4826,7.4557,7.3971,7.3432,7.318,7.2461,7.1713,7.1068,7.0636,7.0516,7.1038,0.0,0.0,0.0,0.0,0.0,0.0,0.0,0.0,0.0,0.0,0.0,0.0,0.0,0.0,0.0,0.0,0.0,7.0502,7.0531,7.0939,7.1926,7.1917,7.2432,7.3492,7.3492,7.3851,7.4497,7.4497,7.4646,7.4886,7.4886,7.4886,7.4886,7.4886,7.4886,7.4886,7.4886,7.4886,7.4886,7.4886,7.4886,7.4886,5.5132,5.4963,5.5322,5.738,5.7405,5.77,5.9257,5.9483,5.9558,5.9709,5.9734,5.9684,5.9508,5.9483,5.9483,5.9483,5.9483,5.9483,5.9483,5.9483,5.9483,5.9483,5.9483,0.0,5.9483,5.9483,5.8554,5.6614,5.3851,5.1858,5.0634,5.0379,5.2166,5.5692,5.702,5.7923,5.8554,6.0236,6.0563,6.0111,6.1466,6.1768,6.1562,6.245,6.3685,6.4731,6.3326,6.4103,6.5706,6.5121,6.7756,7.1244,7.1081,7.2385,7.4033,7.4033,7.4443,7.4886,7.4886,7.4886,7.4886,7.4886,7.4886,7.4886,7.4886,7.4377,7.3851,7.3642,7.2834,7.2325,7.2817,7.1174,7.0456,7.2654,0.0,0.0,0.0,0.0,0.0,0.0,0.0,0.0,6.9961,0.0,0.0,0.0,0.0,0.0,0.0,0.0,0.0,0.0,0.0,0.0,7.2502,7.2496,7.306,7.418,7.418,7.4437,7.4886,7.4886,7.4886,7.4886,7.4886,7.4886,7.4886,7.4886,7.4886,7.4886,7.4886,7.4886,7.4886,7.4886,7.4886,7.4886,5.6652,5.696,5.7506,5.9182,5.9458,5.9458,5.9483,5.9483,5.9684,6.0217,6.0292,6.0091,5.9558,5.9483,5.9483,5.9483,5.9483,5.9483,5.9483,5.9483,5.9483,5.9483,5.9483,5.9483,5.9483,5.9483,5.9483,5.9433,0.0,5.57,5.6373,5.5505,5.6532,5.9016,5.8512,5.9344,6.1104,6.0537,6.0663,6.1235,6.1768,6.1994,6.2044,6.2601,6.2822,6.2822,6.2802,6.4103,6.5516,6.3503,6.686,7.1521,6.956,7.0319,7.1927,7.1927,7.3345,7.4886,7.4886,7.4886,7.4886,7.4886,7.4886,7.4886,7.4886,7.4377,7.3702,7.3057,7.2907,7.2877,7.2907,7.3402,7.3193,7.1248,7.315,0.0,0.0,0.0,0.0,0.0,6.7687,6.7073,6.9646,0.0,0.0,0.0,0.0,0.0,0.0,0.0,0.0,7.3833,7.1951,0.0,7.3956,7.3927,7.4227,7.4886,7.4886,7.4886,7.4886,7.4886,7.4886,7.4886,7.4886,7.4886,7.4886,7.4886,7.4886,7.4886,7.4886,7.4886,7.4886,7.4886,7.4886,7.4886,5.8133,5.8434,5.8755,5.8911,5.9257,5.9608,6.001,6.006,6.0261,6.0839,6.0914,6.0839,6.0683,6.0658,6.0658,6.0658,6.0658,6.0658,6.0658,6.0658,6.0658,6.0658,6.0261,6.006,6.006,6.006,6.006,6.006,5.8077,5.7219,5.7425,5.6362,5.7548,6.05,5.9916,6.0002,6.0613,6.0814,6.0563,6.0155,6.1466,6.1793,6.1542,6.245,6.2802,6.2802,6.2802,6.3204,6.3861,6.4591,6.522,6.6078,6.8208,7.1224,7.3934,7.3934,7.4409,7.4886,7.4886,7.4886,7.4886,7.4886,7.4886,7.4886,7.4886,7.4736,7.4527,7.4317,7.3881,7.3582,7.3582,7.3402,7.2997,7.2368,7.2984,7.3462,7.33,0.0,7.3522,0.0,7.2581,7.2402,0.0,7.1128,0.0,0.0,0.0,0.0,0.0,0.0,0.0,0.0,7.1898,0.0,7.3925,7.3924,7.4257,7.4886,7.4886,7.4886,7.4886,7.4886,7.4886,7.4886,7.4886,7.4886,7.4886,7.4886,7.4886,7.4886,7.4886,7.4886,7.4886,7.4886,7.4886,7.4886,5.9106,5.9282,5.9382,5.9056,5.9438,5.9859,5.9985,6.0362,6.0688,6.0839,6.1215,6.1492,6.1492,6.1667,6.1642,6.1235,6.121,6.121,6.121,6.121,6.121,6.121,6.0839,6.0638,6.0638,6.0638,6.0638,6.0638,5.9633,5.9151,5.9106,5.8403,5.9182,6.1185,6.0588,6.0292,6.0317,6.0487,6.0261,5.991,6.119,6.1617,6.1612,6.2476,6.2802,6.2802,6.2802,6.2802,6.3006,6.4237,6.4486,6.4847,6.8192,7.1646,7.4374,7.3907,7.4293,7.4886,7.4886,7.4886,7.4886,7.4886,7.4886,7.4886,7.4886,7.4886,7.4886,7.4886,7.4557,7.4197,7.3941,7.3762,7.3582,7.3313,7.3492,7.3791,7.4227,7.4061,7.3599,0.0,0.0,0.0,0.0,7.1414,7.0636,0.0,0.0,0.0,0.0,0.0,7.029,7.1351,7.2624,7.3612,7.4287,7.4287,7.4497,7.4886,7.4886,7.4886,7.4886,7.4886,7.4886,7.4886,7.4886,7.4886,7.4886,7.4886,7.4886,7.4886,7.4886,7.4886,7.4886,7.4886,7.4886,7.4886,5.9558,5.9458,5.9483,5.9433,5.991,6.0091,5.9633,6.0487,6.0989,6.0442,6.1321,6.1994,6.1994,6.24,6.23,6.1336,6.1285,6.1311,6.1311,6.1311,6.1311,6.1311,6.1285,6.126,6.126,6.126,6.126,6.126,6.121,6.121,6.121,6.116,6.1135,6.111,6.0512,6.0242,6.0217,5.9759,5.9859,6.0367,6.104,6.1592,6.2119,6.2701,6.2927,6.2927,6.2927,6.2927,6.2948,6.3086,6.4741,6.7157,6.9387,7.1757,7.3489,7.2468,7.3521,7.4946,7.4916,7.4886,7.4886,7.4886,7.4886,7.4886,7.4886,7.4886,7.4886,7.4886,7.4886,7.4706,7.4061,7.4437,7.4616,7.4001,7.4377,7.4766,7.4826,7.4287,7.2774,6.9782,6.887,6.8466,6.8466,6.9019,7.056,0.0,0.0,0.0,0.0,0.0,7.0007,7.3868,7.3971,7.4287,7.4886,7.4886,7.4886,7.4886,7.4886,7.4886,7.4886,7.4886,7.4886,7.4886,7.4886,7.4886,7.4886,7.4886,7.4886,7.4886,7.4886,7.4886,7.4886,7.4886,7.4886,7.4886,5.8987,5.9232,5.9357,5.8961,5.9313,5.9784,6.0066,6.0738,6.116,6.1009,6.1592,6.1994,6.1994,6.1743,6.1642,6.1793,6.2174,6.2425,6.2425,6.2425,6.2425,6.2425,6.2044,6.1818,6.1818,6.1818,6.1818,6.1818,6.1411,6.121,6.1185,6.0738,6.0493,6.0493,5.9935,5.9684,5.9709,6.001,6.0166,6.0417,6.1848,6.2501,6.2727,6.3701,6.4099,6.4099,6.4099,6.4099,6.4344,6.5992,6.6954,6.8093,7.1719,7.328,7.3924,7.4728,7.5287,7.5557,7.5035,7.4886,7.4886,7.4886,7.4886,7.4886,7.4886,7.4886,7.4886,7.4886,7.4886,7.4856,7.4676,7.4377,7.4061,7.3911,7.3612,7.3552,7.4061,7.4001,7.3791,7.3539,7.3359,7.327,7.327,7.297,7.2415,0.0,0.0,7.1653,7.1174,7.1025,7.2102,7.4587,7.4646,7.4736,7.4886,7.4886,7.4886,7.4886,7.4886,7.4886,7.4886,7.4886,7.4886,7.4886,7.4886,7.4886,7.4886,7.4886,7.4886,7.4886,7.4886,7.4886,7.4886,7.4886,7.4886,7.4886,5.9162,5.9307,5.9408,5.9131,5.9508,5.9885,5.9935,6.0638,6.1009,6.0487,6.1115,6.1542,6.1246,6.119,6.1336,6.1592,6.2124,6.2425,6.2425,6.2676,6.2802,6.2802,6.2526,6.2375,6.2375,6.2144,6.1893,6.1617,6.1361,6.1059,6.0788,6.0738,6.0563,6.0292,6.0286,6.0281,6.0306,6.0588,6.0995,6.1522,6.245,6.3103,6.3626,6.4249,6.435,6.4124,6.4124,6.4544,6.5311,6.679,6.8066,6.9696,7.315,7.4417,7.4913,7.6337,7.6365,7.5826,7.5455,7.5125,7.4886,7.4886,7.4886,7.4886,7.4886,7.4886,7.4886,7.4886,7.4886,7.4886,7.4886,7.4587,7.4377,7.4377,7.3552,7.3253,7.4227,7.3569,7.3359,7.4317,7.4151,7.3971,7.3971,7.3941,7.3432,7.2355,7.2565,7.2581,7.2252,7.291,7.3629,7.4407,7.4736,7.4886,7.4886,7.4886,7.5035,7.5347,7.5035,7.5215,7.5766,7.5467,7.5365,7.5365,7.5365,7.5185,7.4886,7.4886,7.4886,7.4886,7.4886,7.4886,7.4886,7.4886,7.4886,7.4886,5.9583,5.9483,5.9483,5.9483,5.9885,6.0035,5.9558,6.0406,6.0708,5.9633,6.0412,6.0864,6.0342,6.0688,6.0984,6.1059,6.1492,6.1818,6.1994,6.2501,6.2802,6.2802,6.2727,6.2676,6.2676,6.2049,6.1567,6.121,6.111,6.0839,6.0462,6.0939,6.0914,6.0442,6.0964,6.126,6.1336,6.1411,6.2019,6.2952,6.3028,6.3626,6.4496,6.4496,6.4224,6.3802,6.3802,6.477,6.6206,6.7097,6.9125,7.1777,7.4412,7.5644,7.633,7.7586,7.7113,7.6138,7.5946,7.5407,7.4916,7.5035,7.4976,7.4886,7.4886,7.4886,7.4886,7.4886,7.4886,7.4886,7.4886,7.4886,7.4796,7.4514,7.3732,7.3492,7.4317,7.324,7.2791,7.3911,7.3552,7.3206,7.3206,7.3642,7.3941,7.4031,7.4497,7.4796,7.4886,7.5006,7.4796,7.421,7.4766,7.5035,7.5035,7.4946,7.5245,7.5886,7.5335,7.5677,7.6779,7.6258,7.6006,7.5916,7.5916,7.5527,7.4916,7.5006,7.5035,7.5065,7.5155,7.5185,7.5185,7.5185,7.5185,7.5185,5.9508,5.9483,5.9483,5.9483,5.9558,5.9583,5.9508,6.0035,6.0191,5.9583,6.006,6.0392,6.0317,5.9985,5.9935,6.0392,6.0518,6.097,6.1943,6.2501,6.2802,6.2802,6.2375,6.2124,6.2124,6.1095,6.0788,6.121,6.0688,6.0663,6.104,6.116,6.116,6.104,6.116,6.1461,6.1918,6.235,6.2927,6.3601,6.4048,6.4325,6.4496,6.4496,6.4446,6.4396,6.4396,6.5611,6.7515,6.9452,7.1863,7.4461,7.6641,7.7789,7.8349,7.8597,7.81,7.7263,7.6168,7.5407,7.5035,7.5587,7.5335,7.4886,7.4886,7.4886,7.4886,7.4886,7.4886,7.4886,7.4886,7.4886,7.4347,7.2641,7.3629,7.4078,7.2581,7.3569,7.4497,7.4706,7.4646,7.4587,7.4587,7.4151,7.4121,7.4706,7.4317,7.4317,7.4856,7.5455,7.5707,7.5587,7.5707,7.5736,7.5736,7.5185,7.5245,7.5916,7.5796,7.6108,7.6779,7.6706,7.6377,7.5916,7.5916,7.5527,7.4946,7.5497,7.5736,7.5796,7.6317,7.6527,7.6527,7.6527,7.6527,7.6437,6.0337,6.0161,5.9935,5.9935,5.9684,5.9483,5.9483,5.9709,5.9784,5.9533,5.9709,5.9885,5.9885,5.9659,5.9583,5.9859,6.0116,6.0643,6.1517,6.1793,6.2199,6.2756,6.2275,6.1994,6.1994,6.1472,6.1215,6.121,6.0914,6.0914,6.121,6.1512,6.1617,6.1642,6.1943,6.2199,6.245,6.2701,6.3153,6.3701,6.3973,6.4249,6.4496,6.4496,6.4325,6.4073,6.4073,6.5874,6.8446,6.9769,7.2733,7.6065,7.7396,7.825,7.8807,7.8807,7.834,7.7574,7.6647,7.6168,7.5916,7.5916,7.5677,7.5335,7.4976,7.4886,7.4886,7.4886,7.4886,7.4886,7.4886,7.4886,7.4587,7.3659,7.3689,7.3732,7.3539,7.3689,7.4108,7.4796,7.4886,7.4886,7.4886,7.4616,7.4557,7.4886,7.4946,7.5108,7.5407,7.6036,7.6377,7.6377,7.6377,7.6377,7.6377,7.6096,7.6275,7.6933,7.6557,7.6916,7.7861,7.7484,7.7185,7.6933,7.6933,7.6544,7.5946,7.6258,7.6377,7.6407,7.6706,7.6779,7.6779,7.6779,7.6779,7.6766,6.111,6.0839,6.0512,6.0512,6.0161,5.9904,5.9904,5.9904,5.9904,5.9904,5.9759,5.9734,5.9885,5.9659,5.9608,5.9859,6.0161,6.0613,6.1361,6.1285,6.1667,6.2752,6.2275,6.1943,6.1818,6.1818,6.1667,6.1386,6.1386,6.1461,6.1567,6.1994,6.2195,6.2199,6.2626,6.2877,6.3003,6.3003,6.335,6.3898,6.3751,6.3948,6.43,6.4149,6.3847,6.35,6.35,6.5837,6.8998,6.9588,7.2934,7.6916,7.7574,7.825,7.8807,7.8807,7.843,7.7921,7.7394,7.7035,7.6706,7.6228,7.5988,7.5707,7.5035,7.4886,7.4886,7.4886,7.4886,7.4886,7.4886,7.4886,7.4753,7.4287,7.3732,7.3552,7.4108,7.3702,7.3762,7.4766,7.4886,7.4886,7.4886,7.5035,7.5125,7.5125,7.5736,7.6108,7.6108,7.6706,7.7095,7.7275,7.6976,7.6868,7.7035,7.6886,7.7155,7.7783,7.7275,7.7634,7.8759,7.828,7.7951,7.7801,7.7801,7.7424,7.6808,7.6976,7.7018,7.7065,7.7215,7.7275,7.7245,7.7095,7.7018,7.7006,6.1185,6.116,6.1135,6.1135,6.111,6.1085,6.1085,6.1085,6.1085,6.1085,6.0588,6.0462,6.1009,6.013,5.9929,6.0984,6.0613,6.0769,6.1868,6.1486,6.1667,6.2752,6.2275,6.1768,6.1285,6.126,6.1466,6.1943,6.1943,6.2195,6.2676,6.2727,6.2752,6.2752,6.2802,6.3103,6.3626,6.3626,6.3948,6.4396,6.3898,6.3726,6.3701,6.3128,6.2902,6.2877,6.2877,6.547,6.8998,6.9588,7.2934,7.6916,7.7574,7.825,7.8807,7.8807,7.8777,7.8717,7.8687,7.7753,7.6779,7.6719,7.6317,7.5707,7.5035,7.4886,7.4886,7.4886,7.4886,7.4886,7.4886,7.4886,7.4287,7.2432,7.3599,7.4138,7.2372,7.3629,7.4796,7.4886,7.4886,7.4886,7.4886,7.5467,7.5826,7.5826,7.6407,7.6719,7.6719,7.7365,7.8011,7.8639,7.7454,7.7095,7.7724,7.7125,7.7155,7.7801,7.7753,7.81,7.8807,7.8747,7.84,7.7801,7.7801,7.7424,7.6838,7.7484,7.7741,7.7801,7.84,7.8639,7.8579,7.7951,7.7741,7.7634,6.2144,6.1918,6.1692,6.1692,6.1416,6.121,6.121,6.121,6.121,6.121,6.0989,6.0939,6.1185,6.0808,6.0733,6.116,6.0989,6.119,6.1943,6.1818,6.1893,6.2275,6.2425,6.24,6.2199,6.2174,6.2275,6.2501,6.2501,6.2601,6.2802,6.2802,6.2802,6.2802,6.2802,6.2927,6.3128,6.3128,6.3274,6.3425,6.3203,6.3128,6.3103,6.2902,6.2802,6.2802,6.2802,6.5418,6.8998,6.9588,7.2934,7.6916,7.7574,7.825,7.8807,7.8807,7.8807,7.8807,7.8807,7.843,7.7861,7.7006,7.6647,7.6168,7.5125,7.4886,7.4886,7.4886,7.4886,7.4886,7.4886,7.4886,7.4646,7.3868,7.4407,7.4616,7.3868,7.4407,7.5035,7.5467,7.5527,7.5677,7.6036,7.6317,7.6467,7.6467,7.7065,7.7424,7.7424,7.8071,7.8519,7.8807,7.831,7.816,7.84,7.816,7.816,7.84,7.8011,7.816,7.8807,7.837,7.828,7.843,7.843,7.828,7.8071,7.831,7.843,7.846,7.8699,7.8807,7.8759,7.8519,7.816,7.7813,6.2727,6.2501,6.225,6.225,6.1943,6.1692,6.1692,6.1692,6.1692,6.1692,6.1562,6.1537,6.1692,6.1411,6.1336,6.1667,6.1542,6.1667,6.222,6.225,6.225,6.225,6.2601,6.2802,6.2802,6.2802,6.2802,6.2802,6.2802,6.2802,6.2802,6.2802,6.2802,6.2802,6.2802,6.2802,6.2802,6.2802,6.2802,6.2802,6.2802,6.2802,6.2802,6.2802,6.2802,6.2802,6.2802,6.5418,6.9026,6.9828,7.3078,7.6946,7.7861,7.843,7.8807,7.8807,7.8807,7.8807,7.8807,7.8807,7.8519,7.7394,7.6976,7.6527,7.5455,7.5035,7.4946,7.5155,7.5035,7.4946,7.5185,7.5035,7.4886,7.4886,7.5065,7.5215,7.5215,7.5395,7.5677,7.6108,7.6168,7.6258,7.6497,7.6886,7.6946,7.6557,7.7305,7.7801,7.7801,7.843,7.8807,7.8807,7.8807,7.8807,7.8807,7.8807,7.8807,7.8789,7.834,7.834,7.8759,7.831,7.837,7.8807,7.8807,7.8807,7.8807,7.8807,7.8687,7.8489,7.8489,7.837,7.816,7.816,7.7891,7.7544,6.2802,6.2802,6.2802,6.2802,6.2802,6.2802,6.2802,6.2802,6.2802,6.2802,6.2325,6.2199,6.2752,6.1843,6.1642,6.2701,6.23,6.2225,6.2777,6.2802,6.2802,6.2802,6.2802,6.2802,6.2802,6.2802,6.2802,6.2802,6.2802,6.2802,6.2802,6.2802,6.2802,6.2802,6.2802,6.2802,6.2802,6.2802,6.2802,6.2802,6.2802,6.2802,6.2802,6.2802,6.2802,6.2802,6.2802,6.5398,6.9062,7.0383,7.3469,7.7018,7.837,7.8807,7.8807,7.8807,7.8807,7.8807,7.8807,7.8807,7.8639,7.7981,7.7305,7.6647,7.6048,7.5395,7.5095,7.5766,7.5395,7.5125,7.5796,7.5347,7.4916,7.4916,7.5467,7.5916,7.5916,7.6407,7.6779,7.6779,7.6779,7.6557,7.5976,7.7053,7.7263,7.5988,7.7083,7.7783,7.7801,7.843,7.8789,7.8807,7.8807,7.8807,7.8807,7.8807,7.8807,7.8807,7.8807,7.8807,7.8807,7.8807,7.8807,7.8807,7.8807,7.8807,7.8807,7.8789,7.84,7.7813,7.7801,7.7394,7.6808,7.6779,7.6779,7.6779,6.2802,6.2802,6.2802,6.2802,6.2802,6.2802,6.2802,6.2802,6.2802,6.2802,6.2676,6.2626,6.2802,6.2501,6.245,6.2756,6.2651,6.2626,6.2802,6.2802,6.2802,6.2802,6.2802,6.2802,6.2802,6.2802,6.2802,6.2802,6.2802,6.2802,6.2802,6.2802,6.2802,6.2802,6.2802,6.2802,6.2802,6.2802,6.2802,6.2802,6.2802,6.2802,6.2802,6.2802,6.2802,6.2802,6.2802,6.4497,6.7152,6.9876,7.2244,7.4468,7.6688,7.7724,7.81,7.81,7.843,7.8807,7.8807,7.8807,7.8639,7.7981,7.7634,7.7335,7.6676,7.6377,7.6288,7.6497,7.6377,7.6288,7.6497,7.6377,7.6228,7.6228,7.6407,7.6527,7.6527,7.6706,7.6779,7.6779,7.6779,7.6719,7.6557,7.6886,7.6946,7.6557,7.6886,7.7305,7.7753,7.7981,7.831,7.8807,7.8807,7.8807,7.8807,7.8807,7.8549,7.81,7.7604,7.7634,7.81,7.7604,7.7921,7.8807,7.8807,7.8807,7.8759,7.828,7.825,7.84,7.7454,7.7275,7.7454,7.6958,7.6527,7.6228,6.2802,6.2802,6.2802,6.2802,6.2802,6.2802,6.2802,6.2802,6.2802,6.2802,6.2802,6.2802,6.2802,6.2802,6.2802,6.2802,6.2802,6.2802,6.2802,6.2802,6.2802,6.2802,6.2802,6.2802,6.2802,6.2802,6.2802,6.2802,6.2802,6.2802,6.2802,6.2802,6.2802,6.2802,6.2802,6.2802,6.2802,6.2802,6.2802,6.2802,6.2802,6.2802,6.2802,6.2802,6.2802,6.2802,6.2802,6.4617,6.7369,6.964,7.2186,7.473,7.6294,7.7095,7.7454,7.7724,7.81,7.846,7.8747,7.8807,7.8699,7.831,7.8011,7.7694,7.7305,7.7006,7.6886,7.7155,7.6958,7.6886,7.7155,7.6976,7.6779,7.6779,7.7035,7.7215,7.7215,7.7424,7.7484,7.7245,7.7215,7.7006,7.6497,7.6659,7.6706,7.6467,7.6437,7.6617,7.7023,7.7532,7.7981,7.84,7.8639,7.8807,7.8807,7.8807,7.846,7.7801,7.7664,7.7664,7.7801,7.7634,7.8041,7.8807,7.8519,7.84,7.837,7.7981,7.7741,7.7592,7.7035,7.6736,7.6634,7.6497,7.6198,7.5929,6.2802,6.2802,6.2802,6.2802,6.2802,6.2802,6.2802,6.2802,6.2802,6.2802,6.2802,6.2802,6.2802,6.2802,6.2802,6.2802,6.2802,6.2802,6.2802,6.2802,6.2802,6.2802,6.2802,6.2802,6.2802,6.2802,6.2802,6.2802,6.2802,6.2802,6.2802,6.2802,6.2802,6.2802,6.2802,6.2802,6.2802,6.2802,6.2802,6.2802,6.2802,6.2802,6.2802,6.2802,6.2802,6.2802,6.2802,6.5325,6.8763,6.9684,7.2976,7.6719,7.6719,7.6766,7.6928,7.7604,7.7861,7.8041,7.8639,7.8807,7.8807,7.8807,7.834,7.7891,7.7891,7.7424,7.7155,7.7753,7.7394,7.7185,7.7801,7.7394,7.6976,7.6976,7.7484,7.7861,7.7813,7.834,7.843,7.7741,7.7634,7.7143,7.5946,7.6317,7.6407,7.5856,7.5826,7.5856,7.5958,7.7065,7.7771,7.7891,7.8489,7.8759,7.8699,7.8759,7.846,7.7813,7.843,7.84,7.7813,7.843,7.8747,7.8759,7.81,7.7801,7.7801,7.7724,7.7023,7.6018,7.6527,7.6006,7.5065,7.5617,7.5826,7.5826,6.2802,6.2802,6.2802,6.2802,6.2802,6.2802,6.2802,6.2802,6.2802,6.2802,6.2802,6.2802,6.2802,6.2802,6.2802,6.2802,6.2802,6.2802,6.2802,6.2802,6.2802,6.2802,6.2802,6.2802,6.2802,6.2802,6.2802,6.2802,6.2802,6.2802,6.2802,6.2802,6.2802,6.2802,6.2802,6.2802,6.2802,6.2802,6.2802,6.2802,6.2802,6.2802,6.2802,6.2802,6.2802,6.2802,6.2802,6.4378,6.6991,7.0331,7.3518,7.6096,7.6096,7.6407,7.6928,7.7604,7.816,7.8609,7.8759,7.8807,7.8807,7.8807,7.8687,7.8579,7.8579,7.846,7.84,7.8549,7.846,7.84,7.8549,7.846,7.837,7.837,7.8489,7.84,7.7873,7.7921,7.7592,7.6455,7.6288,7.6006,7.5185,7.5245,7.5275,7.5125,7.5125,7.5557,7.6557,7.6886,7.7484,7.8549,7.8699,7.8549,7.8041,7.8519,7.846,7.7801,7.7951,7.7951,7.7801,7.7951,7.831,7.8759,7.81,7.7801,7.7753,7.7245,7.6838,7.6587,7.6228,7.5946,7.5647,7.5275,7.5125,7.5125,6.2802,6.2802,6.2802,6.2802,6.2802,6.2802,6.2802,6.2802,6.2802,6.2802,6.2802,6.2802,6.2802,6.2802,6.2802,6.2802,6.2802,6.2802,6.2802,6.2802,6.2802,6.2802,6.2802,6.2802,6.2802,6.2802,6.2802,6.2802,6.2802,6.2802,6.2802,6.2802,6.2802,6.2802,6.2802,6.2802,6.2802,6.2802,6.2802,6.2802,6.2802,6.2802,6.2802,6.2802,6.2802,6.2802,6.2802,6.4711,6.7904,7.1945,7.427,7.5407,7.5407,7.5856,7.6497,7.7125,7.7801,7.84,7.8699,7.8807,7.8807,7.8807,7.8807,7.8807,7.8807,7.8807,7.8807,7.8807,7.8807,7.8807,7.8807,7.8807,7.8699,7.837,7.831,7.81,7.7424,7.7335,7.6976,7.5988,7.5916,7.5647,7.4976,7.4886,7.4886,7.4886,7.4886,7.5335,7.6317,7.6647,7.7275,7.828,7.8639,7.846,7.7813,7.846,7.846,7.7801,7.813,7.7951,7.7335,7.7634,7.7831,7.7813,7.7173,7.6886,7.6874,7.6527,7.6168,7.5886,7.5916,7.5707,7.5395,7.5035,7.4886,7.4886,6.2802,6.2802,6.2802,6.2802,6.2802,6.2802,6.2802,6.2802,6.2802,6.2802,6.2802,6.2802,6.2802,6.2802,6.2802,6.2802,6.2802,6.2802,6.2802,6.2802,6.2802,6.2802,6.2802,6.2802,6.2802,6.2802,6.2802,6.2802,6.2802,6.2802,6.2802,6.2802,6.2802,6.2802,6.2802,6.2802,6.2802,6.2802,6.2802,6.2802,6.2802,6.2802,6.2802,6.2802,6.2802,6.2802,6.2802,6.5418,6.9449,7.3152,7.4616,7.4916,7.5035,7.5527,7.6168,7.6796,7.7454,7.81,7.8639,7.8807,7.8807,7.8807,7.8699,7.8627,7.8627,7.8717,7.8777,7.8639,7.8627,7.8579,7.846,7.846,7.828,7.7724,7.7634,7.7394,7.6736,7.6647,7.6407,7.5796,7.5736,7.5497,7.4946,7.4886,7.4886,7.4886,7.4886,7.5245,7.5988,7.6527,7.7155,7.7951,7.84,7.831,7.7634,7.828,7.828,7.7634,7.843,7.822,7.7155,7.7604,7.7484,7.6946,7.6198,7.5916,7.5916,7.5916,7.5497,7.4976,7.5647,7.5497,7.4886,7.4886,7.4886,7.4886,6.2802,6.2802,6.2802,6.2802,6.2802,6.2802,6.2802,6.2802,6.2802,6.2802,6.2802,6.2802,6.2802,6.2802,6.2802,6.2802,6.2802,6.2802,6.2802,6.2802,6.2802,6.2802,6.2802,6.2802,6.2802,6.2802,6.2802,6.2802,6.2802,6.2802,6.2802,6.2802,6.2802,6.2802,6.2802,6.2802,6.2802,6.2802,6.2802,6.2802,6.2802,6.2802,6.2802,6.2802,6.2802,6.2802,6.2802,6.5418,6.9244,7.1532,7.3451,7.5006,7.5587,7.6168,7.6826,7.7454,7.813,7.8669,7.8777,7.8807,7.8807,7.8807,7.837,7.7951,7.7951,7.837,7.8639,7.8041,7.7951,7.7753,7.7185,7.7065,7.7035,7.6946,7.6946,7.6736,7.6125,7.6018,7.5766,7.5095,7.5035,7.5006,7.4916,7.4886,7.4886,7.4886,7.4886,7.5407,7.6617,7.6766,7.7365,7.8627,7.819,7.7604,7.6946,7.7604,7.7604,7.6946,7.819,7.8717,7.8519,7.8041,7.7753,7.7604,7.6425,7.5916,7.5916,7.5916,7.5497,7.4976,7.5647,7.5497,7.4886,7.4886,7.4886,7.4886,6.2802,6.2802,6.2802,6.2802,6.2802,6.2802,6.2802,6.2802,6.2802,6.2802,6.2802,6.2802,6.2802,6.2802,6.2802,6.2802,6.2802,6.2802,6.2802,6.2802,6.2802,6.2802,6.2802,6.2802,6.2802,6.2802,6.2802,6.2802,6.2802,6.2802,6.2802,6.2802,6.2802,6.2802,6.2802,6.2802,6.2802,6.2802,6.2802,6.2802,6.2802,6.2802,6.2802,6.2802,6.2802,6.2965,6.4083,6.6371,6.9206,7.1213,7.324,7.4946,7.5245,7.5766,7.6407,7.7065,7.7741,7.831,7.8699,7.8807,7.8807,7.8807,7.8579,7.825,7.7891,7.8041,7.8041,7.7365,7.7245,7.7155,7.6838,7.6779,7.6706,7.6347,7.6288,7.6048,7.5437,7.5335,7.5245,7.4946,7.4886,7.4886,7.4886,7.4886,7.4886,7.4886,7.4886,7.5305,7.6258,7.6617,7.7245,7.822,7.7951,7.7484,7.6808,7.7095,7.7095,7.6808,7.7801,7.8041,7.7664,7.7365,7.6856,7.6155,7.5604,7.5335,7.5335,7.5335,7.5155,7.4916,7.5215,7.5155,7.4886,7.4886,7.4886,7.4886]},{"header":{"parameterUnit":"m.s-1","parameterCategory":1,"la1":30.6,"la2":28.766,"lo1":-90.7593,"lo2":-88.6598,"dx":0.0162,"dy":0.0183,"nx":116,"ny":114,"refTime":"2022-12-17T18:00:00:Z","depth":0,"parameterNumber":3,"parameterNumberName":"V-component_of_WINDS"},"data":[0.0,0.0,0.0,0.0,0.0,0.0,0.0,0.0,0.0,0.0,0.0,0.0,0.0,0.0,0.0,0.0,0.0,0.0,0.0,0.0,0.0,0.0,0.0,0.0,0.0,0.0,0.0,0.0,0.0,0.0,0.0,0.0,0.0,0.0,0.0,0.0,0.0,0.0,0.0,0.0,0.0,0.0,0.0,0.0,0.0,0.0,0.0,0.0,0.0,0.0,0.0,0.0,0.0,0.0,0.0,0.0,0.0,0.0,0.0,0.0,0.0,0.0,0.0,0.0,0.0,0.0,0.0,0.0,0.0,0.0,0.0,0.0,0.0,0.0,0.0,0.0,0.0,0.0,0.0,0.0,0.0,0.0,0.0,0.0,0.0,0.0,0.0,0.0,0.0,0.0,0.0,0.0,0.0,0.0,0.0,0.0,0.0,0.0,0.0,0.0,0.0,0.0,0.0,0.0,0.0,0.0,0.0,0.0,0.0,0.0,0.0,0.0,0.0,0.0,0.0,0.0,0.0,0.0,0.0,0.0,0.0,0.0,0.0,0.0,0.0,0.0,0.0,0.0,0.0,0.0,0.0,0.0,0.0,0.0,0.0,0.0,0.0,0.0,0.0,0.0,0.0,0.0,0.0,0.0,0.0,0.0,0.0,0.0,0.0,0.0,0.0,0.0,0.0,0.0,0.0,0.0,0.0,0.0,0.0,0.0,0.0,0.0,0.0,0.0,0.0,0.0,0.0,0.0,0.0,0.0,0.0,0.0,0.0,0.0,0.0,0.0,0.0,0.0,0.0,0.0,0.0,0.0,0.0,0.0,0.0,0.0,0.0,0.0,0.0,0.0,0.0,0.0,0.0,0.0,0.0,0.0,0.0,0.0,0.0,0.0,0.0,0.0,0.0,0.0,0.0,0.0,0.0,0.0,0.0,0.0,0.0,0.0,0.0,0.0,0.0,0.0,0.0,0.0,0.0,0.0,0.0,0.0,0.0,0.0,0.0,0.0,0.0,0.0,0.0,0.0,0.0,0.0,0.0,0.0,0.0,0.0,0.0,0.0,0.0,0.0,0.0,0.0,0.0,0.0,0.0,0.0,0.0,0.0,0.0,0.0,0.0,0.0,0.0,0.0,0.0,0.0,0.0,0.0,0.0,0.0,0.0,0.0,0.0,0.0,0.0,0.0,0.0,0.0,0.0,0.0,0.0,0.0,0.0,0.0,0.0,0.0,0.0,0.0,0.0,0.0,0.0,0.0,0.0,0.0,0.0,0.0,0.0,0.0,0.0,0.0,0.0,0.0,0.0,0.0,0.0,0.0,0.0,0.0,0.0,0.0,0.0,0.0,0.0,0.0,0.0,0.0,0.0,0.0,0.0,0.0,0.0,0.0,0.0,0.0,0.0,0.0,0.0,0.0,0.0,0.0,0.0,0.0,0.0,0.0,0.0,0.0,0.0,0.0,0.0,0.0,0.0,0.0,0.0,0.0,0.0,0.0,0.0,0.0,0.0,0.0,0.0,0.0,0.0,0.0,0.0,0.0,0.0,0.0,0.0,0.0,0.0,0.0,0.0,0.0,0.0,0.0,0.0,0.0,0.0,0.0,0.0,0.0,0.0,0.0,0.0,0.0,0.0,0.0,0.0,0.0,0.0,0.0,0.0,0.0,0.0,0.0,0.0,0.0,0.0,0.0,0.0,0.0,0.0,0.0,0.0,0.0,0.0,0.0,0.0,0.0,0.0,0.0,0.0,0.0,0.0,0.0,0.0,0.0,0.0,0.0,0.0,0.0,0.0,0.0,0.0,0.0,0.0,0.0,0.0,0.0,0.0,0.0,0.0,0.0,0.0,0.0,0.0,0.0,0.0,0.0,0.0,0.0,0.0,0.0,0.0,0.0,0.0,0.0,0.0,0.0,0.0,0.0,0.0,0.0,0.0,0.0,0.0,0.0,0.0,0.0,0.0,0.0,0.0,0.0,0.0,0.0,0.0,0.0,0.0,0.0,0.0,0.0,0.0,0.0,0.0,0.0,0.0,0.0,0.0,0.0,0.0,0.0,0.0,0.0,0.0,0.0,0.0,0.0,0.0,0.0,0.0,0.0,0.0,0.0,0.0,0.0,0.0,0.0,0.0,0.0,0.0,0.0,0.0,0.0,0.0,0.0,0.0,0.0,0.0,0.0,0.0,0.0,0.0,0.0,0.0,0.0,0.0,0.0,0.0,0.0,0.0,0.0,0.0,0.0,0.0,0.0,0.0,0.0,0.0,0.0,0.0,0.0,0.0,0.0,0.0,0.0,0.0,0.0,0.0,0.0,0.0,0.0,0.0,0.0,0.0,0.0,0.0,0.0,0.0,0.0,0.0,0.0,0.0,0.0,0.0,0.0,0.0,0.0,0.0,0.0,0.0,0.0,0.0,0.0,0.0,0.0,0.0,0.0,0.0,0.0,0.0,0.0,0.0,0.0,0.0,0.0,0.0,0.0,0.0,0.0,0.0,0.0,0.0,0.0,0.0,0.0,0.0,0.0,0.0,0.0,0.0,0.0,0.0,0.0,0.0,0.0,0.0,0.0,0.0,0.0,0.0,0.0,0.0,0.0,0.0,0.0,0.0,0.0,0.0,0.0,0.0,0.0,0.0,0.0,0.0,0.0,0.0,0.0,0.0,0.0,0.0,0.0,0.0,0.0,0.0,0.0,0.0,0.0,0.0,0.0,0.0,0.0,0.0,0.0,0.0,0.0,0.0,0.0,0.0,0.0,0.0,0.0,0.0,0.0,0.0,0.0,0.0,0.0,0.0,0.0,0.0,0.0,0.0,0.0,0.0,0.0,0.0,0.0,0.0,0.0,0.0,0.0,0.0,0.0,0.0,0.0,0.0,0.0,0.0,0.0,0.0,0.0,0.0,0.0,0.0,0.0,0.0,0.0,0.0,0.0,0.0,0.0,0.0,0.0,0.0,0.0,0.0,0.0,0.0,0.0,0.0,0.0,0.0,0.0,0.0,0.0,0.0,0.0,0.0,0.0,0.0,0.0,0.0,0.0,0.0,0.0,0.0,0.0,0.0,0.0,0.0,0.0,0.0,0.0,0.0,0.0,0.0,0.0,0.0,0.0,0.0,0.0,0.0,0.0,0.0,0.0,0.0,0.0,0.0,0.0,0.0,0.0,0.0,0.0,0.0,0.0,0.0,0.0,0.0,0.0,0.0,0.0,0.0,0.0,0.0,0.0,0.0,0.0,0.0,0.0,0.0,0.0,0.0,0.0,0.0,0.0,0.0,0.0,0.0,0.0,0.0,0.0,0.0,0.0,0.0,0.0,0.0,0.0,0.0,0.0,0.0,0.0,0.0,0.0,0.0,0.0,0.0,0.0,0.0,0.0,0.0,0.0,0.0,0.0,0.0,0.0,0.0,0.0,0.0,0.0,0.0,0.0,0.0,0.0,0.0,0.0,0.0,0.0,0.0,0.0,0.0,0.0,0.0,0.0,0.0,0.0,0.0,0.0,0.0,0.0,0.0,0.0,0.0,0.0,0.0,0.0,0.0,0.0,0.0,0.0,0.0,0.0,0.0,0.0,0.0,0.0,0.0,0.0,0.0,0.0,0.0,0.0,0.0,0.0,0.0,0.0,0.0,0.0,0.0,0.0,0.0,0.0,0.0,0.0,0.0,0.0,0.0,0.0,0.0,0.0,0.0,0.0,0.0,0.0,0.0,0.0,0.0,0.0,0.0,0.0,0.0,0.0,0.0,0.0,0.0,0.0,0.0,0.0,0.0,0.0,0.0,0.0,0.0,0.0,0.0,0.0,0.0,0.0,0.0,0.0,0.0,0.0,0.0,0.0,0.0,0.0,0.0,0.0,0.0,0.0,0.0,0.0,0.0,0.0,0.0,0.0,0.0,0.0,0.0,0.0,0.0,0.0,0.0,0.0,0.0,0.0,0.0,0.0,0.0,0.0,0.0,0.0,0.0,0.0,0.0,0.0,0.0,0.0,0.0,0.0,0.0,0.0,0.0,0.0,0.0,0.0,0.0,0.0,0.0,0.0,0.0,0.0,0.0,0.0,0.0,0.0,0.0,0.0,0.0,0.0,0.0,0.0,0.0,0.0,0.0,0.0,0.0,0.0,0.0,0.0,0.0,0.0,0.0,0.0,0.0,0.0,0.0,0.0,0.0,0.0,0.0,0.0,0.0,0.0,0.0,0.0,0.0,0.0,0.0,0.0,0.0,0.0,0.0,0.0,0.0,0.0,0.0,0.0,0.0,0.0,0.0,0.0,0.0,0.0,0.0,0.0,0.0,0.0,0.0,0.0,0.0,0.0,0.0,0.0,0.0,0.0,0.0,0.0,0.0,0.0,0.0,0.0,0.0,0.0,0.0,0.0,0.0,0.0,0.0,0.0,0.0,0.0,0.0,0.0,0.0,0.0,0.0,0.0,0.0,0.0,0.0,0.0,0.0,0.0,0.0,0.0,0.0,0.0,0.0,0.0,0.0,0.0,0.0,0.0,0.0,0.0,0.0,0.0,0.0,0.0,0.0,0.0,0.0,0.0,0.0,0.0,0.0,0.0,0.0,0.0,0.0,0.0,0.0,0.0,0.0,0.0,0.0,0.0,0.0,0.0,0.0,0.0,0.0,0.0,0.0,0.0,0.0,0.0,0.0,0.0,0.0,0.0,0.0,0.0,0.0,0.0,0.0,0.0,0.0,0.0,0.0,0.0,0.0,0.0,0.0,0.0,0.0,0.0,0.0,0.0,0.0,0.0,0.0,0.0,0.0,0.0,0.0,0.0,0.0,0.0,0.0,0.0,0.0,0.0,0.0,0.0,0.0,0.0,0.0,0.0,0.0,0.0,0.0,0.0,0.0,0.0,0.0,0.0,0.0,0.0,0.0,0.0,0.0,0.0,0.0,0.0,0.0,0.0,0.0,0.0,0.0,0.0,0.0,0.0,0.0,0.0,0.0,0.0,0.0,0.0,0.0,0.0,0.0,0.0,0.0,0.0,0.0,0.0,0.0,0.0,0.0,0.0,0.0,0.0,0.0,0.0,0.0,0.0,0.0,0.0,0.0,0.0,0.0,0.0,0.0,0.0,0.0,0.0,0.0,0.0,0.0,0.0,0.0,0.0,0.0,0.0,0.0,0.0,0.0,0.0,0.0,0.0,0.0,0.0,0.0,0.0,0.0,0.0,0.0,0.0,0.0,0.0,0.0,0.0,0.0,0.0,0.0,0.0,0.0,0.0,0.0,0.0,0.0,0.0,0.0,0.0,0.0,0.0,0.0,0.0,0.0,0.0,0.0,0.0,0.0,0.0,0.0,0.0,0.0,0.0,0.0,0.0,0.0,0.0,0.0,0.0,0.0,0.0,0.0,0.0,0.0,0.0,0.0,0.0,0.0,0.0,0.0,0.0,0.0,0.0,0.0,0.0,0.0,0.0,0.0,0.0,0.0,0.0,0.0,0.0,0.0,0.0,0.0,0.0,0.0,0.0,0.0,0.0,0.0,0.0,0.0,0.0,0.0,0.0,0.0,0.0,0.0,0.0,0.0,0.0,0.0,0.0,0.0,0.0,0.0,0.0,0.0,0.0,0.0,0.0,0.0,0.0,0.0,0.0,0.0,0.0,0.0,0.0,0.0,0.0,0.0,0.0,0.0,0.0,0.0,0.0,0.0,0.0,0.0,0.0,0.0,0.0,0.0,0.0,0.0,0.0,0.0,0.0,0.0,0.0,0.0,0.0,0.0,0.0,0.0,0.0,0.0,0.0,0.0,0.0,0.0,0.0,0.0,0.0,0.0,0.0,0.0,0.0,0.0,0.0,0.0,0.0,0.0,0.0,0.0,0.0,0.0,0.0,0.0,0.0,0.0,0.0,0.0,0.0,0.0,0.0,0.0,0.0,0.0,0.0,0.0,0.0,0.0,0.0,0.0,0.0,0.0,0.0,0.0,0.0,0.0,0.0,0.0,0.0,0.0,0.0,0.0,0.0,0.0,0.0,0.0,0.0,0.0,0.0,0.0,0.0,0.0,0.0,0.0,0.0,0.0,0.0,0.0,0.0,0.0,0.0,0.0,0.0,0.0,0.0,0.0,0.0,0.0,0.0,0.0,0.0,0.0,0.0,0.0,0.0,1.576,1.5188,0.0,0.0,0.0,0.0,0.0,0.0,0.0,0.0,0.0,0.0,0.0,0.0,0.0,0.0,0.0,0.0,0.0,0.0,0.0,0.0,0.0,0.0,0.0,1.6767,1.6813,1.6494,1.6172,0.0,0.0,0.0,0.0,0.0,0.0,0.0,0.0,0.0,1.3098,1.347,1.4651,1.6007,1.7449,1.6569,1.5543,1.4402,0.0,0.0,0.0,0.0,0.0,0.0,0.0,0.0,0.0,0.0,0.0,0.0,0.0,0.0,0.0,0.0,0.0,0.0,0.0,0.0,0.0,0.0,0.0,0.0,0.0,0.0,0.0,0.0,0.0,0.0,0.0,0.0,0.0,0.0,0.0,0.0,0.0,0.0,0.0,0.0,0.0,0.0,0.0,0.0,0.0,0.0,0.0,0.0,0.0,0.0,0.0,0.0,0.0,0.0,0.0,0.0,0.0,0.0,0.0,0.0,0.0,0.0,0.0,0.0,0.0,0.0,0.0,0.0,0.0,0.0,1.6111,1.5872,0.0,0.0,0.0,0.0,0.0,0.0,0.0,0.0,0.0,0.0,0.0,0.0,0.0,0.0,0.0,0.0,0.0,0.0,0.0,0.0,0.0,1.6531,1.6636,1.7105,1.7443,1.7543,1.6912,1.6432,1.6268,1.487,0.0,0.0,0.0,0.0,1.3007,1.3001,1.3572,1.4725,1.7127,1.9047,2.0535,2.0535,1.9366,1.7221,1.5529,0.0,0.0,0.0,0.0,0.0,0.0,0.0,0.0,0.0,0.0,0.0,0.0,0.0,0.0,0.0,0.0,0.0,0.0,0.0,0.0,0.0,0.0,0.0,0.0,0.0,0.0,0.0,0.0,0.0,0.0,0.0,0.0,0.0,0.0,0.0,0.0,0.0,0.0,0.0,0.0,0.0,0.0,0.0,0.0,0.0,0.0,0.0,0.0,0.0,0.0,0.0,0.0,0.0,0.0,0.0,0.0,0.0,0.0,0.0,0.0,0.0,0.0,0.0,1.6142,1.6168,1.6115,1.6115,1.6539,1.722,1.6446,1.6687,1.7515,1.6461,0.0,0.0,0.0,0.0,0.0,0.0,0.0,0.0,0.0,0.0,0.0,0.0,0.0,0.0,0.0,0.0,0.0,0.0,0.0,1.6687,1.7211,1.7336,1.7593,1.8047,1.7424,1.6613,1.5682,1.5298,0.0,0.0,0.0,1.3599,1.3424,1.3418,1.4659,1.7226,2.1119,2.3293,2.3879,2.3879,2.3206,2.1876,1.8848,1.7492,1.7414,0.0,0.0,0.0,0.0,0.0,0.0,0.0,0.0,0.0,0.0,0.0,0.0,0.0,0.0,0.0,0.0,0.0,0.0,0.0,0.0,0.0,0.0,0.0,0.0,0.0,0.0,0.0,0.0,0.0,0.0,0.0,0.0,0.0,0.0,0.0,0.0,0.0,0.0,0.0,0.0,0.0,1.6371,1.6049,0.0,0.0,0.0,0.0,0.0,0.0,0.0,0.0,0.0,0.0,0.0,0.0,0.0,1.9092,1.809,1.8716,1.8356,1.7019,1.7489,1.7582,1.7368,1.7368,1.7421,1.7541,1.7421,0.0,1.7582,1.718,0.0,0.0,0.0,0.0,0.0,0.0,0.0,0.0,0.0,0.0,0.0,0.0,0.0,0.0,0.0,0.0,0.0,0.0,0.0,0.0,0.0,1.8504,1.9359,1.9579,1.9868,1.9585,1.8492,1.7725,0.0,0.0,1.4644,1.4354,1.3841,1.5172,1.8217,2.3045,2.5347,2.7119,2.8389,2.8389,2.7455,2.5757,2.4315,2.2167,1.9532,1.8121,0.0,0.0,0.0,0.0,0.0,0.0,0.0,0.0,0.0,0.0,0.0,0.0,0.0,0.0,0.0,0.0,0.0,0.0,0.0,0.0,0.0,0.0,0.0,0.0,0.0,0.0,0.0,0.0,0.0,0.0,0.0,0.0,0.0,0.0,0.0,0.0,0.0,0.0,0.0,1.5585,1.5851,1.5804,1.5329,1.5003,0.0,0.0,0.0,0.0,0.0,0.0,0.0,0.0,0.0,2.0021,2.1149,2.0975,1.9332,2.0322,1.9754,1.7649,1.8076,1.8223,1.8103,1.8103,1.8103,1.8103,1.8103,1.8103,1.8063,1.7447,1.7032,1.6791,0.0,0.0,0.0,0.0,1.6139,1.5964,0.0,0.0,0.0,0.0,0.0,0.0,0.0,0.0,0.0,0.0,0.0,0.0,1.8197,2.0082,2.1388,2.1539,2.2219,2.2099,2.0761,1.9811,1.829,1.6038,1.5806,1.5322,1.4446,1.7657,2.2055,2.7594,2.8831,3.0264,3.1821,3.1821,3.0725,2.8751,2.8751,2.6343,2.2244,2.0754,1.9825,1.9177,0.0,0.0,0.0,0.0,0.0,0.0,0.0,0.0,0.0,0.0,0.0,0.0,0.0,0.0,0.0,0.0,0.0,0.0,0.0,0.0,0.0,0.0,0.0,0.0,0.0,0.0,0.0,0.0,0.0,0.0,0.0,0.0,0.0,0.0,0.0,0.0,0.0,1.5588,1.5959,1.5996,1.6077,1.6058,0.0,0.0,0.0,0.0,0.0,0.0,2.083,2.1233,2.1672,2.2211,2.3391,2.3092,2.1186,2.229,2.1631,1.9252,1.9125,1.9057,1.9044,1.8671,1.8504,1.8504,1.8504,1.8504,1.8451,1.7796,1.7474,1.7381,1.7128,1.6873,1.6672,1.6928,1.6914,1.6806,0.0,0.0,0.0,0.0,0.0,0.0,0.0,0.0,0.0,0.0,0.0,1.9321,2.0421,2.1988,2.3203,2.3778,2.3716,2.2774,2.073,2.0433,1.8802,1.5405,1.6492,1.6615,1.5361,2.0882,2.5377,2.862,3.0908,3.2352,3.3004,3.3004,3.2096,3.0457,3.0457,2.8894,2.6139,2.4777,2.3354,2.1781,1.9249,0.0,0.0,0.0,0.0,0.0,0.0,0.0,0.0,0.0,0.0,0.0,0.0,0.0,0.0,0.0,0.0,0.0,0.0,0.0,0.0,0.0,0.0,0.0,0.0,0.0,0.0,0.0,0.0,0.0,0.0,0.0,0.0,0.0,0.0,0.0,0.0,0.0,0.0,1.7647,1.7926,0.0,0.0,0.0,0.0,2.0619,2.0669,2.0823,2.1159,2.2445,2.3304,2.3578,2.5319,2.554,2.4094,2.4587,2.4101,2.2636,2.1246,2.06,2.0546,1.914,1.8504,1.8504,1.8504,1.8504,1.8504,1.8437,1.825,1.7956,1.7929,1.7769,1.7568,1.7836,1.7929,1.7956,0.0,0.0,0.0,1.7839,1.7084,1.6505,1.6505,1.6505,1.6581,1.6787,1.8393,1.9811,2.0623,2.3449,2.5368,2.5586,2.6489,2.6284,2.4524,2.3337,2.1784,1.9662,1.9057,1.9902,2.2288,2.544,2.8871,3.2553,3.3389,3.4299,3.5212,3.4826,3.3962,3.2715,3.2355,3.1062,2.9002,2.7118,2.5276,2.3517,2.1602,1.9081,0.0,0.0,0.0,0.0,0.0,0.0,0.0,0.0,0.0,0.0,0.0,0.0,0.0,0.0,0.0,0.0,0.0,0.0,0.0,0.0,0.0,0.0,0.0,0.0,0.0,0.0,0.0,0.0,0.0,0.0,0.0,0.0,0.0,0.0,0.0,0.0,0.0,1.9789,1.9962,0.0,1.9926,2.0502,2.1288,2.2264,2.2547,2.3077,2.4036,2.4855,2.5329,2.5432,2.6311,2.6136,2.476,2.5088,2.457,2.3203,2.1899,2.1269,2.1242,1.975,1.9608,2.0485,2.0485,2.1018,2.1911,2.1911,2.0487,1.8316,1.833,1.8263,1.8197,1.829,1.8437,1.8569,0.0,0.0,0.0,1.8092,1.7209,1.6505,1.6505,1.6661,1.7098,1.7953,2.0199,2.2091,2.2976,2.6259,2.8194,2.7657,2.875,2.8539,2.634,2.5167,2.3608,2.1554,2.1052,2.2973,2.7568,2.885,3.1276,3.4968,3.4968,3.5454,3.6393,3.5782,3.5018,3.4137,3.3607,3.2541,3.1024,2.9572,2.7688,2.5599,2.4123,2.187,1.9206,0.0,0.0,0.0,0.0,0.0,0.0,0.0,0.0,0.0,0.0,0.0,0.0,0.0,0.0,0.0,0.0,0.0,0.0,0.0,0.0,0.0,0.0,0.0,0.0,0.0,0.0,0.0,0.0,0.0,0.0,0.0,0.0,0.0,0.0,2.0508,2.1449,2.0865,2.1538,2.1936,2.1672,2.2294,2.3156,2.4201,2.4492,2.5063,2.6078,2.6433,2.6602,2.6602,2.7012,2.6872,2.6119,2.6417,2.6204,2.5488,2.4154,2.3518,2.3476,2.2002,2.1857,2.2776,2.2776,2.3333,2.4241,2.4241,2.2837,2.0696,2.0409,1.9682,1.8868,1.9457,1.9411,1.9065,0.0,0.0,1.8082,1.8072,1.7198,1.6516,1.6527,1.7032,1.8323,2.0801,2.3763,2.6184,2.7609,3.0457,3.1622,3.0019,3.0381,2.9255,2.5896,2.5619,2.4086,2.0713,2.243,2.5718,3.0558,3.0989,3.2569,3.5533,3.5533,3.5844,3.6393,3.5768,3.5193,3.4678,3.4112,3.3258,3.2204,3.2204,3.0653,2.8092,2.6791,2.5562,2.4169,0.0,0.0,0.0,0.0,0.0,0.0,0.0,0.0,0.0,0.0,0.0,0.0,0.0,0.0,0.0,0.0,0.0,0.0,0.0,0.0,0.0,0.0,0.0,0.0,0.0,0.0,0.0,0.0,0.0,0.0,0.0,0.0,0.0,2.1377,2.1258,2.1256,2.1002,2.2628,2.3662,2.3426,2.4811,2.5913,2.6367,2.6419,2.6582,2.6979,2.7018,2.7018,2.7038,2.7493,2.7936,2.8334,2.8717,2.9141,2.9584,2.8036,2.7293,2.725,2.5765,2.5128,2.5171,2.5171,2.52,2.5244,2.5244,2.52,2.5075,2.4135,2.2029,1.9688,2.1351,2.0872,1.9468,1.9187,1.8583,1.7973,1.7604,1.6958,1.6619,1.7006,1.7627,1.8972,2.1499,2.4416,2.7102,2.9352,3.2186,3.3301,3.1677,3.2023,3.0942,2.7623,2.6264,2.5177,2.4202,0.0,0.0,3.2365,3.3615,3.4873,3.6143,3.6143,3.623,3.6368,3.5367,3.4842,3.4653,3.3721,3.2893,3.2204,3.2204,3.1547,3.036,2.8801,2.6689,2.4406,0.0,0.0,0.0,0.0,0.0,0.0,0.0,0.0,0.0,0.0,0.0,0.0,0.0,0.0,0.0,0.0,0.0,0.0,0.0,0.0,0.0,0.0,0.0,0.0,0.0,0.0,0.0,0.0,0.0,0.0,0.0,2.2558,2.3759,2.318,2.4177,2.4826,2.4401,2.4807,2.5244,2.5528,2.5947,2.6387,2.6804,2.6836,2.6882,2.6999,2.7324,2.763,2.793,2.8359,2.8803,2.9246,2.935,2.9467,2.9584,2.8036,2.7293,2.725,2.5765,2.5678,2.6689,2.6689,2.7336,2.8347,2.8347,2.7691,2.6442,2.3958,2.2509,2.1699,2.0967,2.0399,1.9985,1.9309,1.8631,1.815,1.8355,1.7765,1.7527,1.8349,1.899,2.051,2.365,2.6487,2.9245,3.1945,3.4452,3.5019,3.2735,3.2626,3.118,2.7659,2.6532,2.6683,2.8298,0.0,3.2753,3.4073,3.5266,3.6043,3.6393,3.6393,3.6393,3.638,3.5216,3.4703,3.4653,3.3581,3.2914,3.2566,3.2566,3.224,3.1661,3.0669,2.8994,2.6932,2.5859,2.5,2.4254,2.3435,2.3134,2.303,2.2369,0.0,0.0,0.0,0.0,0.0,0.0,0.0,0.0,0.0,0.0,0.0,0.0,0.0,0.0,0.0,0.0,0.0,0.0,0.0,0.0,0.0,0.0,0.0,0.0,2.4313,2.5421,2.5239,2.5885,2.6289,2.6023,2.6147,2.6342,2.6621,2.6641,2.6836,2.7266,2.7285,2.7441,2.778,2.8047,2.8392,2.8822,2.9062,2.9408,2.9852,2.9838,2.9936,3.0131,2.9241,2.8819,2.8776,2.7915,2.7988,2.8819,2.8819,2.9327,3.0131,3.0131,2.9613,2.8595,0.0,0.0,0.0,0.0,2.1985,2.1605,1.9844,1.9056,1.8724,1.9742,1.9152,1.8887,2.0016,2.0723,2.2575,2.6585,2.9272,3.1923,3.4857,3.6801,3.6561,3.3354,3.257,3.0711,2.7005,2.7002,2.8702,3.2154,3.3004,3.4073,3.557,3.6118,3.6393,3.6393,3.6393,3.6393,3.638,3.5216,3.4703,3.4653,3.3581,3.309,3.309,3.309,3.2803,3.2305,3.2229,3.1591,3.0433,2.8192,2.728,2.7017,2.534,2.4706,2.4655,2.459,0.0,0.0,0.0,0.0,0.0,0.0,0.0,0.0,0.0,0.0,0.0,0.0,0.0,0.0,0.0,0.0,0.0,0.0,0.0,0.0,0.0,0.0,0.0,0.0,2.6369,2.7604,2.7136,2.6758,2.6536,2.6477,2.6765,2.7018,2.7077,2.7116,2.7344,2.78,2.7878,2.823,2.8932,2.8971,0.0,0.0,0.0,2.9891,3.0332,3.0351,3.0586,3.105,3.105,3.103,3.0972,3.0972,3.0972,3.0972,3.0972,3.1011,3.105,3.105,3.105,3.0937,2.9888,2.7742,2.5267,2.5217,2.4696,2.3976,2.0737,2.0499,2.0291,2.0091,1.9895,1.9971,2.0642,2.174,2.4083,2.8476,3.0844,3.3336,3.6565,3.7723,3.6982,3.3753,3.2982,3.1477,2.861,3.0105,3.1637,3.2864,3.4276,3.5417,3.6205,3.6343,3.6393,3.6393,3.6393,3.6393,3.638,3.5216,3.4703,3.4653,3.3581,3.309,3.309,3.309,3.304,3.2878,3.2416,3.1813,3.12,3.0698,3.0244,2.9865,2.9925,2.9668,2.9234,2.8793,2.7719,2.6397,2.5551,2.3981,0.0,0.0,0.0,0.0,0.0,0.0,0.0,0.0,0.0,0.0,0.0,0.0,0.0,0.0,0.0,0.0,0.0,0.0,0.0,2.5194,2.6813,2.8041,2.7624,2.7487,2.7311,2.6921,2.696,2.7148,2.7526,2.7865,2.8223,2.8652,2.9018,2.9305,2.9461,2.9467,2.9662,3.0073,3.0078,3.0449,3.1235,3.1255,3.1484,3.1944,3.1944,0.0,3.1391,3.1391,3.1391,3.1391,3.1391,3.1601,3.1944,3.1944,3.1944,3.1731,2.9502,2.7671,2.6276,2.5946,2.6156,2.6528,2.2303,2.1523,2.1021,2.1326,2.1176,2.1411,2.2557,2.3332,2.4899,2.8123,2.9653,3.1313,3.3599,3.4222,3.347,3.0995,3.0342,2.997,2.9752,3.1562,3.328,3.4684,3.5515,3.6093,3.6393,3.6393,3.6393,3.6393,3.6393,3.6256,3.5956,3.538,3.4954,3.4678,3.4137,3.3897,3.3897,3.3897,3.3897,3.3847,3.3294,3.2893,3.2552,3.1723,3.1235,3.1035,3.1296,3.1235,3.1004,3.0988,3.0153,2.894,2.8013,2.6604,2.5061,0.0,0.0,0.0,0.0,0.0,0.0,0.0,0.0,0.0,0.0,0.0,0.0,0.0,0.0,2.5536,2.5631,0.0,2.7221,2.6819,2.7791,2.8379,2.778,2.8041,2.8047,2.7435,2.7715,2.8034,2.8281,2.8685,2.9037,2.9252,2.9481,2.9696,2.9877,3.0112,3.043,3.084,3.1089,3.1401,3.1851,3.1836,3.1968,3.2198,3.2198,3.2081,3.1836,3.1836,3.1836,3.1836,3.1836,3.1988,3.2198,3.2198,3.2198,3.2064,3.08,2.9927,2.9387,2.917,2.8841,2.8473,2.3969,2.281,2.2072,2.2923,2.2698,2.295,2.4542,2.4903,2.5627,2.7432,2.8201,2.9042,3.0179,3.0407,2.9763,2.7977,2.8196,2.907,3.0517,3.2773,3.4779,3.6329,3.6393,3.6393,3.6393,3.6393,3.6393,3.6393,3.6393,3.6143,3.567,3.5444,3.5118,3.4703,3.4577,3.4552,3.4552,3.4664,3.4703,3.4653,3.4237,3.4048,3.3922,3.2552,3.1913,3.1748,3.1848,3.1899,3.1964,3.2505,3.2051,3.1126,3.0486,2.9417,2.7936,2.549,2.5063,0.0,0.0,0.0,0.0,0.0,0.0,0.0,0.0,2.7496,2.7954,3.0028,2.9334,2.8708,2.9901,2.9055,2.8269,2.8509,2.8887,2.8906,2.8171,2.8627,2.8789,2.8165,2.8646,2.9043,2.9043,2.9447,2.9715,2.9715,2.9858,3.0112,3.043,3.0913,3.1289,3.1641,3.2007,3.2237,3.2316,3.2316,3.2374,3.2437,3.2437,3.2378,3.2316,3.2316,3.2316,3.2316,3.2398,3.2437,3.2437,3.2437,3.2437,3.2437,3.2437,3.2437,3.2398,3.2257,3.1447,3.041,2.5274,2.5203,2.4942,2.4479,2.435,2.4578,2.5382,2.6004,2.6838,2.8133,2.8893,2.9559,3.0243,3.0319,2.9484,2.7378,3.0466,3.2003,3.0692,3.4947,3.72,3.6415,3.6393,3.6393,3.6393,3.6393,3.6393,3.6393,3.6393,3.6368,3.6292,3.5266,3.4753,3.4678,3.4187,3.3997,3.4022,3.4502,3.4703,3.4703,3.4628,3.4603,3.4577,3.4402,3.3746,3.2964,3.3456,3.3621,3.3696,3.4226,3.4034,3.3523,3.343,3.2275,3.0626,2.8791,2.7354,2.594,2.4088,2.495,2.6502,2.7177,2.8392,2.9814,0.0,3.1044,3.093,3.2511,3.1663,3.0816,3.1458,3.0672,2.9819,2.952,2.9799,2.9897,2.9461,2.9461,2.95,2.9403,2.9461,2.952,2.952,2.9897,3.0137,3.0137,3.0859,3.1313,3.1352,3.1812,3.2081,3.212,3.2179,3.2374,3.273,3.2734,3.291,3.3265,3.3265,3.3086,3.2734,3.2734,3.2734,3.2734,3.3109,3.3265,3.3265,3.3265,3.3265,3.3265,3.3265,3.3265,3.3168,3.2457,3.2529,3.292,2.5453,2.5603,2.5633,2.5752,2.5453,2.5423,2.6063,2.607,2.6129,2.6594,2.6523,2.6358,2.6118,2.5826,2.5402,2.4831,2.9038,3.1417,3.0652,3.531,3.7586,3.6452,3.6393,3.6393,3.6393,3.6393,3.6393,3.6393,3.6043,3.573,3.5403,3.4915,3.4527,3.4237,3.4338,3.4363,3.4413,3.4942,3.4993,3.4728,3.5043,3.4968,3.4703,3.4703,3.4614,3.4413,3.3696,3.3431,0.0,3.4048,3.4098,3.3915,3.413,3.2804,3.0778,2.8744,2.7149,2.6138,2.6676,2.7603,2.8607,2.9414,3.0681,3.189,3.2603,3.272,3.3241,3.5145,3.4665,3.4152,3.496,3.336,3.1854,3.1755,3.1108,3.0366,2.9696,2.9799,3.0053,3.0327,3.0547,3.0605,3.0385,3.0723,3.1074,3.1343,3.1695,3.191,3.191,3.232,3.2554,3.2554,3.2773,3.2988,3.3148,3.3148,3.3226,3.3402,3.3402,3.3304,3.3148,3.3148,3.3148,3.3148,3.3324,3.3402,3.3402,3.3402,3.3402,3.3402,3.3402,3.3402,3.3363,3.3027,3.3109,3.3383,2.6028,2.6153,2.6309,2.6794,2.6458,2.6309,2.6794,2.6245,2.5681,2.5418,2.4766,2.3981,2.3185,2.2744,2.2751,2.3303,2.773,3.0656,3.1043,3.55,3.781,3.7124,3.709,3.6937,3.6619,3.6619,3.6544,3.6393,3.5956,3.5543,3.5166,3.484,3.4477,3.4137,3.4363,3.4552,3.4728,3.5118,3.5143,3.4942,3.5193,3.5043,3.4728,3.4867,3.4968,3.4904,3.3746,3.3305,3.3298,3.3112,3.3016,3.2983,3.2947,3.1886,3.0257,2.8155,2.6616,2.6011,2.7821,2.9255,3.0479,3.1524,3.3031,3.4262,3.4432,3.4748,3.5574,3.7491,3.709,3.6723,3.7755,3.5863,3.4033,3.3698,3.2661,3.1561,3.0614,3.0737,3.1074,3.1543,3.184,3.1957,3.1812,3.1719,3.1875,3.232,3.2374,3.2374,3.2374,3.275,3.2969,3.2969,3.3246,3.3402,3.3402,3.3402,3.3402,3.3402,3.3402,3.3402,3.3402,3.3402,3.3402,3.3402,3.3402,3.3402,3.3402,3.3402,3.3402,3.3402,3.3402,3.3402,3.3402,3.3402,3.3402,3.3402,2.7405,2.7531,2.7555,2.7561,2.7555,2.7555,2.7561,2.6954,2.6208,2.5481,2.4766,2.3981,2.3185,2.3095,2.3328,2.3929,2.7626,3.0601,3.216,3.5996,3.8378,3.8803,3.8824,3.8312,3.7197,3.7185,3.6909,3.6393,3.6368,3.6368,3.6318,3.5228,3.4703,3.4653,3.4137,3.4212,3.4703,3.4728,3.5029,3.5433,3.4929,3.4703,3.4753,3.5294,3.4842,3.3947,3.3897,3.3872,3.3564,3.1577,3.0814,3.0531,2.9581,2.9533,2.9465,2.7656,2.6312,2.5581,2.6354,2.8913,3.1762,3.3384,3.545,3.72,3.774,3.7865,3.8203,3.9396,3.847,3.7779,3.8854,3.7797,3.6276,3.4716,3.4408,3.4003,3.2868,3.2715,3.2871,3.3285,3.3328,3.3516,3.3961,3.2902,3.2355,3.2734,3.2773,3.2773,3.2773,3.3168,3.3383,3.3383,3.3386,3.3402,3.3402,3.3402,3.3402,3.3402,3.3402,3.3402,3.3402,3.3402,3.3402,3.3402,3.3402,3.3402,3.3402,3.3402,3.3402,3.3402,3.3402,3.3402,3.3402,3.3402,3.3402,3.3402,2.8045,2.8254,2.841,2.8836,2.8926,2.8926,2.8926,2.7131,2.5687,2.5439,2.4637,0.0,0.0,0.0,0.0,0.0,2.8036,3.0094,3.0615,3.504,3.7745,3.7899,3.9348,4.018,4.0241,3.9807,3.9489,3.9324,3.7764,3.682,3.6441,3.5622,3.4644,3.3697,3.4884,3.5161,3.4702,3.507,3.5122,3.4964,3.4765,3.4488,3.4187,3.4363,3.3986,3.323,0.0,3.1284,3.0553,2.9495,2.8871,2.8611,2.8984,2.8411,2.7343,2.5974,2.5842,2.6751,2.9522,3.1642,3.3631,3.6013,3.7181,3.7789,3.7965,3.8592,3.9245,3.9622,3.8812,3.8244,3.8973,3.7824,3.6748,3.6691,3.5943,3.5271,3.4948,3.3933,3.3344,3.3824,3.3848,3.4157,3.4899,3.4039,3.3528,3.3649,3.3649,3.3531,3.3207,3.3324,3.3402,3.3402,3.3402,3.3402,3.3402,3.3402,3.3402,3.3402,3.3402,3.3402,3.3402,3.3402,3.3558,3.3844,3.3555,3.3594,3.3844,3.3519,3.3402,3.3402,3.3402,3.3402,3.3402,3.3402,3.3613,3.3848,2.8793,2.8973,2.9092,2.9518,2.9615,0.0,0.0,0.0,0.0,0.0,0.0,0.0,0.0,0.0,0.0,0.0,0.0,2.9186,3.0325,3.3648,3.5944,3.6713,3.8152,3.8966,3.8978,3.8535,3.8255,3.8052,3.7113,3.6282,3.5572,3.5514,3.4961,3.4018,3.5161,3.5396,3.5004,3.5152,3.479,3.412,3.389,3.3484,3.3029,3.3219,3.2842,0.0,3.0999,2.9701,2.8371,2.745,2.6865,2.6549,2.6703,2.6081,2.5348,2.5607,2.6472,2.8209,3.2052,3.3941,3.5364,3.7729,3.8467,3.8668,3.8856,3.9609,4.0337,4.0539,3.952,3.8758,3.931,3.8732,3.7824,3.6794,3.6694,3.6612,3.6299,3.5293,3.4858,3.5626,3.5706,3.5685,3.5617,3.5098,3.4723,3.4567,3.429,3.3961,3.3672,3.348,3.3402,3.3402,3.3402,3.3402,3.3402,3.3402,3.3402,3.3402,3.3402,3.3402,3.3422,3.3558,3.3887,3.4293,3.4004,3.4043,3.4274,3.3828,3.3652,3.3652,3.3652,3.375,3.389,3.4046,3.4297,3.4508,2.9668,2.9698,2.9698,0.0,0.0,0.0,0.0,0.0,0.0,0.0,0.0,0.0,0.0,0.0,0.0,0.0,0.0,0.0,3.1086,3.1914,0.0,3.5389,3.5616,3.5197,3.4153,3.4095,3.3828,3.3319,3.4772,3.4931,3.3917,3.4948,3.5363,3.5257,3.486,3.496,3.5342,3.4829,3.4017,3.3039,3.2411,3.1853,3.1446,3.1928,3.1476,3.0548,3.0512,2.9239,2.7276,2.5581,2.4942,2.4612,2.3283,2.3144,2.4014,2.6743,2.8318,3.0033,3.3803,3.5669,3.6946,3.8567,3.9383,3.9923,4.0437,4.0951,4.1464,4.1952,4.0404,3.9123,3.9594,4.0211,3.9343,3.5354,3.6926,3.8267,3.7211,3.6984,3.7377,3.8598,3.8729,3.8055,3.6285,3.6135,3.5924,3.5446,3.4606,3.4134,3.4114,3.3652,3.3402,3.3402,3.3402,3.3402,3.3402,3.3406,3.3461,3.348,3.35,3.35,3.3519,3.3965,3.4411,3.4805,3.4766,3.4766,3.4726,3.4333,3.4153,3.4118,3.4118,3.4372,3.4785,3.5234,3.543,3.5349,0.0,0.0,0.0,0.0,0.0,0.0,0.0,0.0,0.0,0.0,0.0,0.0,0.0,0.0,0.0,0.0,0.0,0.0,2.8313,3.0467,0.0,0.0,0.0,0.0,0.0,0.0,3.6521,3.6395,3.5428,3.4646,3.3978,3.4157,3.3584,3.2505,3.3963,3.4254,3.3635,3.3476,3.3274,3.2934,3.1985,3.1522,3.1371,3.11,3.0598,2.9955,2.9484,2.874,2.7637,2.5679,2.5238,2.5818,2.7425,2.8273,2.8987,3.0513,3.2042,3.3708,3.5963,3.7704,3.9057,3.9898,4.0487,4.0926,4.1063,4.1555,4.1584,4.0182,3.8592,3.7054,3.5704,3.7153,3.8337,3.7673,3.9936,4.1781,4.1893,4.0835,4.0166,4.0493,4.0537,3.9839,3.8104,3.7938,3.7225,3.553,3.4863,3.4411,3.4114,3.3652,3.3402,3.3402,3.3402,3.3402,3.3402,3.375,3.4062,3.4359,3.4726,3.4883,3.4902,3.5315,3.5762,3.6169,3.582,3.5667,3.5628,3.5234,3.486,3.4547,3.4547,3.4824,3.5234,3.5368,3.5818,3.6343,0.0,0.0,0.0,0.0,0.0,0.0,0.0,0.0,0.0,0.0,0.0,0.0,0.0,0.0,0.0,0.0,0.0,0.0,0.0,2.9475,3.0771,3.172,0.0,0.0,0.0,0.0,3.3729,3.3729,3.3192,3.2646,3.2168,3.2528,3.2218,3.1396,3.2609,3.2816,3.2256,3.2547,3.225,0.0,0.0,3.0909,3.0658,3.0357,3.0055,2.9764,2.9428,2.9105,2.8949,2.9532,2.8773,2.7866,2.9613,3.0364,3.0984,3.3042,3.4498,3.5901,3.8066,3.9521,4.0487,4.0789,4.1291,4.1468,4.0531,4.0804,4.0651,3.8573,3.6756,3.5236,3.4094,3.6224,3.787,3.7038,4.0146,4.2791,4.3101,4.2326,4.1884,4.2266,4.2296,4.1735,4.0241,3.9356,3.8474,3.7513,3.5736,3.4512,3.4134,3.3864,3.3711,3.3711,3.3887,3.3968,3.3968,3.4219,3.4489,3.4707,3.5176,3.5391,3.541,3.6035,3.6462,3.6695,3.6423,3.6191,3.5979,3.5762,3.5508,3.5293,3.5488,3.5857,3.625,3.6426,3.6816,3.7226,0.0,0.0,0.0,0.0,0.0,0.0,0.0,0.0,0.0,2.67,2.7069,2.7352,0.0,0.0,0.0,0.0,0.0,0.0,0.0,0.0,2.9132,2.9654,0.0,0.0,0.0,0.0,0.0,0.0,2.9719,2.996,2.9582,3.0462,3.0882,3.0882,3.0882,3.0882,3.0899,3.1425,3.0876,2.9729,3.0196,3.0146,2.9814,0.0,0.0,2.9814,2.9814,2.9889,3.0601,3.4486,3.3364,3.0526,3.1519,3.1774,3.2275,3.5194,3.6469,3.7488,3.9937,4.1001,4.1428,4.1428,4.187,4.1753,3.9691,3.9778,3.9636,3.7272,3.5558,3.4332,3.3888,3.629,3.7672,3.5557,3.926,4.2514,4.2867,4.2906,4.3207,4.3961,4.4113,4.3663,4.2461,4.0929,4.0023,4.0014,3.7044,3.4985,3.4388,3.4293,3.4235,3.4176,3.4528,3.4726,3.4785,3.4785,3.4824,3.4883,3.5351,3.5566,3.5603,3.6462,3.6834,3.6792,3.691,3.6638,3.6096,3.6213,3.6194,3.6135,3.6599,3.7029,3.7441,3.7834,3.8029,3.8068,0.0,0.0,0.0,0.0,0.0,0.0,0.0,0.0,0.0,0.0,2.7503,2.7629,0.0,0.0,0.0,0.0,0.0,0.0,0.0,0.0,0.0,2.9048,0.0,0.0,0.0,0.0,0.0,0.0,0.0,2.8456,2.8398,2.8566,2.8658,2.8658,2.8658,2.8658,2.8658,2.8768,2.8901,2.9057,2.9148,2.9443,2.9814,0.0,0.0,0.0,2.9814,3.0373,3.1591,3.4743,3.4643,3.3789,3.7218,3.7901,3.7667,3.8676,3.9351,3.9975,4.0923,4.1592,4.2034,4.2034,4.2462,4.2326,4.0311,4.0874,4.0765,3.7018,3.6924,3.6649,3.377,3.5407,3.7352,3.7828,4.0434,4.3161,4.5325,4.5615,4.5674,4.5828,4.6236,4.5861,4.4238,4.4232,4.2993,3.9753,3.8628,3.7389,3.5768,3.5351,3.5016,3.4609,3.4668,3.4883,3.5273,3.5273,3.5449,3.5784,3.6247,3.6462,3.6502,3.7324,3.7502,3.7244,3.7948,3.7615,3.6619,3.7305,3.7187,3.6619,3.7031,3.7441,3.7853,3.8301,3.8691,3.8966,0.0,0.0,0.0,0.0,0.0,0.0,0.0,2.8054,2.7921,2.8464,2.8288,2.8339,2.8847,2.9183,2.9368,0.0,0.0,0.0,0.0,0.0,0.0,0.0,0.0,0.0,0.0,0.0,0.0,0.0,0.0,0.0,2.7679,0.0,2.7261,2.7261,2.7261,2.7261,2.7286,2.7553,2.7987,2.8505,2.8797,2.9258,0.0,0.0,0.0,0.0,2.9814,3.0668,3.2171,3.4589,3.5491,3.6178,3.936,3.9878,3.9409,3.9948,4.0727,4.1443,4.1694,4.2397,4.3025,4.3025,4.3427,4.3159,4.0589,4.0545,4.0033,3.6423,3.6255,3.5985,3.3536,3.5182,3.6836,3.6611,3.9846,4.2837,4.4083,4.5683,4.6737,4.6737,4.7189,4.7306,4.6785,4.5262,4.3506,4.1612,3.9538,3.7562,3.5776,3.5508,3.5391,3.5374,3.5374,3.5471,3.5723,3.5937,3.6169,3.6367,3.7012,3.7207,3.7049,3.7871,3.7811,3.7029,3.7871,3.7773,3.7088,3.791,3.8144,3.8027,3.8476,3.8769,3.8984,3.918,3.9413,3.9531,0.0,0.0,0.0,0.0,0.0,0.0,0.0,2.8688,2.8925,2.9387,2.9333,2.9248,2.9248,2.9569,2.9814,0.0,0.0,0.0,0.0,0.0,0.0,0.0,0.0,0.0,0.0,0.0,0.0,0.0,0.0,0.0,0.0,0.0,0.0,0.0,2.6508,2.6508,2.6533,2.706,2.7604,0.0,0.0,2.9258,0.0,0.0,0.0,0.0,0.0,3.0959,3.2337,3.4468,3.5837,3.7111,3.9633,3.993,3.9496,4.0261,4.1128,4.1934,4.2411,4.3226,4.3966,4.3966,4.4278,4.3792,4.071,4.025,3.9575,3.6429,3.6013,3.5699,3.3901,3.5205,3.6148,3.4899,3.8186,4.1304,4.2428,4.4814,4.6621,4.7218,4.7767,4.8275,4.8752,4.6295,4.4466,4.3999,4.0928,3.8085,3.5793,3.5586,3.5684,3.5999,3.6174,3.6272,3.6272,3.6834,3.7125,3.7107,3.7754,3.7891,3.7598,3.8377,3.8123,3.7146,3.7969,3.8029,3.7654,3.8514,3.9003,3.9258,3.9726,3.9902,3.9902,4.0,4.0039,3.998,0.0,0.0,0.0,0.0,0.0,0.0,0.0,3.0021,3.097,3.114,3.0748,3.0437,3.0437,3.0055,2.9814,0.0,0.0,0.0,0.0,0.0,0.0,0.0,0.0,0.0,0.0,0.0,0.0,0.0,0.0,0.0,0.0,0.0,0.0,0.0,0.0,2.6508,2.6533,2.706,0.0,0.0,0.0,0.0,0.0,0.0,0.0,0.0,0.0,3.1346,3.1903,3.4763,3.536,3.5431,3.8332,3.874,3.8454,4.0036,4.0563,4.109,4.3112,4.4077,4.4529,4.4529,4.4564,4.3792,4.071,4.1045,4.1112,3.7933,3.8348,3.8438,3.5617,3.5287,3.5282,3.4778,3.5467,3.7729,4.2529,4.3783,4.5095,4.7536,4.835,4.8743,4.8793,4.8941,4.8109,4.5928,4.3983,4.1053,3.6809,3.6172,3.5959,3.5999,3.6777,3.7187,3.7187,3.8006,3.8416,3.8416,3.8495,3.8514,3.8495,3.8926,3.8885,3.8475,3.9336,3.9257,3.8553,3.9414,3.9551,3.9258,3.9726,3.9902,3.9941,4.0313,4.045,4.045,0.0,0.0,0.0,0.0,0.0,0.0,3.0931,3.0962,3.1352,3.1711,3.1086,3.0588,3.0588,3.0397,3.0156,2.9839,0.0,0.0,0.0,0.0,0.0,0.0,0.0,0.0,0.0,0.0,2.8991,2.8088,2.8405,0.0,0.0,0.0,0.0,0.0,0.0,2.6792,2.6533,0.0,0.0,0.0,0.0,0.0,0.0,0.0,0.0,0.0,0.0,0.0,3.2122,3.3658,3.4615,3.5386,3.6571,3.6971,3.75,3.981,4.0978,4.1845,4.3388,4.4468,4.5146,4.5146,4.488,4.4108,4.2224,4.1723,4.1118,3.9231,3.9297,3.9064,3.6999,3.5904,3.5041,3.4236,3.4829,3.6232,3.8591,4.2374,4.5181,4.59,4.8204,4.9766,4.9766,4.8961,4.7612,4.5625,4.4596,4.2757,3.9751,3.9409,3.8768,3.7612,3.7908,3.8084,3.8084,3.8671,3.8945,3.8965,3.9257,3.9219,3.8983,3.9121,3.8965,3.8631,3.9219,3.9434,3.9433,4.0019,4.0312,4.0429,4.0605,4.0683,4.0703,4.0859,4.0742,4.0547,0.0,0.0,0.0,0.0,0.0,3.3821,3.1918,3.1748,3.1831,3.1844,3.1104,3.0588,3.0588,3.0447,3.0206,2.9839,2.9814,0.0,0.0,0.0,0.0,0.0,0.0,0.0,0.0,0.0,2.9402,2.8599,2.8991,2.8881,0.0,0.0,0.0,0.0,0.0,0.0,0.0,0.0,0.0,0.0,0.0,0.0,0.0,0.0,0.0,0.0,0.0,0.0,0.0,0.0,0.0,3.5508,3.5508,3.5894,3.6871,3.9295,4.0815,4.2009,4.3427,4.4744,4.5773,4.5924,4.5282,4.4353,4.3452,4.2244,4.1001,3.9923,3.9697,3.9258,3.7769,3.6285,3.4902,3.3726,3.4042,3.4824,3.5911,4.028,4.3536,4.3913,4.6447,4.8485,4.9323,4.8858,4.8074,4.7018,4.6657,4.5456,4.3024,4.3028,4.1734,3.8703,3.8846,3.8983,3.8983,3.9512,3.9785,3.9804,4.0136,4.0117,3.9785,3.9785,3.9648,3.9374,3.9667,3.998,4.0312,4.0586,4.0898,4.1191,4.1191,4.1191,4.1191,4.1191,4.1074,4.0918,0.0,0.0,0.0,0.0,0.0,0.0,3.1655,3.2452,3.2907,3.1579,3.0944,3.0588,3.0588,3.0131,2.9814,2.9814,2.9814,0.0,0.0,0.0,0.0,0.0,0.0,0.0,0.0,0.0,2.9789,2.9789,2.9789,2.9468,2.8897,2.8897,2.8605,2.8088,0.0,0.0,0.0,0.0,0.0,0.0,0.0,0.0,3.0723,0.0,0.0,0.0,0.0,0.0,0.0,0.0,0.0,0.0,0.0,3.5894,3.672,3.8416,3.9685,4.0989,4.3212,4.502,4.6411,4.6948,4.5819,4.4453,4.3915,4.2495,4.1001,3.9923,3.9697,3.9258,3.7769,3.6285,3.482,3.3346,3.2615,3.3159,3.5823,3.734,3.918,4.1893,4.2603,4.3968,4.676,4.9051,5.0595,5.1189,5.1239,4.9743,4.6317,4.6646,4.4392,3.8797,3.9452,3.9883,3.9883,4.0742,4.1172,4.1172,4.1172,4.1172,4.1172,4.1172,4.1172,4.1172,4.1172,4.1172,4.1191,4.1191,4.1211,4.1191,4.1191,4.1191,4.1191,4.1191,4.1445,4.1797,0.0,0.0,0.0,0.0,0.0,0.0,0.0,3.2418,3.1867,3.1814,3.111,3.0588,3.0588,3.0447,3.0206,2.9839,2.9814,0.0,0.0,0.0,0.0,0.0,0.0,0.0,0.0,0.0,2.9814,2.9814,2.9814,2.9704,2.9528,2.9528,2.9208,2.8656,2.8656,0.0,0.0,0.0,0.0,0.0,0.0,3.1361,3.1777,0.0,0.0,0.0,0.0,0.0,0.0,0.0,0.0,0.0,0.0,0.0,0.0,3.7902,3.9069,4.035,4.221,4.3366,4.408,4.4256,4.3324,4.2306,4.213,4.1115,4.0124,3.9772,3.9697,3.9568,3.909,3.6982,3.543,3.5836,3.5062,3.4564,3.5111,4.0136,4.3513,4.2835,4.6535,4.9528,5.0402,5.1454,5.2184,5.2385,5.2385,5.1339,4.8937,4.8975,4.6395,4.0542,4.0644,4.0781,4.0781,4.1054,4.1191,4.1191,4.1191,4.1191,4.1191,4.0859,4.0898,4.1172,4.0859,4.0898,4.1191,4.1191,4.1191,4.1191,4.1191,4.1367,4.1601,4.1601,4.168,4.1836,0.0,0.0,0.0,0.0,0.0,0.0,0.0,3.2173,3.1204,3.1163,3.0657,3.0306,3.0306,3.0306,3.0156,2.9839,2.9814,0.0,0.0,0.0,0.0,0.0,0.0,0.0,2.9814,2.9814,2.9814,2.9814,2.9814,2.9814,2.9814,2.9814,2.9603,2.9233,2.9233,2.9057,0.0,0.0,0.0,0.0,3.1411,3.1903,3.2254,0.0,0.0,0.0,0.0,0.0,0.0,0.0,0.0,0.0,0.0,0.0,0.0,0.0,3.8492,3.9471,4.1343,4.2423,4.3065,4.3251,4.2295,4.1364,4.1592,4.0626,3.9697,3.9697,3.9697,3.9697,3.9697,3.7753,3.6461,3.7457,3.6646,3.6086,3.6648,4.1203,4.4254,4.3649,4.7864,5.0811,5.0811,5.2076,5.2895,5.2895,5.2895,5.205,5.0109,5.0187,4.8273,4.3857,4.3521,4.3399,4.3399,4.3399,4.3399,4.338,4.2637,4.2292,4.2273,4.1383,4.1152,4.1406,4.1133,4.125,0.0,4.1504,4.1523,4.1641,4.1641,4.1816,4.2031,4.2031,4.2148,4.2324,0.0,0.0,0.0,0.0,0.0,0.0,0.0,3.1756,3.0799,2.9914,2.9814,2.9814,2.9814,2.9814,2.9814,2.9814,0.0,0.0,0.0,0.0,0.0,0.0,0.0,0.0,2.9814,2.9814,2.9814,2.9814,2.9814,2.9814,2.9814,2.9814,2.9814,2.9814,2.9814,2.9814,0.0,0.0,0.0,0.0,3.1777,3.2229,0.0,0.0,0.0,0.0,0.0,0.0,0.0,0.0,0.0,0.0,0.0,0.0,0.0,0.0,0.0,0.0,0.0,4.1943,4.2875,4.3388,4.2345,4.1327,4.1884,4.0828,0.0,3.9697,3.9697,3.971,3.9747,3.8552,3.7755,3.835,3.7663,3.7801,3.9921,4.1135,4.2586,4.459,4.7294,4.8947,4.881,5.1327,5.297,5.3013,5.302,5.2218,5.0424,5.0807,5.0232,4.8434,4.7829,4.7416,4.7122,4.6931,4.6857,4.6883,4.4915,4.3993,4.3917,4.2503,4.1836,4.1836,4.1836,4.205,4.2382,4.2012,4.205,4.2402,4.2402,4.2421,4.246,4.246,4.2754,4.3145,0.0,0.0,0.0,0.0,0.0,0.0,0.0,0.0,0.0,0.0,2.9814,2.9814,2.9814,2.9814,2.9814,0.0,0.0,0.0,0.0,0.0,0.0,0.0,0.0,0.0,2.9814,2.9814,2.9814,2.9814,2.9814,2.9814,2.9814,2.9814,2.9814,2.9814,2.9814,2.9814,0.0,0.0,0.0,0.0,3.1928,3.2491,0.0,0.0,0.0,0.0,3.3707,3.4237,0.0,0.0,0.0,0.0,0.0,0.0,0.0,0.0,3.8002,3.8304,3.9697,0.0,4.0514,4.0626,4.0375,4.0124,0.0,3.9986,3.9697,3.9697,3.9697,3.9823,4.0236,3.9114,3.8513,3.9708,4.0214,4.0711,4.1449,4.4672,4.7274,4.8078,5.0378,5.1378,4.998,5.2073,5.3708,5.4152,5.4202,5.4001,5.3534,5.3641,5.3494,5.3023,5.2882,5.1374,4.8336,4.6268,4.5456,4.5895,4.3806,4.2803,4.2784,4.2426,4.2265,4.2265,4.2265,4.2324,4.2402,4.2304,4.2324,4.2402,4.2402,4.2637,4.295,4.295,4.3203,4.3555,0.0,0.0,0.0,0.0,0.0,0.0,0.0,0.0,0.0,0.0,0.0,2.9814,2.9814,2.9814,0.0,0.0,0.0,0.0,0.0,0.0,0.0,0.0,0.0,2.9814,2.9814,2.9814,2.9814,2.9814,2.9814,2.9814,2.9814,2.9814,2.9814,2.9814,2.9814,2.9814,0.0,0.0,0.0,3.1472,3.23,0.0,0.0,0.0,0.0,0.0,3.3997,3.4463,0.0,3.5907,3.6483,3.677,0.0,0.0,0.0,0.0,3.8002,3.8241,3.9396,3.9697,3.9697,3.9697,3.9697,3.9697,3.9697,3.9697,3.9697,3.9697,3.9697,3.9848,4.0412,4.0474,4.0717,4.1458,4.3022,4.4139,4.4175,4.6014,4.7813,4.9123,5.07,5.1705,5.1803,5.3207,5.4253,5.4572,5.4597,5.4597,5.4597,5.483,5.4956,5.4956,5.4956,5.3831,5.1439,4.997,4.9415,4.969,4.7635,4.662,4.6543,4.4907,4.4138,4.4099,4.3138,4.2832,4.2968,4.2812,4.2832,4.2987,4.2987,4.3164,4.338,4.338,4.3516,4.3711,0.0,0.0,0.0,0.0,0.0,0.0,0.0,0.0,0.0,0.0,0.0,0.0,0.0,0.0,0.0,0.0,0.0,0.0,0.0,0.0,0.0,0.0,2.9814,2.9814,2.9814,2.9814,2.9814,2.9814,2.988,2.9905,2.9905,3.0015,3.0015,2.9905,2.9905,2.9905,0.0,0.0,0.0,3.1622,3.2663,0.0,0.0,0.0,0.0,0.0,0.0,0.0,0.0,3.657,3.7085,3.7085,3.7085,0.0,0.0,0.0,0.0,0.0,3.9308,3.9836,4.0011,3.976,3.9697,3.9697,3.9697,3.9697,3.9697,3.9697,3.9697,3.9998,4.0939,4.2096,4.3065,4.3653,4.5834,4.7476,4.7484,4.7147,4.7549,4.923,5.029,5.1541,5.325,5.4194,5.4773,5.4848,5.483,5.483,5.483,5.5282,5.5516,5.5516,5.5516,5.5308,5.4848,5.4445,5.4302,5.4341,5.1989,5.1043,5.1233,4.7517,4.598,4.6179,4.4099,4.3399,4.3672,4.332,4.3379,4.3711,4.3711,4.3711,4.3711,4.3711,4.3711,4.3711,0.0,0.0,0.0,0.0,0.0,0.0,0.0,0.0,0.0,0.0,0.0,0.0,0.0,0.0,0.0,0.0,0.0,0.0,0.0,0.0,0.0,2.9814,2.9814,2.9814,2.9814,2.9814,2.9814,2.9814,3.0246,3.0472,3.0497,3.0934,3.0909,3.0472,3.0472,3.0472,3.0522,3.1145,0.0,3.2139,3.2828,0.0,0.0,0.0,0.0,0.0,0.0,0.0,0.0,3.6244,3.6519,3.6519,3.6519,0.0,0.0,0.0,0.0,0.0,3.8843,4.0376,4.1495,4.0062,3.9697,3.9697,3.9697,3.9697,3.9697,3.9697,3.9697,4.0576,4.3449,4.3076,4.3391,4.6627,4.8309,4.9543,5.0473,5.167,5.187,5.025,5.2343,5.3434,5.22,5.4027,5.5483,5.5917,5.5968,5.5968,5.5968,5.6043,5.6093,5.6093,5.6093,5.6043,5.5968,5.3753,5.288,5.3275,4.9393,4.8495,5.011,4.5957,4.5048,4.6602,4.4517,4.3652,4.3691,4.3633,4.3652,4.3711,4.3711,4.3711,4.3711,4.3711,4.3711,4.3711,0.0,0.0,0.0,0.0,0.0,0.0,0.0,0.0,0.0,0.0,0.0,0.0,0.0,0.0,0.0,0.0,0.0,0.0,0.0,0.0,2.9814,2.9814,2.9814,2.9814,2.9814,3.008,3.0221,3.0221,3.0783,3.1035,3.1035,3.0984,3.0849,3.0588,3.0588,3.0588,3.0638,3.1476,3.1978,3.2254,0.0,0.0,0.0,0.0,0.0,0.0,0.0,0.0,0.0,0.0,3.6833,3.6833,3.6833,0.0,0.0,0.0,0.0,0.0,3.8668,3.9647,4.059,4.1292,4.2171,4.2836,4.2836,4.3062,4.3011,4.2108,4.1907,4.2559,4.4694,4.497,4.6125,4.9975,4.9702,4.9395,5.0546,5.0473,5.0395,5.061,5.2102,5.3269,5.3708,5.502,5.5942,5.6175,5.62,5.62,5.62,5.62,5.62,5.62,5.62,5.62,5.62,5.3877,5.2862,5.3081,5.1128,5.0142,4.9889,4.6806,4.59,4.6686,4.4597,4.3711,4.3711,4.3711,4.3711,4.3711,4.3711,4.3867,4.4101,4.4315,4.4393,4.4393,0.0,0.0,0.0,0.0,0.0,0.0,0.0,0.0,0.0,0.0,0.0,0.0,0.0,0.0,0.0,0.0,0.0,0.0,0.0,2.9814,2.9814,2.9814,2.9814,2.9864,2.998,3.0397,3.0713,3.0964,3.1537,3.1848,3.1964,3.1301,3.0964,3.0964,3.0849,3.0849,3.1024,3.1842,3.2355,3.2631,0.0,0.0,0.0,0.0,0.0,0.0,0.0,0.0,0.0,0.0,0.0,0.0,0.0,0.0,0.0,3.7009,3.7198,3.7575,3.8454,3.917,4.0175,4.2286,4.3478,4.4407,4.5462,4.5598,4.5347,4.4704,4.4579,4.497,4.624,4.744,4.9156,5.1866,5.0852,5.0063,5.1082,5.0095,4.9964,5.1808,5.2502,5.3558,5.5414,5.5968,5.62,5.62,5.62,5.62,5.62,5.62,5.62,5.62,5.62,5.62,5.62,5.4609,5.3838,5.382,5.2835,5.1804,5.0646,4.8516,4.7266,4.6746,4.5657,4.4883,4.4514,4.5127,4.5351,4.5331,4.4918,4.4698,4.459,4.4881,4.4998,4.4998,0.0,0.0,0.0,0.0,0.0,0.0,0.0,0.0,0.0,0.0,0.0,0.0,0.0,0.0,0.0,0.0,0.0,0.0,0.0,2.9814,2.9814,2.9814,2.9814,3.003,3.0522,3.0588,3.11,3.2079,3.2677,3.323,3.3696,3.2606,3.2079,3.2043,3.1562,3.1612,3.2104,3.2179,3.2807,3.3771,3.3822,0.0,0.0,0.0,0.0,0.0,0.0,0.0,0.0,0.0,0.0,0.0,0.0,0.0,3.6443,3.6443,3.7148,3.7965,3.8028,3.9961,4.1998,4.2199,4.118,4.1178,4.5321,4.4669,4.393,4.6346,4.6873,4.735,4.9012,5.0645,5.1498,5.0703,5.2107,5.3558,5.4176,5.4595,5.4909,5.5067,5.556,5.5947,5.6125,5.6194,5.62,5.62,5.62,5.62,5.62,5.62,5.62,5.62,5.62,5.62,5.62,5.6047,5.5974,5.5937,5.2071,5.117,5.2817,5.0704,4.8695,4.6907,4.8733,4.8439,4.6869,4.9295,5.0305,5.0131,4.8572,4.6715,4.4959,4.4998,4.4998,4.4998,0.0,0.0,0.0,0.0,0.0,0.0,0.0,0.0,0.0,0.0,0.0,0.0,0.0,0.0,0.0,0.0,0.0,0.0,0.0,2.9814,2.9814,2.9814,2.9814,3.0055,3.0588,3.124,3.1989,3.2753,3.333,3.3707,3.3872,3.2731,3.2204,3.2204,3.1989,3.2003,3.2229,3.2602,3.3194,3.3897,3.3897,3.4098,0.0,0.0,0.0,0.0,0.0,0.0,0.0,0.0,3.5707,3.5533,3.5757,3.6093,3.6393,3.6393,3.6909,3.7575,3.7914,4.0075,4.2274,4.2612,4.2235,4.2824,4.6919,4.7707,4.7707,4.8083,4.8987,0.0,4.9179,5.159,5.3173,5.1699,5.3306,5.4856,5.5056,5.5541,5.5892,5.5892,5.6093,5.62,5.62,5.62,5.62,5.62,5.62,5.6351,5.6677,5.6702,5.6878,5.7248,5.7248,5.7248,5.7248,5.5937,5.5937,5.7211,5.3971,5.2152,5.1648,5.1202,5.0545,4.9827,5.0644,5.0545,4.9789,4.9401,4.9244,4.9085,4.7355,4.616,4.5469,4.5723,4.582,4.582,0.0,0.0,0.0,0.0,0.0,0.0,0.0,0.0,0.0,0.0,0.0,0.0,0.0,0.0,0.0,0.0,0.0,0.0,2.9814,2.9814,2.9814,2.9814,2.9814,3.0131,3.0849,3.1752,3.2591,3.3355,3.3897,3.3972,3.3632,3.2656,3.2204,3.2204,3.2204,3.2305,3.2516,3.2928,3.3506,3.4137,3.4137,3.4477,0.0,0.0,0.0,0.0,0.0,0.0,0.0,0.0,3.5556,3.5319,3.5682,3.6068,3.6393,3.6393,3.7524,3.8818,3.8981,4.0827,4.2964,4.403,4.3779,4.4357,4.8626,4.9464,4.9649,5.0661,5.1515,5.1666,5.0334,5.2419,5.3951,5.2804,5.431,5.5641,5.5641,5.5968,5.62,5.62,5.62,5.6251,5.6451,5.6451,5.6527,5.6702,5.6746,5.6903,5.7255,5.728,5.7481,5.7901,5.7901,5.7901,5.7901,5.6437,5.6456,5.7882,5.6222,5.4231,5.2058,5.3111,5.2875,5.168,5.3013,5.2816,5.1483,5.0815,4.9826,4.8588,4.7399,4.6488,4.594,4.6191,4.6308,4.6308,0.0,0.0,0.0,0.0,0.0,0.0,0.0,0.0,0.0,0.0,0.0,0.0,0.0,0.0,0.0,0.0,0.0,0.0,2.9814,2.9814,2.9814,2.9814,2.9804,3.0316,3.1371,3.1938,3.2756,3.3897,3.4427,3.4137,3.309,3.248,3.2204,3.2204,3.2204,3.2541,3.309,3.309,3.3732,3.4703,3.4703,3.5018,3.5508,0.0,0.0,0.0,0.0,0.0,0.0,0.0,3.5641,3.4904,3.6041,3.6393,3.6393,3.6393,3.9133,4.2048,4.1428,4.2507,4.4353,4.6522,4.5457,4.5171,5.0184,4.9163,4.8705,5.4235,5.4486,5.3532,5.3013,5.3339,5.3708,5.3708,5.5114,5.62,5.62,5.62,5.62,5.62,5.62,5.6426,5.696,5.701,5.7255,5.7851,5.7901,5.7901,5.7901,5.7901,5.7901,5.7926,5.7926,5.7926,5.7926,5.7926,5.7926,5.7926,5.8434,5.7303,5.4805,5.6943,5.5646,5.1922,5.6112,5.5472,5.1668,5.4309,5.3087,4.9574,4.9574,4.8226,4.6308,4.6308,4.6308,4.6308,0.0,0.0,0.0,0.0,0.0,0.0,0.0,0.0,0.0,0.0,0.0,0.0,0.0,0.0,0.0,0.0,0.0,0.0,2.9814,2.9814,2.9814,2.9814,3.0156,3.0497,3.0824,3.215,3.337,3.4463,3.4237,3.3972,3.3646,3.2667,3.2441,3.2828,3.2828,3.2939,3.309,3.309,3.3732,3.4703,3.4703,3.5266,3.6093,0.0,0.0,0.0,0.0,0.0,0.0,0.0,0.0,0.0,3.5656,3.6307,3.6884,3.6519,3.8052,3.9748,3.9132,4.2457,4.5909,4.5006,4.6928,4.9565,5.1423,5.0921,5.0946,5.4177,5.3625,5.2653,5.2845,5.4009,5.4637,5.3833,5.5114,5.6326,5.6728,5.6778,5.6928,5.7349,5.7399,5.7449,5.7625,5.7631,5.7725,5.7901,5.7901,5.8077,5.8434,5.8459,5.8654,5.9006,5.9031,5.9031,5.9031,5.9031,5.9031,5.9031,5.9182,5.8629,5.755,5.8562,5.8346,5.7243,5.8481,5.8307,5.691,5.4583,5.1131,4.7273,4.7273,4.688,4.6308,4.6308,4.6308,4.6308,0.0,0.0,0.0,0.0,0.0,0.0,0.0,0.0,3.2298,3.2298,3.2788,3.2788,0.0,0.0,0.0,2.9876,2.9814,2.9814,2.9814,2.9814,2.9914,3.0105,3.0422,3.0789,3.1225,3.2677,3.3495,3.3699,3.3621,3.3445,3.3208,3.2767,3.2753,3.3115,3.3556,3.3632,3.3406,3.3406,3.3922,3.4703,3.4703,3.5378,3.6368,0.0,0.0,0.0,0.0,0.0,0.0,0.0,0.0,0.0,3.5782,3.6344,3.7085,3.8052,3.9383,4.0815,4.2233,4.5146,4.7832,4.8049,4.9882,5.1925,5.313,5.3331,5.3557,5.468,5.4285,5.3741,5.3866,5.4888,5.5566,5.5096,5.5849,5.6702,5.728,5.7355,5.7481,5.7851,5.7901,5.7976,5.8202,5.8227,5.8303,5.8529,5.8529,5.8679,5.8987,5.9012,5.9182,5.9483,5.9483,5.9483,5.9483,5.9483,5.9483,5.9483,5.9483,5.9332,5.9012,5.9357,5.9483,5.9386,5.7628,5.6872,5.651,5.1937,4.8473,4.6055,4.6055,4.6055,4.6074,4.623,4.6308,4.6308,0.0,0.0,0.0,0.0,0.0,0.0,0.0,3.3411,3.3962,3.3876,3.3868,3.3524,0.0,0.0,0.0,2.9866,2.9814,2.9814,2.9814,2.9814,3.003,3.0573,3.0688,3.1225,3.2254,3.3294,3.3294,3.2204,3.2753,3.2753,3.2204,3.2753,3.3065,3.3215,3.4187,3.4363,3.3897,3.3847,3.4137,3.4628,3.4628,3.5278,3.6242,3.6242,0.0,0.0,0.0,0.0,0.0,0.0,0.0,0.0,3.623,3.6418,3.706,4.0048,4.1907,4.3894,4.7923,4.9053,4.9949,5.3491,5.3424,5.3005,5.5064,5.5892,5.6068,5.5491,5.5792,5.6018,5.5616,5.5942,5.6451,5.6985,5.7085,5.7305,5.7901,5.7976,5.8001,5.8052,5.8052,5.8252,5.8736,5.8761,5.8961,5.9458,5.9483,5.9483,5.9483,5.9483,5.9483,5.9483,5.9483,5.9483,5.9483,5.9483,5.9483,5.9483,5.9483,5.9483,5.9483,5.9483,5.9483,5.927,5.5248,5.3351,5.279,4.8245,4.62,4.5966,4.5811,4.5744,4.5803,4.6152,4.6308,4.6308,0.0,0.0,0.0,0.0,0.0,0.0,3.2593,3.3411,3.3739,3.2991,3.2894,3.2531,3.1609,3.0658,0.0,2.9808,2.9814,2.9814,2.9814,2.9814,3.003,3.0573,3.1401,3.219,3.2878,3.3165,3.2928,3.2204,3.234,3.234,3.2204,3.233,3.2867,3.3746,3.3972,3.3997,3.3872,3.3456,3.3581,3.4062,3.4062,3.4474,3.5066,3.5066,3.533,0.0,0.0,0.0,0.0,0.0,0.0,0.0,3.6368,3.6695,3.716,3.7864,4.0413,4.3215,4.4156,4.7823,5.1599,5.2427,5.3984,5.5548,5.6451,5.6426,5.6068,5.5491,5.5509,5.5792,5.6527,5.6734,5.7029,5.7606,5.77,5.7901,5.8434,5.8535,5.8685,5.9106,5.9156,5.9207,5.9307,5.9332,5.9382,5.9483,5.9483,5.9483,5.9483,5.9483,5.9483,5.9483,5.9483,5.9483,5.9483,5.9483,5.9483,5.9483,5.9483,5.9483,5.9483,5.9483,5.9483,5.9444,5.8481,5.6853,5.4687,5.2324,5.0079,4.7996,4.6668,4.6172,4.6172,4.6269,4.6308,4.6308,0.0,0.0,0.0,0.0,0.0,0.0,0.0,0.0,3.5069,3.3468,3.2868,3.2236,3.1296,3.0352,0.0,0.0,2.9814,2.9814,2.9814,2.9814,3.0156,3.0959,3.1752,3.2365,3.2652,3.2677,3.2265,3.1416,3.1416,3.1702,3.2204,3.2491,3.3219,3.4288,3.4552,3.4527,3.4237,3.3707,3.3646,3.3897,3.3897,3.4212,3.4703,3.4703,3.4867,3.5143,3.5419,0.0,0.0,0.0,0.0,0.0,0.0,0.0,3.7512,3.912,4.0451,4.2222,4.5964,4.8702,5.1071,5.3482,5.5322,5.6602,5.6602,5.6602,5.6502,5.6226,5.615,5.6326,5.6885,5.7255,5.7606,5.8183,5.8284,5.8478,5.9006,5.9062,5.9207,5.9458,5.9483,5.9483,5.9483,5.9483,5.9483,5.9483,5.9483,5.9483,5.9483,5.9483,5.9483,5.9483,5.9483,5.9483,5.9483,5.9483,5.9483,5.9483,5.9483,5.9483,5.9483,5.9483,5.9483,5.9425,5.8383,5.7108,5.5533,5.2337,5.018,4.8693,4.6786,4.5996,4.6035,4.623,4.6308,4.6442,0.0,0.0,0.0,0.0,0.0,0.0,0.0,0.0,0.0,3.3839,3.2973,3.2173,3.1082,3.0282,2.9814,0.0,0.0,0.0,2.9814,2.9889,3.0331,3.121,3.1853,3.2154,3.2054,3.2154,3.1667,3.0588,3.0588,3.115,0.0,0.0,3.3671,3.4728,3.5168,3.5118,3.4653,3.4022,3.3746,3.3746,3.3746,3.4022,3.4413,3.4413,3.4477,3.4628,3.5168,3.5408,3.5595,3.6205,0.0,0.0,0.0,0.0,3.7751,4.0627,4.0904,4.1694,4.8225,4.9757,5.0611,5.5196,5.6677,5.6885,5.6451,5.6677,5.6985,5.6985,5.6985,5.706,5.7255,5.7681,5.8227,5.8736,5.8836,5.8987,5.9433,5.9483,5.9483,5.9483,5.9483,5.9483,5.9483,5.9483,5.9483,5.9483,5.9483,5.9483,5.9483,5.9483,5.9483,5.9483,5.9483,5.9483,5.9483,5.9483,5.9483,5.9483,5.9483,5.9483,5.9483,5.9483,5.9483,5.9386,5.7554,5.6709,5.6291,5.2023,5.0176,4.9841,4.7356,4.6387,4.6405,4.6761,4.6858,4.7206,0.0,0.0,0.0,0.0,0.0,0.0,0.0,0.0,0.0,0.0,3.2164,3.1938,3.0177,2.9876,2.9814,2.9814,2.9814,2.9814,2.9814,0.0,0.0,3.0698,3.1677,3.1978,3.1522,3.1953,3.1667,3.0588,3.0588,3.115,0.0,0.0,0.0,3.4703,3.4778,3.4778,3.4628,3.3632,3.3215,3.3215,3.3215,3.3266,3.3305,3.3305,3.3607,3.4073,3.4603,3.5118,3.5595,3.6205,3.6393,0.0,0.0,0.0,3.7374,3.8291,4.0463,4.2875,4.4392,4.851,5.3088,5.6132,5.6935,5.6985,5.691,5.6935,5.6985,5.6985,5.6985,5.7305,5.8297,5.8554,5.8761,5.9307,5.9382,5.9408,5.9483,5.9483,5.9483,5.9483,5.9483,5.9483,5.9483,5.9483,5.9483,5.9483,5.9483,5.9483,5.9483,5.9483,5.9483,5.9483,5.9483,5.9483,5.9483,5.9483,5.9483,5.9483,5.9483,5.9483,5.9483,5.9483,5.9483,5.9463,5.9192,5.8782,5.8216,5.6097,5.4958,5.4185,5.0499,4.9086,4.9086,4.9148,4.9169,4.9467,0.0,0.0,0.0,0.0,0.0,0.0,0.0,0.0,0.0,0.0,0.0,3.1892,3.0011,2.9814,2.9814,2.9814,2.9814,2.9814,2.9814,3.003,3.0297,3.0598,3.1326,3.1512,3.0949,3.1486,3.1235,3.0156,3.0156,0.0,0.0,3.2828,3.3822,0.0,0.0,0.0,3.4628,3.3556,3.309,3.309,3.309,3.4407,3.6105,3.3919,3.4597,3.6507,3.4851,3.4603,3.5143,3.5693,3.6118,3.6393,3.6393,0.0,0.0,0.0,3.9509,4.1945,4.5612,4.969,5.3547,5.6308,5.6985,5.691,5.6627,5.6784,5.7085,5.743,5.7757,5.8108,5.8604,5.8956,5.9232,5.9458,5.9483,5.9483,5.9483,5.9483,5.9483,5.9483,5.9483,5.9483,5.9483,5.9483,5.9483,5.9483,5.9483,5.9483,5.9483,5.9483,5.9483,5.9483,5.9483,5.9483,5.9483,5.9483,5.9483,5.9483,5.9483,5.9483,5.9483,5.9483,5.9483,5.9483,5.9483,5.9357,5.8983,5.7022,5.6056,5.5568,5.2584,5.1448,5.1448,5.1448,5.1448,5.1761,0.0,0.0,0.0,0.0,0.0,0.0,0.0,0.0,0.0,0.0,0.0,3.1609,2.9982,0.0,0.0,0.0,2.9814,2.9814,2.9814,2.9814,2.998,3.0372,3.0909,3.0959,3.0397,3.0909,3.0743,2.9814,0.0,0.0,3.2441,3.3029,3.4173,0.0,3.5143,0.0,0.0,0.0,0.0,3.3391,3.422,3.6306,3.8668,3.6607,3.7701,3.9911,3.657,3.573,3.6133,3.5832,3.6031,3.6393,3.6393,3.7135,0.0,0.0,0.0,4.084,4.609,4.9238,5.1783,5.497,5.5974,5.62,5.6376,5.6828,5.7405,5.7983,5.8529,5.8886,5.8886,5.9232,5.9483,5.9483,5.9483,5.9483,5.9483,5.9483,5.9483,5.9483,5.9483,5.9483,5.9483,5.9483,5.9483,5.9483,5.9483,5.9483,5.9483,5.9483,5.9483,5.9483,5.9483,5.9483,5.9483,5.9483,5.9483,5.9483,5.9483,5.9483,5.9483,5.9483,5.9483,5.9483,5.9483,5.9483,5.9367,5.7711,5.7035,5.6817,5.4598,5.3743,5.3722,5.3722,5.3722,5.4049,0.0,0.0,0.0,0.0,0.0,0.0,0.0,0.0,0.0,0.0,0.0,3.0886,2.9914,2.9814,2.9814,2.9814,2.9814,2.9814,2.9814,2.9814,2.9804,2.9839,3.0357,0.0,2.9854,3.0372,3.0382,2.9814,0.0,0.0,3.3065,3.3607,3.4762,3.6343,3.5732,3.5458,3.5382,0.0,0.0,3.4148,3.7311,3.8718,3.922,4.2133,4.3675,4.3876,4.0576,3.9747,3.981,3.721,3.6368,3.6393,3.6393,3.7135,3.8002,0.0,0.0,0.0,4.3263,4.4945,4.6944,5.1272,5.313,5.4411,5.6483,5.743,5.8001,5.8535,5.9106,5.9458,5.9458,5.9483,5.9483,5.9483,5.9483,5.9483,5.9483,5.9483,5.9483,5.9483,5.9483,5.9483,5.9483,5.9483,5.9483,5.9483,5.9483,5.9483,5.9483,5.9483,5.9483,5.9483,5.9483,5.9483,5.9483,5.9483,5.9483,5.9483,5.9483,5.9483,5.9483,5.9483,5.9483,5.9483,5.9483,5.9483,5.9508,5.9367,5.9328,5.9115,5.6892,5.6032,5.6015,5.6015,5.6015,5.6335,0.0,0.0,0.0,0.0,0.0,0.0,0.0,0.0,0.0,0.0,0.0,0.0,0.0,3.0333,3.0457,2.9847,2.9814,2.9814,2.9814,2.9814,2.9814,2.9814,3.0633,3.0859,3.0322,3.0834,3.0859,0.0,0.0,3.125,3.2541,3.347,3.46,3.5794,3.5255,3.5193,3.5419,3.3997,0.0,0.0,3.7262,4.0023,4.2484,4.1907,4.4227,4.7205,0.0,0.0,0.0,3.9371,3.7864,3.6393,3.6393,3.7135,3.8128,3.8868,3.9371,4.0375,4.3474,4.4604,4.5824,4.9565,5.1833,5.349,5.4619,5.6445,5.8052,5.8585,5.9131,5.9483,5.9483,5.9483,5.9483,5.9483,5.9483,5.9483,5.9483,5.9483,5.9483,5.9483,5.9483,5.9483,5.9483,5.9483,5.9483,5.9483,5.9483,5.9483,5.9483,5.9483,5.9483,5.9483,5.9483,5.9483,5.9483,5.9483,5.9483,5.9483,5.9483,5.9483,5.9483,5.9483,5.9483,5.9483,5.9483,5.9483,5.9483,5.9483,5.9483,5.9425,5.8617,5.8324,5.8305,5.8305,5.8305,5.8422,0.0,0.0,0.0,3.6319,0.0,3.367,3.3022,3.22,3.1332,3.039,0.0,0.0,0.0,0.0,3.0811,2.9876,2.9814,2.9814,2.9814,2.9814,2.9814,2.9814,3.0658,3.0949,3.0613,3.1135,3.1145,0.0,0.0,0.0,0.0,3.337,3.4477,3.5458,3.4753,3.494,0.0,0.0,0.0,3.5363,0.0,0.0,4.3369,4.4574,4.659,0.0,0.0,0.0,0.0,0.0,4.1229,3.9572,3.863,3.8341,3.8504,3.9421,3.9697,4.0187,4.237,4.3098,4.4027,4.738,4.9339,5.108,5.3683,5.5566,5.7217,5.866,5.9257,5.9483,5.9483,5.9483,5.9483,5.9483,5.9483,5.9483,5.9483,5.9483,5.9483,5.9483,5.9483,5.9483,5.9483,5.9483,5.9483,5.9483,5.9483,5.9483,5.9483,5.9483,5.9483,5.9483,5.9483,5.9483,5.9483,5.9483,5.9483,5.9483,5.9483,5.9483,5.9483,5.9483,5.9483,5.9483,5.9483,5.9483,5.9483,5.9483,5.9483,5.9483,5.9483,5.9483,5.9483,5.9483,5.9483,5.9483,0.0,3.7943,3.8182,3.7481,3.5289,3.3614,3.3587,3.1474,3.0219,3.1144,0.0,0.0,0.0,0.0,0.0,2.9901,2.9804,2.9814,2.9814,2.9814,2.9814,2.9804,3.0347,3.0638,3.0638,3.116,3.116,3.0638,3.1702,3.2204,0.0,0.0,3.4463,3.5408,3.4388,3.4837,3.6318,0.0,3.5483,3.6286,0.0,4.5165,4.1712,0.0,0.0,0.0,4.6728,4.6788,0.0,4.6637,0.0,4.5648,4.2939,4.0641,3.8994,3.9534,3.9697,3.9697,0.0,0.0,0.0,4.4532,4.5412,4.7145,5.3632,5.4805,5.5433,5.8704,5.9408,5.9458,5.9483,5.9483,5.9483,5.9483,5.9483,5.9483,5.9483,5.9483,5.9483,5.9483,5.9483,5.9483,5.9483,5.9483,5.9483,5.9483,5.9483,5.9483,5.9483,5.9483,5.9483,5.9483,5.9483,5.9483,5.9483,5.9483,5.9483,5.9483,5.9483,5.9483,5.9483,5.9483,5.9483,5.9483,5.9483,5.9483,5.9483,5.9483,5.9483,5.9483,5.9483,5.9483,5.9483,5.9483,5.9483,5.9483,3.8123,3.8281,3.7972,3.6569,3.5118,3.3906,3.3147,3.2517,3.2215,0.0,0.0,0.0,0.0,0.0,0.0,3.0392,3.0372,3.0196,2.9839,2.9814,2.998,3.0347,3.0884,3.1361,3.1752,3.1903,3.1903,3.1752,3.2043,3.2204,3.2229,3.337,3.4073,0.0,3.4438,3.4739,3.5116,3.4589,0.0,0.0,4.3625,4.6347,0.0,0.0,0.0,0.0,0.0,5.0218,4.8611,0.0,4.6813,4.1343,0.0,3.9396,3.8994,3.9534,3.9697,3.9697,3.9697,0.0,0.0,0.0,0.0,0.0,4.8134,5.087,5.3507,5.6036,5.7499,5.8579,5.9357,5.9483,5.9483,5.9483,5.9483,5.9483,5.9483,5.9483,5.9483,5.9483,5.9483,5.9483,5.9483,5.9483,5.9483,5.9483,5.9483,5.9483,5.9483,5.9483,5.9483,5.9483,5.9483,5.9483,5.9483,5.9483,5.9483,5.9483,5.9483,5.9483,5.9483,5.9483,5.9483,5.9483,5.9483,5.9483,5.9483,5.9483,5.9483,5.9483,5.9483,5.9483,5.9483,5.9483,5.9483,5.9483,3.8811,3.905,3.8854,3.7667,3.6183,3.4878,3.4039,3.3595,3.3308,0.0,0.0,0.0,0.0,0.0,0.0,3.1301,3.105,3.0809,3.0492,3.0467,3.0608,3.0924,3.1461,3.1888,3.2204,3.2441,3.2466,3.2204,3.2466,3.2441,3.2229,3.3144,3.3682,3.3922,3.4237,3.4603,3.5018,0.0,0.0,0.0,4.5005,0.0,0.0,5.2887,5.4734,0.0,0.0,0.0,5.049,5.4747,5.1032,0.0,0.0,0.0,0.0,0.0,0.0,3.9697,3.9697,3.9697,3.9873,4.0625,0.0,0.0,4.7481,4.9941,5.2477,5.6319,5.7876,5.8755,5.9382,5.9483,5.9483,5.9483,5.9483,5.9483,5.9483,5.9483,5.9483,5.9483,5.9483,5.9483,5.9483,5.9483,5.9483,5.9483,5.9483,5.9483,5.9483,5.9483,5.9483,5.9483,5.9483,5.9483,5.9483,5.9483,5.9483,5.9483,5.9483,5.9483,5.9483,5.9483,5.9483,5.9483,5.9483,5.9483,5.9483,5.9483,5.9483,5.9483,5.9483,5.9483,5.9483,5.9483,5.9483,5.9483,0.0,4.0088,4.0291,3.954,3.781,3.6286,3.5595,3.484,3.4378,0.0,3.5157,0.0,0.0,0.0,0.0,0.0,3.1938,3.1547,3.1486,3.1421,3.1421,3.1497,3.1964,3.2229,3.2305,3.2878,3.2928,3.238,3.2928,3.2953,3.248,3.2903,0.0,3.3897,3.3897,3.4438,3.5332,3.5519,0.0,3.7865,4.7149,4.8107,0.0,0.0,5.4698,5.0477,5.3267,5.3181,5.2565,5.7859,5.6348,0.0,0.0,0.0,0.0,0.0,3.9948,4.0149,3.9798,3.9697,3.9923,0.0,0.0,0.0,4.8727,4.9967,5.1356,5.6972,5.8278,5.8453,5.8629,5.8679,5.8704,5.8755,5.8981,5.9207,5.9458,5.9483,5.9483,5.9483,5.9483,5.9483,5.9483,5.9483,5.9483,5.9483,5.9483,5.9483,5.9483,5.9483,5.9483,5.9483,5.9483,5.9483,5.9483,5.9483,5.9483,5.9483,5.9483,5.9483,5.9483,5.9483,5.9483,5.9483,5.9483,5.9483,5.9483,5.9483,5.9483,5.9483,5.9483,5.9483,5.9483,5.9483,5.9483,5.9483,4.1005,4.1134,4.0594,3.8652,3.8349,3.7708,3.5777,3.6861,3.8095,3.8615,0.0,0.0,0.0,0.0,0.0,0.0,3.333,3.2552,3.2089,3.1637,3.1587,3.2039,3.2154,3.2441,3.2903,3.3456,3.3696,3.3571,3.3696,3.3897,3.4212,3.3456,0.0,0.0,3.3897,3.4022,3.4288,3.5641,0.0,4.1355,4.4586,0.0,5.0266,5.4352,5.6905,5.8267,5.7862,5.6394,5.4456,5.3486,5.4535,5.5007,0.0,0.0,0.0,0.0,0.0,0.0,0.0,0.0,0.0,0.0,0.0,0.0,0.0,4.4539,4.6446,4.8997,5.0578,5.195,5.3306,5.3557,5.3683,5.4117,5.5673,5.7474,5.9232,5.9483,5.9483,5.9483,5.9483,5.9483,5.9483,5.9483,5.9483,5.9483,5.9483,5.9483,5.9483,5.9483,5.9483,5.9483,5.9483,5.9483,5.9483,5.9483,5.9483,5.9483,5.9483,5.9483,5.9483,5.9483,5.9483,5.9483,5.9483,5.9483,5.9483,5.9483,5.9483,5.9483,5.9483,5.9483,5.9483,5.9483,5.9483,5.9483,4.1892,4.1892,4.1362,3.9657,3.9864,3.9674,3.7959,3.9435,4.0445,3.9596,0.0,0.0,0.0,0.0,0.0,0.0,0.0,0.0,3.3484,3.2932,3.2767,3.3043,3.2792,3.2928,3.3481,3.3746,3.4022,3.4288,3.4288,3.4288,3.4288,3.4011,3.5256,0.0,3.5587,3.6122,3.8442,3.6996,3.7826,4.0533,4.554,0.0,5.3442,5.6987,5.9205,6.0318,5.9426,5.9014,5.84,5.5226,5.4688,0.0,0.0,4.9063,4.7255,0.0,4.3765,4.4267,0.0,0.0,0.0,4.0036,0.0,0.0,0.0,4.464,4.616,4.8686,4.9866,5.0695,5.1548,5.1699,5.1875,5.241,5.4361,5.5993,5.652,5.8278,5.9483,5.9483,5.9483,5.9483,5.9483,5.9483,5.9483,5.9483,5.9483,5.9483,5.9483,5.9483,5.9483,5.9483,5.9483,5.9483,5.9483,5.9483,5.9483,5.9483,5.9483,5.9483,5.9483,5.9483,5.9483,5.9483,5.9483,5.9483,5.9483,5.9483,5.9483,5.9483,5.9483,5.9483,5.9483,5.9483,5.9483,5.9483,4.258,4.258,4.2236,4.1245,4.1564,4.1602,4.0587,4.1881,4.2191,4.0037,0.0,0.0,0.0,0.0,0.0,0.0,0.0,0.0,3.621,3.5638,3.5344,3.5344,3.4095,3.4022,3.5318,3.4603,3.4413,3.4853,3.4853,3.4678,3.4385,3.4589,3.6716,4.0266,3.8108,0.0,0.0,0.0,0.0,4.0808,0.0,5.1226,5.3169,5.772,5.9562,5.9782,5.9979,6.1051,6.1826,5.7966,5.558,5.4175,5.3758,5.1147,0.0,0.0,0.0,0.0,0.0,0.0,0.0,0.0,0.0,4.1656,0.0,0.0,0.0,4.9154,4.9707,4.9732,4.9832,4.9857,5.0008,5.0444,5.2528,5.3775,5.2729,5.5742,5.8177,5.8523,5.9207,5.9483,5.9056,5.893,5.9031,5.9458,5.9106,5.9056,5.9483,5.9483,5.9483,5.9483,5.9483,5.9483,5.9483,5.9483,5.9483,5.9483,5.9483,5.9483,5.9483,5.9483,5.9483,5.9483,5.9483,5.9483,5.9483,5.9483,5.9483,5.9483,5.9483,5.9483,5.9483,5.9483,5.9483,5.9483,4.321,4.321,4.3029,4.2486,4.2844,4.3017,4.248,4.3427,4.3674,0.0,0.0,0.0,0.0,0.0,0.0,0.0,0.0,0.0,4.162,4.0852,4.0556,4.0556,3.6685,3.6416,4.0467,3.7103,3.5344,3.5408,3.5408,3.5643,3.6091,3.5141,3.5244,3.6393,4.1106,0.0,0.0,0.0,4.6108,0.0,4.8828,4.7681,0.0,5.0714,5.4654,5.8096,6.1038,6.2227,6.1695,0.0,5.6489,5.6453,0.0,5.0904,5.3314,4.4389,0.0,0.0,0.0,0.0,0.0,0.0,4.1605,0.0,0.0,0.0,4.3478,4.3854,0.0,4.408,4.4568,0.0,0.0,4.4719,4.7446,4.933,4.8661,5.1096,5.3482,5.4981,5.8152,5.9438,5.7462,5.6853,5.7399,5.9357,5.7675,5.7424,5.9382,5.9483,5.9483,5.9483,5.9483,5.9483,5.9483,5.9483,5.9483,5.9483,5.9483,5.9483,5.9483,5.9483,5.9483,5.9483,5.9483,5.9483,5.9483,5.9483,5.9483,5.9483,5.9483,5.9483,5.9483,5.9483,5.9483,5.9483,4.33,4.3599,4.3712,4.3162,4.4173,4.4898,4.4357,4.4064,4.3421,4.2157,0.0,0.0,0.0,0.0,0.0,0.0,0.0,4.5783,0.0,0.0,4.1744,3.9082,3.6518,3.6218,3.8451,3.6531,3.567,3.6006,3.6006,3.5981,3.5869,3.5767,3.7379,4.0561,4.3392,0.0,4.4747,0.0,4.6853,0.0,0.0,0.0,0.0,5.313,5.7127,5.8855,6.0563,6.0999,6.0423,0.0,5.6192,0.0,0.0,0.0,0.0,0.0,0.0,0.0,0.0,0.0,0.0,0.0,0.0,0.0,4.2964,0.0,4.3014,0.0,0.0,0.0,0.0,0.0,0.0,0.0,4.6075,4.7506,4.6627,4.9741,5.2477,5.3482,5.4745,5.5799,5.6477,5.6928,5.7826,5.9382,5.8052,5.7851,5.9408,5.9483,5.9483,5.9483,5.9483,5.9483,5.9483,5.9483,5.9483,5.9483,5.9483,5.9483,5.9483,5.9483,5.9483,5.9483,5.9483,5.9483,5.9483,5.9483,5.9483,5.9483,5.9483,5.9483,5.9483,5.9483,5.9483,5.9483,4.33,4.3698,4.4002,4.3942,4.5094,4.5887,4.5454,4.4314,4.3038,4.1764,0.0,0.0,4.1245,4.2697,0.0,0.0,4.9479,4.9448,0.0,0.0,4.4964,4.3098,3.8631,0.0,4.027,3.7449,3.6095,3.6393,3.6393,3.6244,3.5983,3.642,3.8673,4.2448,4.4539,4.6766,4.8965,0.0,4.8442,4.7265,4.8018,4.8469,4.9437,5.6304,5.9174,5.961,6.053,6.0274,5.9382,5.8629,5.5717,0.0,5.6696,0.0,5.0318,0.0,0.0,0.0,4.4288,0.0,0.0,0.0,0.0,0.0,0.0,0.0,0.0,0.0,0.0,0.0,0.0,0.0,0.0,0.0,0.0,4.6035,4.4985,4.7707,5.0176,5.1189,5.1649,5.2904,0.0,5.6093,5.6997,5.8704,5.7675,5.7744,5.9408,5.9483,5.9483,5.9483,5.9483,5.9483,5.9483,5.9483,5.9483,5.9483,5.9483,5.9483,5.9483,5.9483,5.9483,5.9483,5.9483,5.9483,5.9483,5.9483,5.9483,5.9483,5.9483,5.9483,5.9483,5.9483,5.9483,5.9483,4.33,4.3329,4.3748,4.5024,4.5284,4.5363,4.5396,4.4314,4.3038,0.0,0.0,0.0,0.0,0.0,0.0,0.0,0.0,6.0956,5.724,0.0,5.2492,5.7493,0.0,4.178,0.0,4.1641,3.6909,3.6393,3.6393,3.6669,3.7148,3.7185,3.7536,3.844,4.4124,4.5971,4.5099,4.9598,5.3166,5.5666,5.4092,5.5691,5.8908,0.0,5.8306,5.9753,6.1636,0.0,0.0,5.6438,5.539,0.0,0.0,0.0,0.0,0.0,0.0,0.0,0.0,0.0,0.0,4.4443,0.0,0.0,0.0,0.0,4.3765,0.0,0.0,0.0,0.0,0.0,0.0,0.0,0.0,0.0,0.0,0.0,0.0,0.0,0.0,0.0,0.0,5.3223,5.3615,0.0,5.5609,5.6111,5.9332,5.9483,5.9483,5.9483,5.9483,5.9483,5.9483,5.9483,5.9483,5.9483,5.9483,5.9483,5.9483,5.9483,5.9483,5.9483,5.9483,5.9483,5.9483,5.9483,5.9483,5.9483,5.9483,5.9483,5.9483,5.9483,5.9483,5.9483,4.3967,4.4326,4.4766,4.5214,4.6022,4.6052,4.4397,4.3062,4.2692,0.0,4.4743,0.0,0.0,5.221,5.5166,0.0,0.0,6.0618,5.935,5.4912,0.0,0.0,0.0,4.1556,0.0,4.1256,3.7638,3.7449,3.7449,3.7538,3.7739,3.7739,3.8052,3.8818,4.4283,4.7143,4.8158,0.0,0.0,0.0,0.0,5.5509,5.7423,0.0,5.9084,5.9579,6.0246,6.0055,0.0,5.8428,5.6897,5.5559,5.6463,5.4988,5.3097,5.3826,5.3524,5.2553,5.0645,0.0,5.185,4.7581,0.0,0.0,0.0,0.0,0.0,0.0,0.0,0.0,0.0,0.0,0.0,0.0,0.0,0.0,0.0,0.0,0.0,0.0,0.0,0.0,0.0,0.0,0.0,0.0,5.7198,0.0,5.9935,5.9684,5.9483,5.9483,5.9483,5.9483,5.9483,5.9483,5.9483,5.9483,5.9483,5.9483,5.9483,5.9483,5.9483,5.9483,5.9483,5.9483,5.9483,5.9483,5.9483,5.9483,5.9483,5.9709,6.0035,6.0035,6.0035,6.0111,4.4676,4.5204,4.5497,4.5056,4.553,4.5241,4.3146,4.2455,0.0,0.0,4.6222,0.0,5.2561,0.0,5.6251,0.0,6.1218,6.1321,5.9932,5.7067,0.0,5.6705,4.8818,0.0,0.0,0.0,4.1002,4.0758,3.8917,3.8115,3.8316,3.8316,3.863,3.9322,4.2709,4.6329,5.0023,5.2123,5.4406,0.0,0.0,5.6764,0.0,0.0,5.9006,5.8428,0.0,5.9483,5.9483,5.9483,5.8303,5.7166,5.893,5.7066,5.4579,5.6337,5.5609,5.4052,5.3273,5.4353,5.4662,5.0444,5.0494,0.0,4.6225,0.0,4.5623,0.0,0.0,0.0,0.0,0.0,0.0,0.0,0.0,0.0,0.0,4.379,0.0,0.0,0.0,0.0,0.0,0.0,0.0,0.0,0.0,0.0,0.0,5.9966,5.9709,5.9508,5.9483,5.9483,5.9483,5.9483,5.9483,5.9483,5.9483,5.9483,5.9483,5.9483,5.9483,5.9483,5.9483,5.9483,5.9508,5.9709,5.9784,5.9809,6.001,6.0311,6.0593,6.0367,6.0442,6.0713,4.5345,4.588,4.5922,4.4698,4.3949,4.3114,4.1967,4.2687,4.4216,0.0,4.7953,5.0285,5.4355,5.7657,5.9815,6.0338,6.3342,6.3639,5.9918,5.9452,0.0,0.0,5.6962,5.6561,6.1287,0.0,0.0,0.0,4.0656,3.8366,3.8944,3.8944,3.9208,3.9697,3.9735,4.3746,5.0474,4.989,5.3758,6.0217,5.9709,5.9433,5.9332,5.9458,5.8127,5.6495,5.8704,5.9483,5.9483,5.9483,5.956,5.9618,5.9521,5.956,5.9618,5.9521,5.9483,5.9031,5.6928,5.6351,5.5717,5.298,5.2277,5.1523,0.0,0.0,4.9104,0.0,0.0,0.0,0.0,0.0,0.0,0.0,0.0,0.0,0.0,0.0,0.0,0.0,0.0,0.0,0.0,0.0,0.0,0.0,0.0,0.0,0.0,6.0191,5.989,5.9508,5.9483,5.9483,5.9483,5.9483,5.9483,5.9483,5.9483,5.9483,5.9483,5.9533,5.9533,5.9533,5.9558,5.9583,5.9608,6.0116,6.0342,6.0392,6.0984,6.121,6.1185,6.0613,6.0763,6.1361,4.6031,4.6215,4.6277,4.5929,4.4558,4.37,4.425,4.5103,0.0,0.0,5.4332,5.806,6.2498,6.4172,6.5244,6.5883,6.7173,0.0,0.0,0.0,0.0,6.7547,5.9598,5.7443,6.2536,5.2556,0.0,4.7054,4.184,3.9358,3.9484,3.9484,3.9584,3.9735,4.0124,4.4624,5.1889,5.0715,5.3884,5.9684,5.9558,5.8504,5.7223,0.0,5.8127,5.6495,5.8704,5.9483,5.9483,5.9483,6.045,6.141,5.9939,6.0488,6.1372,5.9901,5.9483,5.9382,5.8805,5.8654,5.8102,5.5723,5.4863,5.3934,5.1574,5.1147,0.0,0.0,0.0,0.0,0.0,0.0,0.0,0.0,0.0,0.0,0.0,0.0,0.0,0.0,0.0,0.0,0.0,0.0,0.0,0.0,0.0,0.0,6.0839,5.8604,5.7932,5.9433,5.9483,5.9483,5.9483,5.9483,5.9483,5.9483,5.9483,5.9483,5.9508,5.989,6.0091,6.0116,6.0563,6.0758,6.0783,6.0889,6.0984,6.0964,6.1135,6.1461,6.1768,6.1617,6.1898,6.24,4.7179,4.7644,4.7881,4.7304,4.7286,4.7309,4.7124,4.5888,4.7042,5.288,5.6273,0.0,6.3796,6.6438,6.8032,6.8391,6.8764,0.0,6.6125,0.0,0.0,6.6922,6.3613,6.3241,6.6434,5.8506,0.0,5.0914,0.0,4.194,3.9697,3.9697,3.9697,3.9722,4.0261,4.3816,4.9579,5.1694,5.4712,5.8152,5.9106,5.8755,0.0,5.9031,5.873,5.7801,5.9056,6.0035,6.0641,5.9792,6.0793,6.2059,6.0112,6.0265,6.0926,5.983,5.9483,5.9483,5.9483,5.9483,5.9207,5.7951,5.7424,5.6595,5.4411,5.3909,5.3941,0.0,5.3766,5.369,0.0,0.0,0.0,0.0,0.0,0.0,0.0,0.0,0.0,0.0,0.0,0.0,0.0,0.0,0.0,0.0,0.0,0.0,0.0,5.7575,5.7524,5.8755,5.9257,5.9483,5.9483,5.9483,5.9483,5.9483,5.9483,5.9608,5.9859,6.0166,6.0442,6.0713,6.104,6.121,6.121,6.1441,6.1542,6.1567,6.1818,6.2094,6.235,6.235,6.2551,6.2802,4.8547,4.9572,5.0062,4.8817,5.0853,5.2261,5.1122,4.7767,4.7797,5.4478,5.7125,5.9569,6.2595,6.6647,6.9123,6.9123,0.0,6.7535,6.3515,6.7008,6.7711,6.4274,6.7959,7.0366,7.0889,6.5776,6.0613,0.0,0.0,4.5076,3.9942,3.9942,3.9852,3.9722,4.0261,4.261,4.6557,5.3019,5.6103,5.6821,5.873,5.9657,5.9888,5.9888,6.0035,6.024,6.024,6.1014,6.176,6.0074,6.0793,6.2059,6.0112,5.9726,5.9931,5.9686,5.9659,5.9709,5.9709,5.9709,5.9709,5.9709,5.9709,5.9182,5.7179,5.6728,5.6853,5.7255,5.548,5.5397,6.0417,0.0,0.0,0.0,0.0,0.0,0.0,0.0,0.0,0.0,0.0,0.0,0.0,0.0,0.0,0.0,0.0,0.0,0.0,0.0,5.7549,5.8202,5.9056,5.9483,5.9483,5.9483,5.9483,5.9483,5.9483,5.9784,6.0292,6.0367,6.0738,6.1311,6.1386,6.1411,6.1461,6.1918,6.2099,6.2149,6.2626,6.2802,6.2802,6.2802,6.2802,6.2802,4.986,5.0936,5.1607,5.0804,5.2862,5.5626,5.8599,5.845,5.8842,6.1164,6.4622,6.7095,6.7716,6.8997,6.9828,6.9828,7.026,0.0,0.0,0.0,0.0,6.9567,7.0297,7.0799,7.0889,6.5776,6.1048,0.0,0.0,4.638,4.1269,4.1269,4.0706,3.9722,4.0261,4.3876,4.9888,5.538,5.8185,5.8956,5.9332,6.045,6.1891,6.1891,6.2859,6.421,6.421,6.2397,5.9939,5.9599,6.0793,6.2059,6.0112,6.0916,6.2244,6.0623,6.0512,6.0909,6.0909,6.0909,6.0909,6.0909,6.0909,6.0683,5.9765,5.9589,5.9489,5.9131,5.9012,5.8786,5.8033,0.0,0.0,0.0,0.0,0.0,0.0,0.0,0.0,0.0,0.0,0.0,0.0,0.0,0.0,0.0,0.0,0.0,0.0,0.0,5.5648,0.0,5.9633,5.9483,0.0,5.9483,5.9483,5.9483,5.9483,5.9784,6.0317,6.0814,6.1341,6.1893,6.2325,6.2526,6.2526,6.2626,6.2651,6.2676,6.2777,6.2802,6.2802,6.2802,6.2802,6.2802,5.2653,0.0,0.0,0.0,0.0,5.9582,6.216,6.4374,6.5089,6.3235,6.4956,6.6347,6.6347,6.8832,7.0486,7.0486,7.0739,7.0889,7.0889,7.0889,7.0889,7.0889,7.0889,7.0889,7.0889,6.8448,6.4056,5.7709,0.0,4.9548,4.2115,4.1774,4.0932,3.9849,4.309,4.6647,5.0623,5.7003,6.0096,6.0878,6.2368,6.3534,6.4408,6.476,6.4795,6.4832,6.5846,6.4388,6.1877,6.1536,6.2704,6.3865,6.1203,6.1198,6.1986,6.1034,6.0964,6.121,6.121,6.121,6.121,6.121,6.121,6.1115,6.0839,6.0518,6.0217,5.9966,5.991,5.9288,5.7361,5.5196,0.0,0.0,0.0,0.0,0.0,0.0,0.0,0.0,0.0,0.0,0.0,0.0,0.0,0.0,0.0,0.0,0.0,5.4644,5.5214,0.0,0.0,0.0,5.9483,0.0,5.9633,5.989,5.989,6.0362,6.1195,6.1492,6.1918,6.2425,6.2701,6.2802,6.2802,6.2802,6.2802,6.2802,6.2802,6.2802,6.2802,6.2802,6.2802,6.2802,0.0,5.6149,0.0,0.0,6.0574,6.3475,6.4399,6.7775,6.8879,6.5148,6.5095,6.5387,6.5387,6.8683,7.0889,7.0889,7.0889,7.0889,7.0889,7.0889,7.0889,7.0889,7.0889,7.0889,7.0889,7.0889,6.7206,0.0,0.0,5.31,4.4024,4.2897,4.2076,4.1731,4.6396,4.9929,5.2803,5.8774,6.1992,6.3234,6.5504,6.6671,6.7086,6.7615,6.7073,6.6273,6.7846,6.711,6.5345,6.4984,6.5213,6.5241,6.2645,6.1618,6.1386,6.1386,6.1461,6.1542,6.1542,6.1542,6.1542,6.1542,6.1542,6.1492,6.1411,6.0914,6.0442,6.0317,5.994,5.9131,5.733,5.615,0.0,0.0,0.0,0.0,0.0,0.0,0.0,0.0,0.0,0.0,0.0,0.0,0.0,0.0,0.0,0.0,5.5691,5.4231,0.0,0.0,5.8368,5.8498,5.8702,0.0,5.996,6.0493,6.0493,6.104,6.1994,6.1994,6.2275,6.2802,6.2802,6.2802,6.2802,6.2802,6.2802,6.2802,6.2802,6.2802,6.2802,6.2802,6.2802,6.2802,5.8351,0.0,6.0029,6.1322,6.4322,6.6579,6.6696,6.906,7.0661,7.0219,7.0203,7.0233,7.0233,7.0645,7.0889,7.0889,7.0889,7.0889,7.0889,7.0889,7.0889,7.0889,7.0889,7.0889,7.0889,7.0889,6.8761,0.0,0.0,5.6045,4.8697,4.6158,4.5867,4.7541,4.856,5.3193,6.0329,6.1507,6.3836,6.673,6.6989,6.8158,6.9757,6.9815,7.076,7.2095,7.2311,7.1082,6.9461,7.001,6.7607,6.4334,6.4006,6.2998,6.1943,6.1943,6.2275,6.2651,6.2651,6.2651,6.2651,6.2651,6.2651,6.2526,6.2044,6.1492,6.0939,6.0417,6.0267,5.9564,5.7387,5.9313,6.0085,0.0,0.0,0.0,0.0,0.0,0.0,0.0,0.0,0.0,0.0,0.0,0.0,0.0,5.1875,0.0,0.0,0.0,0.0,5.6708,5.5496,5.5231,5.6135,5.887,6.0537,6.1135,6.1135,6.1416,6.1994,6.1994,6.2275,6.2802,6.2802,6.2802,6.2802,6.2802,6.2802,6.2802,6.2802,6.2802,6.2802,6.2802,6.2802,6.2802,6.2406,6.254,6.3123,6.5278,6.6386,6.7537,6.9093,7.0231,7.0889,7.0889,7.0889,7.0889,7.0889,7.0889,7.0889,7.0889,7.0889,7.0889,7.0889,7.0889,7.0889,7.0889,7.0889,7.0889,7.0889,7.0889,6.9167,0.0,0.0,5.7633,5.1724,5.0621,5.1164,5.3243,5.6621,5.993,6.323,6.6995,6.8897,6.953,7.0726,7.1467,7.1849,7.268,7.2703,7.2478,7.3687,7.279,7.1136,7.1413,6.8438,6.4689,6.5052,6.3941,6.2476,6.2476,6.2626,6.2802,6.2802,6.2802,6.2802,6.2802,6.2802,6.2752,6.2526,6.2069,6.1617,6.1371,6.0769,6.0141,5.9633,5.9238,5.9137,5.9608,0.0,0.0,0.0,0.0,0.0,0.0,0.0,0.0,0.0,0.0,0.0,0.0,0.0,0.0,0.0,0.0,0.0,5.7314,5.7402,5.7767,5.8472,5.9714,6.0744,6.1667,6.1667,6.1969,6.2476,6.2476,6.2601,6.2802,6.2802,6.2802,6.2802,6.2802,6.2802,6.2802,6.2802,6.2802,6.2802,6.2802,6.2802,6.2802,6.5667,6.5503,6.5967,6.8421,6.8451,6.8764,7.062,7.0889,7.0979,7.1158,7.1188,7.1128,7.0919,7.0889,7.0889,7.0889,7.0889,7.0889,7.0889,7.0889,7.0889,7.0889,7.0889,0.0,7.0889,7.0889,6.9782,6.7432,6.4141,6.035,5.6173,5.4979,5.6094,5.9267,6.2774,6.5218,6.6952,7.0918,7.2176,7.1637,7.3253,7.3612,7.3326,7.4467,7.4033,7.2964,7.4392,7.362,7.1981,7.2563,6.9402,6.5355,6.6393,6.5319,6.3685,6.3685,6.3265,6.2802,6.2802,6.2802,6.2802,6.2802,6.2802,6.2802,6.2802,6.2375,6.1969,6.1793,6.1115,6.0688,6.1135,5.9689,5.9087,6.0964,0.0,0.0,0.0,0.0,0.0,0.0,0.0,0.0,5.8704,0.0,0.0,0.0,0.0,0.0,0.0,0.0,0.0,0.0,0.0,0.0,5.9435,6.0361,6.1271,6.2245,6.2245,6.2425,6.2802,6.2802,6.2802,6.2802,6.2802,6.2802,6.2802,6.2802,6.2802,6.2802,6.2802,6.2802,6.2802,6.2802,6.2802,6.2802,6.7553,6.7958,6.8571,7.053,7.0859,7.0859,7.0889,7.0889,7.1128,7.1803,7.1893,7.1653,7.0979,7.0889,7.0889,7.0889,7.0889,7.0889,7.0889,7.0889,7.0889,7.0889,7.0889,7.0889,7.0889,7.0889,7.0889,7.0829,0.0,6.4929,6.2884,5.8907,6.0194,6.576,6.5163,6.7818,7.2741,7.2146,7.2295,7.2937,7.3612,7.3881,7.3941,7.4646,7.4869,7.4869,7.4886,7.362,7.2207,7.4189,7.0803,6.6149,6.8208,6.7426,6.5765,6.5765,6.4358,6.2802,6.2802,6.2802,6.2802,6.2802,6.2802,6.2802,6.2802,6.2375,6.1843,6.1336,6.121,6.1185,6.121,6.1592,6.1416,5.9784,6.1346,0.0,0.0,0.0,0.0,0.0,5.6796,5.6312,5.8472,0.0,0.0,0.0,0.0,0.0,0.0,0.0,0.0,5.7329,5.593,0.0,5.7424,6.0468,6.225,6.2802,6.2802,6.2802,6.2802,6.2802,6.2802,6.2802,6.2802,6.2802,6.2802,6.2802,6.2802,6.2802,6.2802,6.2802,6.2802,6.2802,6.2802,6.2802,6.9319,6.9678,7.0021,7.0247,7.062,7.1038,7.1517,7.1577,7.1816,7.2505,7.2595,7.2505,7.2279,7.2249,7.2249,7.2249,7.2249,7.2249,7.2249,7.2249,7.2249,7.2249,7.1816,7.1577,7.1577,7.1577,7.1577,7.1577,6.9213,6.774,6.7051,6.4873,6.6275,7.0641,6.9959,7.0604,7.2235,7.2475,7.2176,7.165,7.3253,7.3642,7.3343,7.4467,7.4886,7.4886,7.4886,7.4495,7.3829,7.3088,7.2474,7.164,6.956,6.6526,6.3741,6.3741,6.3306,6.2802,6.2802,6.2802,6.2802,6.2802,6.2802,6.2802,6.2802,6.2676,6.2501,6.2325,6.1994,6.1743,6.1743,6.1592,6.1285,6.0758,6.124,6.1642,6.1472,0.0,6.1692,0.0,6.0869,6.0719,0.0,5.9684,0.0,0.0,0.0,0.0,0.0,0.0,0.0,0.0,5.8939,0.0,6.0534,6.1516,6.2275,6.2802,6.2802,6.2802,6.2802,6.2802,6.2802,6.2802,6.2802,6.2802,6.2802,6.2802,6.2802,6.2802,6.2802,6.2802,6.2802,6.2802,6.2802,6.2802,7.044,7.0649,7.0769,7.038,7.0875,7.1338,7.1487,7.1936,7.2325,7.2505,7.2954,7.3283,7.3283,7.3492,7.3462,7.2937,7.2907,7.2907,7.2907,7.2907,7.2907,7.2907,7.2505,7.2265,7.2265,7.2265,7.2265,7.2265,7.1068,7.0454,7.044,6.9602,7.053,7.2877,7.2206,7.1893,7.1923,7.2086,7.1816,7.1398,7.2924,7.3432,7.3386,7.4497,7.4886,7.4886,7.4886,7.4886,7.4714,7.3451,7.3492,7.3539,7.0231,6.7104,6.4545,6.407,6.3382,6.2802,6.2802,6.2802,6.2802,6.2802,6.2802,6.2802,6.2802,6.2802,6.2802,6.2802,6.2526,6.2225,6.2044,6.1893,6.1743,6.1517,6.1667,6.1918,6.225,6.2144,6.1723,0.0,0.0,0.0,0.0,5.989,5.9238,0.0,0.0,0.0,0.0,0.0,5.8981,5.9904,6.0939,6.1768,6.23,6.23,6.2476,6.2802,6.2802,6.2802,6.2802,6.2802,6.2802,6.2802,6.2802,6.2802,6.2802,6.2802,6.2802,6.2802,6.2802,6.2802,6.2802,6.2802,6.2802,6.2802,7.0979,7.0859,7.0889,7.0829,7.1398,7.1653,7.1068,7.2086,7.2684,7.2072,7.312,7.3881,7.3881,7.4407,7.4287,7.3057,7.2997,7.3027,7.3027,7.3027,7.3027,7.3027,7.2997,7.2967,7.2967,7.2967,7.2967,7.2967,7.2907,7.2907,7.2907,7.2847,7.2817,7.2787,7.2116,7.1833,7.1803,7.1218,7.1338,7.1983,7.2744,7.3402,7.4031,7.4766,7.5035,7.5035,7.5035,7.5035,7.5018,7.4851,7.3945,7.2451,7.0263,6.8692,6.7414,6.6042,6.4335,6.2852,6.2827,6.2802,6.2802,6.2802,6.2802,6.2802,6.2802,6.2802,6.2802,6.2802,6.2802,6.2651,6.2144,6.2425,6.2576,6.2094,6.2375,6.2701,6.2752,6.23,6.1065,5.8554,5.7757,5.7387,5.7387,5.7882,5.9207,0.0,0.0,0.0,0.0,0.0,5.871,6.1948,6.2069,6.23,6.2802,6.2802,6.2802,6.2802,6.2802,6.2802,6.2802,6.2802,6.2802,6.2802,6.2802,6.2802,6.2802,6.2802,6.2802,6.2802,6.2802,6.2802,6.2802,6.2802,6.2802,6.2802,7.0336,7.059,7.0739,7.0306,7.0726,7.1248,7.1623,7.2385,7.2847,7.2668,7.3402,7.3881,7.3881,7.3582,7.3462,7.3642,7.4138,7.4437,7.4437,7.4437,7.4437,7.4437,7.3941,7.3672,7.3672,7.3672,7.3672,7.3672,7.3146,7.2907,7.2877,7.2385,7.2132,7.2132,7.1427,7.1128,7.1158,7.1517,7.1743,7.2042,7.3748,7.4527,7.4796,7.5916,7.6347,7.6347,7.6347,7.6347,7.609,7.4508,7.3751,7.2861,6.9182,6.7814,6.7111,6.4853,6.3841,6.34,6.2927,6.2802,6.2802,6.2802,6.2802,6.2802,6.2802,6.2802,6.2802,6.2802,6.2802,6.2777,6.2626,6.2375,6.2144,6.2019,6.1768,6.1718,6.2144,6.2094,6.1918,6.1672,6.1522,6.1446,6.1446,6.1195,6.0763,0.0,0.0,6.0091,5.9689,5.9564,6.0468,6.2551,6.2601,6.2676,6.2802,6.2802,6.2802,6.2802,6.2802,6.2802,6.2802,6.2802,6.2802,6.2802,6.2802,6.2802,6.2802,6.2802,6.2802,6.2802,6.2802,6.2802,6.2802,6.2802,6.2802,6.2802,7.0546,7.0679,7.0799,7.047,7.0919,7.1368,7.1427,7.2265,7.2668,7.2086,7.2834,7.3343,7.303,7.2924,7.3057,7.3402,7.4078,7.4437,7.4437,7.4736,7.4886,7.4886,7.4557,7.4377,7.4377,7.4061,7.3762,7.3432,7.3086,7.2727,7.2445,7.2385,7.2176,7.1893,7.1846,7.18,7.183,7.2206,7.2731,7.3359,7.4467,7.5245,7.5826,7.6527,7.6647,7.6377,7.6377,7.5612,7.4432,7.353,7.2832,7.1819,6.8813,6.8079,6.7823,6.5198,6.4078,6.3626,6.3279,6.3003,6.2802,6.2802,6.2802,6.2802,6.2802,6.2802,6.2802,6.2802,6.2802,6.2802,6.2802,6.2551,6.2375,6.2375,6.1718,6.1466,6.225,6.1697,6.1522,6.2325,6.222,6.2069,6.2069,6.2044,6.1617,6.0713,6.0889,6.0869,6.0593,6.1145,6.1748,6.24,6.2676,6.2802,6.2802,6.2802,6.2927,6.3224,6.2927,6.3078,6.3576,6.3324,6.3203,6.3203,6.3203,6.3053,6.2802,6.2802,6.2802,6.2802,6.2802,6.2802,6.2802,6.2802,6.2802,6.2802,7.1009,7.0889,7.0889,7.0889,7.1368,7.1547,7.0979,7.195,7.2309,7.1068,7.1996,7.2535,7.1953,7.2325,7.2638,7.2727,7.3283,7.3672,7.3881,7.4527,7.4886,7.4886,7.4796,7.4736,7.4736,7.3988,7.3373,7.2907,7.2787,7.2505,7.2056,7.2624,7.2595,7.2072,7.2654,7.2967,7.3057,7.3146,7.3911,7.5065,7.5155,7.5826,7.6779,7.6779,7.6497,7.6036,7.6036,7.4386,7.2212,7.2347,7.1503,7.0075,6.8373,6.8297,6.8352,6.6082,6.4705,6.3923,6.3726,6.3274,6.2827,6.2927,6.2877,6.2802,6.2802,6.2802,6.2802,6.2802,6.2802,6.2802,6.2802,6.2802,6.2727,6.2455,6.1868,6.1667,6.2325,6.1421,6.1045,6.2019,6.1718,6.1461,6.1461,6.1793,6.2044,6.2119,6.2476,6.2727,6.2802,6.2902,6.2727,6.227,6.2701,6.2927,6.2927,6.2852,6.3103,6.3676,6.3178,6.35,6.4496,6.4023,6.3776,6.3701,6.3701,6.3375,6.2827,6.2902,6.2927,6.2952,6.3028,6.3053,6.3053,6.3053,6.3053,6.3053,7.0919,7.0889,7.0889,7.0889,7.0979,7.1009,7.0919,7.1547,7.1773,7.1009,7.1577,7.2013,7.1923,7.1487,7.1427,7.2013,7.2162,7.2701,7.3821,7.4527,7.4886,7.4886,7.4377,7.4078,7.4078,7.2851,7.2445,7.2907,7.2325,7.2295,7.2744,7.2847,7.2847,7.2744,7.2847,7.3206,7.3791,7.4347,7.5035,7.5796,7.6288,7.6617,7.6779,7.6779,7.6719,7.6659,7.6659,7.5311,7.3237,7.1567,7.0044,6.8493,6.6403,6.6145,6.6511,6.6097,6.5534,6.4831,6.3948,6.3274,6.2927,6.3425,6.3178,6.2802,6.2802,6.2802,6.2802,6.2802,6.2802,6.2802,6.2802,6.2802,6.235,6.0919,6.1748,6.2124,6.0869,6.1697,6.2476,6.2651,6.2601,6.2551,6.2551,6.222,6.2195,6.2651,6.2325,6.2325,6.2777,6.3279,6.3525,6.3425,6.3525,6.355,6.355,6.3053,6.3103,6.3701,6.3601,6.3898,6.4496,6.44,6.4124,6.3701,6.3701,6.3375,6.2852,6.335,6.355,6.3601,6.4073,6.4249,6.4249,6.4249,6.4249,6.4174,7.1906,7.1697,7.1427,7.1427,7.1128,7.0889,7.0889,7.1158,7.1248,7.0949,7.1158,7.1368,7.1368,7.1098,7.1009,7.1338,7.1683,7.2312,7.3313,7.3642,7.4168,7.4873,7.4257,7.3881,7.3881,7.33,7.2954,7.2907,7.2595,7.2595,7.2907,7.3266,7.3432,7.3462,7.3821,7.4168,7.4467,7.4766,7.5305,7.5916,7.6198,7.6527,7.6779,7.6779,7.6617,7.6317,7.6317,7.409,7.1072,7.038,6.8458,6.6232,6.5521,6.566,6.609,6.609,6.5735,6.5128,6.435,6.3948,6.3701,6.3701,6.35,6.3178,6.2877,6.2802,6.2802,6.2802,6.2802,6.2802,6.2802,6.2802,6.2551,6.1773,6.1798,6.1868,6.1672,6.1798,6.2149,6.2727,6.2802,6.2802,6.2802,6.2576,6.2526,6.2802,6.2852,6.3023,6.3274,6.3802,6.4124,6.4124,6.4124,6.4124,6.4124,6.3852,6.4002,6.4555,6.4274,6.4576,6.5333,6.5053,6.4802,6.4555,6.4555,6.4228,6.3726,6.4023,6.4124,6.4149,6.44,6.4496,6.4496,6.4496,6.4496,6.445,7.2787,7.2505,7.2116,7.2116,7.1697,7.1351,7.1351,7.1351,7.1351,7.1351,7.1218,7.1188,7.1368,7.1098,7.1038,7.1338,7.1697,7.2235,7.3086,7.2997,7.3492,7.4826,7.4257,7.3821,7.3672,7.3672,7.3492,7.3116,7.3116,7.3206,7.3373,7.3881,7.4121,7.4168,7.4676,7.4976,7.5125,7.5125,7.5497,7.6108,7.5976,7.6168,7.6587,7.6407,7.6048,7.5677,7.5677,7.276,6.8998,6.9512,6.7383,6.4576,6.5128,6.566,6.609,6.609,6.581,6.5383,6.4978,6.4676,6.44,6.3998,6.3797,6.3525,6.2927,6.2802,6.2802,6.2802,6.2802,6.2802,6.2802,6.2802,6.2656,6.23,6.1868,6.1718,6.2149,6.1843,6.1893,6.2701,6.2802,6.2802,6.2802,6.2927,6.3003,6.3003,6.355,6.3898,6.3898,6.44,6.4726,6.4877,6.4626,6.4572,6.4676,6.4551,6.4777,6.5304,6.4877,6.5179,6.6086,6.5685,6.5409,6.5283,6.5283,6.5003,6.4521,6.4626,6.4697,6.4701,6.4827,6.4877,6.4852,6.4726,6.4697,6.4651,7.2877,7.2847,7.2817,7.2817,7.2787,7.2757,7.2757,7.2757,7.2757,7.2757,7.2206,7.2056,7.2668,7.1621,7.1381,7.2638,7.2235,7.2461,7.3732,7.3236,7.3492,7.4826,7.4257,7.3612,7.2997,7.2967,7.3253,7.3821,7.3821,7.4121,7.4736,7.4796,7.4826,7.4826,7.4886,7.5245,7.5826,7.5826,7.6168,7.6659,7.6108,7.5946,7.5916,7.5275,7.5006,7.4976,7.4976,7.2354,6.8998,6.9512,6.7383,6.4576,6.5128,6.566,6.609,6.609,6.6065,6.6015,6.599,6.5279,6.4496,6.4446,6.4073,6.3525,6.2927,6.2802,6.2802,6.2802,6.2802,6.2802,6.2802,6.2802,6.23,6.0744,6.1723,6.2174,6.0693,6.1748,6.2727,6.2802,6.2802,6.2802,6.2802,6.3324,6.3626,6.3626,6.4149,6.4446,6.4446,6.4953,6.5459,6.5986,6.5028,6.4726,6.5254,6.4752,6.4777,6.5283,6.5279,6.5534,6.609,6.604,6.5785,6.5283,6.5283,6.5003,6.4547,6.5053,6.5233,6.5283,6.5785,6.5986,6.5936,6.5409,6.5233,6.5179,7.4061,7.3791,7.3522,7.3522,7.3193,7.2907,7.2907,7.2907,7.2907,7.2907,7.2684,7.2624,7.2877,7.2428,7.2339,7.2847,7.2684,7.2924,7.3821,7.3672,7.3762,7.4257,7.4437,7.4407,7.4168,7.4138,7.4257,7.4527,7.4527,7.4646,7.4886,7.4886,7.4886,7.4886,7.4886,7.5035,7.5275,7.5275,7.5407,7.5587,7.5365,7.5275,7.5245,7.5006,7.4886,7.4886,7.4886,7.2296,6.8998,6.9512,6.7383,6.4576,6.5128,6.566,6.609,6.609,6.609,6.609,6.609,6.581,6.5333,6.4651,6.435,6.3948,6.3003,6.2802,6.2802,6.2802,6.2802,6.2802,6.2802,6.2802,6.2601,6.1948,6.24,6.2576,6.1948,6.24,6.2927,6.3324,6.3375,6.35,6.3802,6.4073,6.4199,6.4199,6.4701,6.5003,6.5003,6.5509,6.5886,6.609,6.571,6.5584,6.5785,6.5584,6.5584,6.5785,6.5459,6.5584,6.609,6.576,6.5685,6.581,6.581,6.5685,6.5509,6.571,6.581,6.5835,6.6036,6.609,6.6086,6.5886,6.5584,6.5329,7.4796,7.4527,7.4227,7.4227,7.3821,7.3522,7.3522,7.3522,7.3522,7.3522,7.3326,7.3296,7.3522,7.3146,7.3057,7.3492,7.3343,7.3492,7.4151,7.4227,7.4227,7.4227,7.4646,7.4886,7.4886,7.4886,7.4886,7.4886,7.4886,7.4886,7.4886,7.4886,7.4886,7.4886,7.4886,7.4886,7.4886,7.4886,7.4886,7.4886,7.4886,7.4886,7.4886,7.4886,7.4886,7.4886,7.4886,7.2296,6.9026,6.9714,6.7515,6.4601,6.5333,6.581,6.609,6.609,6.609,6.609,6.609,6.609,6.5886,6.4978,6.4626,6.4249,6.3279,6.2927,6.2852,6.3028,6.2927,6.2852,6.3053,6.2927,6.2802,6.2802,6.2952,6.3078,6.3078,6.3229,6.35,6.3898,6.3948,6.4023,6.4224,6.4551,6.4601,6.4274,6.4902,6.5283,6.5283,6.581,6.609,6.609,6.609,6.609,6.609,6.609,6.609,6.6112,6.5735,6.5735,6.6086,6.571,6.576,6.609,6.609,6.609,6.609,6.609,6.599,6.586,6.586,6.576,6.5584,6.5584,6.5358,6.5103,7.4886,7.4886,7.4886,7.4886,7.4886,7.4886,7.4886,7.4886,7.4886,7.4886,7.4317,7.4168,7.4826,7.3702,7.3462,7.4766,7.4287,7.4197,7.4856,7.4886,7.4886,7.4886,7.4886,7.4886,7.4886,7.4886,7.4886,7.4886,7.4886,7.4886,7.4886,7.4886,7.4886,7.4886,7.4886,7.4886,7.4886,7.4886,7.4886,7.4886,7.4886,7.4886,7.4886,7.4886,7.4886,7.4886,7.4886,7.2314,6.91,7.0154,6.784,6.4697,6.576,6.609,6.609,6.609,6.609,6.609,6.609,6.609,6.5986,6.5434,6.4902,6.435,6.3847,6.3229,6.2978,6.3576,6.3229,6.3003,6.3601,6.3224,6.2827,6.2827,6.3324,6.3701,6.3701,6.4149,6.4496,6.4496,6.4496,6.4274,6.3751,6.4655,6.4831,6.3797,6.468,6.5304,6.5283,6.581,6.6112,6.609,6.609,6.609,6.609,6.609,6.609,6.609,6.609,6.609,6.609,6.609,6.609,6.609,6.609,6.609,6.609,6.6112,6.5785,6.5329,6.5283,6.4978,6.4521,6.4496,6.4496,6.4496,7.4886,7.4886,7.4886,7.4886,7.4886,7.4886,7.4886,7.4886,7.4886,7.4886,7.4736,7.4676,7.4886,7.4527,7.4467,7.4873,7.4706,7.4676,7.4886,7.4886,7.4886,7.4886,7.4886,7.4886,7.4886,7.4886,7.4886,7.4886,7.4886,7.4886,7.4886,7.4886,7.4886,7.4886,7.4886,7.4886,7.4886,7.4886,7.4886,7.4886,7.4886,7.4886,7.4886,7.4886,7.4886,7.4886,7.4886,7.3222,7.0957,7.0604,6.852,6.592,6.5209,6.5254,6.5534,6.5534,6.581,6.609,6.609,6.609,6.5986,6.5434,6.5179,6.4927,6.4375,6.4124,6.4048,6.4224,6.4124,6.4048,6.4224,6.4124,6.3998,6.3998,6.4149,6.4249,6.4249,6.44,6.4496,6.4496,6.4496,6.4446,6.4274,6.4551,6.4601,6.4274,6.4551,6.4902,6.5279,6.5434,6.571,6.609,6.609,6.609,6.609,6.609,6.5911,6.5534,6.5153,6.5179,6.5534,6.5153,6.5383,6.609,6.609,6.609,6.6086,6.5685,6.566,6.5785,6.5028,6.4877,6.5028,6.4647,6.4249,6.3998,7.4886,7.4886,7.4886,7.4886,7.4886,7.4886,7.4886,7.4886,7.4886,7.4886,7.4886,7.4886,7.4886,7.4886,7.4886,7.4886,7.4886,7.4886,7.4886,7.4886,7.4886,7.4886,7.4886,7.4886,7.4886,7.4886,7.4886,7.4886,7.4886,7.4886,7.4886,7.4886,7.4886,7.4886,7.4886,7.4886,7.4886,7.4886,7.4886,7.4886,7.4886,7.4886,7.4886,7.4886,7.4886,7.4886,7.4886,7.3117,7.0644,7.0288,6.8241,6.5681,6.4767,6.4726,6.5028,6.5254,6.5534,6.5835,6.604,6.609,6.6036,6.571,6.5459,6.5229,6.4902,6.4651,6.4551,6.4777,6.4647,6.4551,6.4777,6.4626,6.4496,6.4496,6.4676,6.4827,6.4827,6.5003,6.5053,6.4852,6.4827,6.4651,6.4224,6.4396,6.44,6.4199,6.4174,6.4325,6.463,6.5057,6.5434,6.5785,6.5986,6.609,6.609,6.609,6.5835,6.5283,6.5204,6.5204,6.5283,6.5179,6.5484,6.609,6.5886,6.5785,6.576,6.5434,6.5233,6.5107,6.4676,6.4425,6.4304,6.4224,6.3973,6.3747,7.4886,7.4886,7.4886,7.4886,7.4886,7.4886,7.4886,7.4886,7.4886,7.4886,7.4886,7.4886,7.4886,7.4886,7.4886,7.4886,7.4886,7.4886,7.4886,7.4886,7.4886,7.4886,7.4886,7.4886,7.4886,7.4886,7.4886,7.4886,7.4886,7.4886,7.4886,7.4886,7.4886,7.4886,7.4886,7.4886,7.4886,7.4886,7.4886,7.4886,7.4886,7.4886,7.4886,7.4886,7.4886,7.4886,7.4886,7.2432,6.9177,6.9305,6.7164,6.4446,6.4446,6.445,6.4622,6.5153,6.5333,6.5484,6.5986,6.609,6.609,6.609,6.5735,6.5358,6.5358,6.5003,6.4777,6.5279,6.4978,6.4802,6.5283,6.4978,6.4626,6.4626,6.5053,6.5333,6.5329,6.5735,6.581,6.5233,6.5179,6.4731,6.3726,6.4073,6.4149,6.3651,6.3626,6.3651,6.3772,6.4701,6.5258,6.5358,6.586,6.6086,6.6036,6.6086,6.5835,6.5329,6.581,6.5785,6.5329,6.581,6.604,6.6086,6.5534,6.5283,6.5283,6.5254,6.463,6.3822,6.4249,6.3776,6.2952,6.345,6.3626,6.3626,7.4886,7.4886,7.4886,7.4886,7.4886,7.4886,7.4886,7.4886,7.4886,7.4886,7.4886,7.4886,7.4886,7.4886,7.4886,7.4886,7.4886,7.4886,7.4886,7.4886,7.4886,7.4886,7.4886,7.4886,7.4886,7.4886,7.4886,7.4886,7.4886,7.4886,7.4886,7.4886,7.4886,7.4886,7.4886,7.4886,7.4886,7.4886,7.4886,7.4886,7.4886,7.4886,7.4886,7.4886,7.4886,7.4886,7.4886,7.3328,7.0787,6.7695,6.5401,6.3852,6.3852,6.4149,6.4622,6.5153,6.5584,6.5961,6.6086,6.609,6.609,6.609,6.599,6.5936,6.5936,6.5835,6.5785,6.5911,6.5835,6.5785,6.5911,6.5835,6.576,6.576,6.586,6.5785,6.538,6.5383,6.5107,6.4153,6.4048,6.3776,6.3053,6.3103,6.3128,6.3003,6.3003,6.34,6.4274,6.4551,6.5053,6.5911,6.6036,6.5911,6.5484,6.5886,6.5835,6.5283,6.5409,6.5409,6.5283,6.5409,6.571,6.6086,6.5534,6.5283,6.5279,6.4852,6.4547,6.43,6.3998,6.3726,6.3475,6.3128,6.3003,6.3003,7.4886,7.4886,7.4886,7.4886,7.4886,7.4886,7.4886,7.4886,7.4886,7.4886,7.4886,7.4886,7.4886,7.4886,7.4886,7.4886,7.4886,7.4886,7.4886,7.4886,7.4886,7.4886,7.4886,7.4886,7.4886,7.4886,7.4886,7.4886,7.4886,7.4886,7.4886,7.4886,7.4886,7.4886,7.4886,7.4886,7.4886,7.4886,7.4886,7.4886,7.4886,7.4886,7.4886,7.4886,7.4886,7.4886,7.4886,7.2982,6.9857,6.5745,6.3889,6.3274,6.3274,6.3651,6.4224,6.4752,6.5283,6.5785,6.6036,6.609,6.609,6.609,6.609,6.609,6.609,6.609,6.609,6.609,6.609,6.609,6.609,6.609,6.6036,6.576,6.571,6.5534,6.5003,6.4927,6.4626,6.3797,6.3701,6.3475,6.2877,6.2802,6.2802,6.2802,6.2802,6.3178,6.4073,6.435,6.4877,6.5685,6.5986,6.5835,6.5329,6.5835,6.5835,6.5283,6.5559,6.5409,6.4927,6.5179,6.5308,6.5329,6.4756,6.4551,6.4505,6.4249,6.3948,6.3676,6.3701,6.3525,6.3229,6.2927,6.2802,6.2802,7.4886,7.4886,7.4886,7.4886,7.4886,7.4886,7.4886,7.4886,7.4886,7.4886,7.4886,7.4886,7.4886,7.4886,7.4886,7.4886,7.4886,7.4886,7.4886,7.4886,7.4886,7.4886,7.4886,7.4886,7.4886,7.4886,7.4886,7.4886,7.4886,7.4886,7.4886,7.4886,7.4886,7.4886,7.4886,7.4886,7.4886,7.4886,7.4886,7.4886,7.4886,7.4886,7.4886,7.4886,7.4886,7.4886,7.4886,7.2296,6.8322,6.4577,6.3062,6.2827,6.2927,6.3375,6.3948,6.4475,6.5028,6.5534,6.5986,6.609,6.609,6.609,6.6036,6.5939,6.5939,6.6015,6.6065,6.5986,6.5939,6.5936,6.5835,6.5835,6.5685,6.5254,6.5179,6.4978,6.4425,6.435,6.4149,6.3601,6.355,6.335,6.2852,6.2802,6.2802,6.2802,6.2802,6.3103,6.3797,6.4249,6.4777,6.5409,6.5785,6.571,6.5179,6.5685,6.5685,6.5179,6.581,6.5634,6.4777,6.5153,6.5053,6.4601,6.3973,6.3701,6.3701,6.3701,6.335,6.2877,6.3475,6.335,6.2802,6.2802,6.2802,6.2802,7.4886,7.4886,7.4886,7.4886,7.4886,7.4886,7.4886,7.4886,7.4886,7.4886,7.4886,7.4886,7.4886,7.4886,7.4886,7.4886,7.4886,7.4886,7.4886,7.4886,7.4886,7.4886,7.4886,7.4886,7.4886,7.4886,7.4886,7.4886,7.4886,7.4886,7.4886,7.4886,7.4886,7.4886,7.4886,7.4886,7.4886,7.4886,7.4886,7.4886,7.4886,7.4886,7.4886,7.4886,7.4886,7.4886,7.4886,7.2296,6.853,6.6195,6.4237,6.2902,6.3425,6.3948,6.45,6.5028,6.5559,6.6011,6.6065,6.609,6.609,6.609,6.576,6.5409,6.5409,6.576,6.5986,6.5484,6.5409,6.5279,6.4802,6.4701,6.4676,6.4601,6.4601,6.4425,6.3877,6.3822,6.3576,6.2978,6.2927,6.2902,6.2827,6.2802,6.2802,6.2802,6.2802,6.3274,6.4325,6.445,6.4953,6.5939,6.5609,6.5153,6.4601,6.5153,6.5153,6.4601,6.5609,6.6015,6.5886,6.5484,6.5279,6.5153,6.4128,6.3701,6.3701,6.3701,6.335,6.2877,6.3475,6.335,6.2802,6.2802,6.2802,6.2802,7.4886,7.4886,7.4886,7.4886,7.4886,7.4886,7.4886,7.4886,7.4886,7.4886,7.4886,7.4886,7.4886,7.4886,7.4886,7.4886,7.4886,7.4886,7.4886,7.4886,7.4886,7.4886,7.4886,7.4886,7.4886,7.4886,7.4886,7.4886,7.4886,7.4886,7.4886,7.4886,7.4886,7.4886,7.4886,7.4886,7.4886,7.4886,7.4886,7.4886,7.4886,7.4886,7.4886,7.4886,7.4886,7.4749,7.3638,7.1369,6.8567,6.648,6.4478,6.2852,6.3103,6.3576,6.4149,6.4701,6.5233,6.571,6.6036,6.609,6.609,6.609,6.5936,6.566,6.5358,6.5484,6.5484,6.4953,6.4852,6.4777,6.4547,6.4496,6.44,6.4099,6.4048,6.3847,6.3299,6.3178,6.3103,6.2852,6.2802,6.2802,6.2802,6.2802,6.2802,6.2802,6.2802,6.3153,6.4023,6.4325,6.4852,6.5634,6.5409,6.5053,6.4521,6.4726,6.4726,6.4521,6.5283,6.5484,6.5204,6.4953,6.4526,6.3902,6.3404,6.3178,6.3178,6.3178,6.3028,6.2827,6.3078,6.3028,6.2802,6.2802,6.2802,6.2802]}]]